[[{"header":{"parameterUnit":"m.s-1","parameterCategory":1,"la1":31.0,"la2":29.5877,"lo1":-88.7671,"lo2":-86.6584,"dy":0.0162,"dx":0.0185,"nx":115,"ny":88,"refTime":"2024-05-30T12:00:00:Z","depth":0,"parameterNumber":2,"parameterNumberName":"U-component_of_WINDS"},"data":[0.0,0.0,0.0,0.0,0.0,0.0,0.0,0.0,0.0,0.0,0.0,0.0,0.0,0.0,0.0,0.0,0.0,0.0,0.0,0.0,0.0,0.0,0.0,0.0,0.0,0.0,0.0,0.0,0.0,0.0,0.0,0.0,0.0,0.0,0.0,0.0,0.0,0.0,0.0,0.0,0.0,0.0,0.0,0.0,0.0,0.0,0.0,0.0,0.0,0.0,0.0,0.0,0.0,0.0,0.0,0.0,0.0,0.0,0.0,0.0,0.0,0.0,0.0,0.0,0.0,0.0,0.0,0.0,0.0,0.0,0.0,0.0,0.0,0.0,0.0,0.0,0.0,0.0,0.0,0.0,0.0,0.0,0.0,0.0,0.0,0.0,0.0,0.0,0.0,0.0,0.0,0.0,0.0,0.0,0.0,0.0,0.0,0.0,0.0,0.0,0.0,0.0,0.0,0.0,0.0,0.0,0.0,0.0,0.0,0.0,0.0,0.0,0.0,0.0,0.0,0.0,0.0,0.0,0.0,0.0,0.0,0.0,0.0,0.0,0.0,0.0,0.0,0.0,0.0,0.0,0.0,0.0,0.0,0.0,0.0,0.0,0.0,0.0,0.0,0.0,0.0,0.0,0.0,0.0,0.0,0.0,0.0,0.0,0.0,0.0,0.0,0.0,0.0,0.0,0.0,0.0,0.0,0.0,0.0,0.0,0.0,0.0,0.0,0.0,0.0,0.0,0.0,0.0,0.0,0.0,0.0,0.0,0.0,0.0,0.0,0.0,0.0,0.0,0.0,0.0,0.0,0.0,0.0,0.0,0.0,0.0,0.0,0.0,0.0,0.0,0.0,0.0,0.0,0.0,0.0,0.0,0.0,0.0,0.0,0.0,0.0,0.0,0.0,0.0,0.0,0.0,0.0,0.0,0.0,0.0,0.0,0.0,0.0,0.0,0.0,0.0,0.0,0.0,0.0,0.0,0.0,0.0,0.0,0.0,0.0,0.0,0.0,0.0,0.0,0.0,0.0,0.0,0.0,0.0,0.0,0.0,0.0,0.0,0.0,0.0,0.0,0.0,0.0,0.0,0.0,0.0,0.0,0.0,0.0,0.0,0.0,0.0,0.0,0.0,0.0,0.0,0.0,0.0,0.0,0.0,0.0,0.0,0.0,0.0,0.0,0.0,0.0,0.0,0.0,0.0,0.0,0.0,0.0,0.0,0.0,0.0,0.0,0.0,0.0,0.0,0.0,0.0,0.0,0.0,0.0,0.0,0.0,0.0,0.0,0.0,0.0,0.0,0.0,0.0,0.0,0.0,0.0,0.0,0.0,0.0,0.0,0.0,0.0,0.0,0.0,0.0,0.0,0.0,0.0,0.0,0.0,0.0,0.0,0.0,0.0,0.0,0.0,0.0,0.0,0.0,0.0,0.0,0.0,0.0,0.0,0.0,0.0,0.0,0.0,0.0,0.0,0.0,0.0,0.0,0.0,0.0,0.0,0.0,0.0,0.0,0.0,0.0,0.0,0.0,0.0,0.0,0.0,0.0,0.0,0.0,0.0,0.0,0.0,0.0,0.0,0.0,0.0,0.0,0.0,0.0,0.0,0.0,0.0,0.0,0.0,0.0,0.0,0.0,0.0,0.0,0.0,0.0,0.0,0.0,0.0,0.0,0.0,0.0,0.0,0.0,0.0,0.0,0.0,0.0,0.0,0.0,0.0,0.0,0.0,0.0,0.0,0.0,0.0,0.0,0.0,0.0,0.0,0.0,0.0,0.0,0.0,0.0,0.0,0.0,0.0,0.0,0.0,0.0,0.0,0.0,0.0,0.0,0.0,0.0,0.0,0.0,0.0,0.0,0.0,0.0,0.0,0.0,0.0,0.0,0.0,0.0,0.0,0.0,0.0,0.0,0.0,0.0,0.0,0.0,0.0,0.0,0.0,0.0,0.0,0.0,0.0,0.0,0.0,0.0,0.0,0.0,0.0,0.0,0.0,0.0,0.0,0.0,0.0,0.0,0.0,0.0,0.0,0.0,0.0,0.0,0.0,0.0,0.0,0.0,0.0,0.0,0.0,0.0,0.0,0.0,0.0,0.0,0.0,0.0,0.0,0.0,0.0,0.0,0.0,0.0,0.0,0.0,0.0,0.0,0.0,0.0,0.0,0.0,0.0,0.0,0.0,0.0,0.0,0.0,0.0,0.0,0.0,0.0,0.0,0.0,0.0,0.0,0.0,0.0,0.0,0.0,0.0,0.0,0.0,0.0,0.0,0.0,0.0,0.0,0.0,0.0,0.0,0.0,0.0,0.0,0.0,0.0,0.0,0.0,0.0,0.0,0.0,0.0,0.0,0.0,0.0,0.0,0.0,0.0,0.0,0.0,0.0,0.0,0.0,0.0,0.0,0.0,0.0,0.0,0.0,0.0,0.0,0.0,0.0,0.0,0.0,0.0,0.0,0.0,0.0,0.0,0.0,0.0,0.0,0.0,0.0,0.0,0.0,0.0,0.0,0.0,0.0,0.0,0.0,0.0,0.0,0.0,0.0,0.0,0.0,0.0,0.0,0.0,0.0,0.0,0.0,0.0,0.0,0.0,0.0,0.0,0.0,0.0,0.0,0.0,0.0,0.0,0.0,0.0,0.0,0.0,0.0,0.0,0.0,0.0,0.0,0.0,0.0,0.0,0.0,0.0,0.0,0.0,0.0,0.0,0.0,0.0,0.0,0.0,0.0,0.0,0.0,0.0,0.0,0.0,0.0,0.0,0.0,0.0,0.0,0.0,0.0,0.0,0.0,0.0,0.0,0.0,0.0,0.0,0.0,0.0,0.0,0.0,0.0,0.0,0.0,0.0,0.0,0.0,0.0,0.0,0.0,0.0,0.0,0.0,0.0,0.0,0.0,0.0,0.0,0.0,0.0,0.0,0.0,0.0,0.0,0.0,0.0,0.0,0.0,0.0,0.0,0.0,0.0,0.0,0.0,0.0,0.0,0.0,0.0,0.0,0.0,0.0,0.0,0.0,0.0,0.0,0.0,0.0,0.0,0.0,0.0,0.0,0.0,0.0,0.0,0.0,0.0,0.0,0.0,0.0,0.0,0.0,0.0,0.0,0.0,0.0,0.0,0.0,0.0,0.0,0.0,0.0,0.0,0.0,0.0,0.0,0.0,0.0,0.0,0.0,0.0,0.0,0.0,0.0,0.0,0.0,0.0,0.0,0.0,0.0,0.0,0.0,0.0,0.0,0.0,0.0,0.0,0.0,0.0,0.0,0.0,0.0,0.0,0.0,0.0,0.0,0.0,0.0,0.0,0.0,0.0,0.0,0.0,0.0,0.0,0.0,0.0,0.0,0.0,0.0,0.0,0.0,0.0,0.0,0.0,0.0,0.0,0.0,0.0,0.0,0.0,0.0,0.0,0.0,0.0,0.0,0.0,0.0,0.0,0.0,0.0,0.0,0.0,0.0,0.0,0.0,0.0,0.0,0.0,0.0,0.0,0.0,0.0,0.0,0.0,0.0,0.0,0.0,0.0,0.0,0.0,0.0,0.0,0.0,0.0,0.0,0.0,0.0,0.0,0.0,0.0,0.0,0.0,0.0,0.0,0.0,0.0,0.0,0.0,0.0,0.0,0.0,0.0,0.0,0.0,0.0,0.0,0.0,0.0,0.0,0.0,0.0,0.0,0.0,0.0,0.0,0.0,0.0,0.0,0.0,0.0,0.0,0.0,0.0,0.0,0.0,0.0,0.0,0.0,0.0,0.0,0.0,0.0,0.0,0.0,0.0,0.0,0.0,0.0,0.0,0.0,0.0,0.0,0.0,0.0,0.0,0.0,0.0,0.0,0.0,0.0,0.0,0.0,0.0,0.0,0.0,0.0,0.0,0.0,0.0,0.0,0.0,0.0,0.0,0.0,0.0,0.0,0.0,0.0,0.0,0.0,0.0,0.0,0.0,0.0,0.0,0.0,0.0,0.0,0.0,0.0,0.0,0.0,0.0,0.0,0.0,0.0,0.0,0.0,0.0,0.0,0.0,0.0,0.0,0.0,0.0,0.0,0.0,0.0,0.0,0.0,0.0,0.0,0.0,0.0,0.0,0.0,0.0,0.0,0.0,0.0,0.0,0.0,0.0,0.0,0.0,0.0,0.0,0.0,0.0,0.0,0.0,0.0,0.0,0.0,0.0,0.0,0.0,0.0,0.0,0.0,0.0,0.0,0.0,0.0,0.0,0.0,0.0,0.0,0.0,0.0,0.0,0.0,0.0,0.0,0.0,0.0,0.0,0.0,0.0,-1.8793,0.0,0.0,0.0,0.0,0.0,0.0,0.0,0.0,0.0,0.0,0.0,0.0,0.0,0.0,0.0,0.0,0.0,0.0,0.0,0.0,0.0,0.0,0.0,0.0,0.0,0.0,0.0,0.0,0.0,0.0,0.0,0.0,0.0,0.0,0.0,0.0,0.0,0.0,0.0,0.0,0.0,0.0,0.0,0.0,0.0,0.0,0.0,0.0,0.0,0.0,0.0,0.0,0.0,0.0,0.0,0.0,0.0,0.0,0.0,0.0,0.0,0.0,0.0,0.0,0.0,0.0,0.0,0.0,0.0,0.0,0.0,0.0,0.0,0.0,0.0,0.0,0.0,0.0,0.0,0.0,0.0,0.0,0.0,0.0,0.0,0.0,0.0,0.0,0.0,0.0,0.0,0.0,0.0,0.0,0.0,0.0,0.0,0.0,0.0,0.0,0.0,0.0,0.0,0.0,0.0,0.0,0.0,0.0,0.0,0.0,-2.1203,-2.0917,-2.0428,-2.0125,-1.9982,0.0,0.0,0.0,0.0,0.0,0.0,0.0,0.0,0.0,0.0,0.0,0.0,0.0,0.0,0.0,0.0,0.0,0.0,0.0,0.0,0.0,0.0,0.0,0.0,0.0,0.0,0.0,0.0,0.0,0.0,0.0,0.0,0.0,0.0,0.0,0.0,0.0,0.0,0.0,0.0,0.0,0.0,0.0,0.0,0.0,0.0,0.0,0.0,0.0,0.0,0.0,0.0,0.0,0.0,0.0,0.0,0.0,0.0,0.0,0.0,0.0,0.0,0.0,0.0,0.0,0.0,0.0,0.0,0.0,0.0,0.0,0.0,0.0,0.0,0.0,0.0,0.0,0.0,0.0,0.0,0.0,0.0,0.0,0.0,0.0,0.0,0.0,0.0,0.0,0.0,0.0,0.0,0.0,0.0,0.0,0.0,0.0,0.0,0.0,0.0,0.0,0.0,0.0,0.0,0.0,0.0,0.0,0.0,0.0,0.0,0.0,0.0,-2.1961,-2.1362,-2.0896,0.0,0.0,0.0,0.0,0.0,0.0,0.0,0.0,0.0,0.0,0.0,0.0,0.0,0.0,0.0,0.0,0.0,0.0,0.0,0.0,0.0,0.0,0.0,0.0,0.0,0.0,0.0,0.0,0.0,0.0,0.0,0.0,0.0,0.0,0.0,0.0,0.0,0.0,0.0,0.0,0.0,0.0,0.0,0.0,0.0,0.0,0.0,0.0,0.0,0.0,0.0,0.0,0.0,0.0,0.0,0.0,0.0,0.0,0.0,0.0,0.0,0.0,0.0,0.0,0.0,0.0,0.0,0.0,0.0,0.0,0.0,0.0,0.0,0.0,0.0,0.0,0.0,0.0,0.0,0.0,0.0,0.0,0.0,0.0,0.0,0.0,0.0,0.0,0.0,0.0,0.0,0.0,0.0,0.0,0.0,0.0,0.0,0.0,0.0,0.0,0.0,0.0,0.0,0.0,0.0,0.0,0.0,0.0,0.0,0.0,-2.3354,-2.3559,-2.3248,0.0,-2.0949,0.0,0.0,0.0,0.0,0.0,0.0,0.0,0.0,0.0,0.0,0.0,0.0,0.0,0.0,0.0,0.0,0.0,0.0,0.0,0.0,0.0,0.0,0.0,0.0,0.0,0.0,0.0,0.0,0.0,0.0,0.0,0.0,0.0,0.0,0.0,0.0,0.0,0.0,0.0,0.0,0.0,0.0,0.0,0.0,0.0,0.0,0.0,0.0,0.0,0.0,0.0,0.0,0.0,0.0,0.0,0.0,0.0,0.0,0.0,0.0,0.0,0.0,0.0,0.0,0.0,0.0,0.0,0.0,0.0,0.0,0.0,0.0,0.0,0.0,0.0,0.0,0.0,0.0,0.0,0.0,0.0,0.0,0.0,0.0,0.0,0.0,0.0,0.0,0.0,0.0,0.0,0.0,0.0,0.0,0.0,0.0,0.0,0.0,0.0,0.0,0.0,0.0,0.0,0.0,0.0,0.0,0.0,0.0,0.0,0.0,-2.4216,-2.4587,-2.3759,-2.2744,0.0,0.0,0.0,0.0,0.0,0.0,0.0,0.0,0.0,0.0,0.0,0.0,0.0,0.0,0.0,0.0,0.0,0.0,0.0,0.0,0.0,0.0,0.0,0.0,0.0,0.0,0.0,0.0,0.0,0.0,0.0,0.0,0.0,0.0,0.0,0.0,0.0,0.0,0.0,0.0,0.0,0.0,0.0,0.0,0.0,0.0,0.0,0.0,0.0,0.0,0.0,0.0,0.0,0.0,0.0,0.0,0.0,0.0,0.0,0.0,0.0,0.0,0.0,0.0,0.0,0.0,0.0,0.0,0.0,0.0,0.0,0.0,0.0,0.0,0.0,0.0,0.0,0.0,0.0,0.0,0.0,0.0,0.0,0.0,0.0,0.0,0.0,0.0,0.0,0.0,0.0,0.0,0.0,0.0,0.0,0.0,0.0,0.0,0.0,0.0,0.0,0.0,0.0,0.0,0.0,0.0,0.0,0.0,0.0,0.0,-2.4809,-2.5027,-2.536,-2.4135,-2.3116,-2.2294,0.0,0.0,0.0,0.0,0.0,0.0,0.0,0.0,0.0,0.0,0.0,0.0,0.0,0.0,0.0,0.0,0.0,0.0,0.0,0.0,0.0,0.0,0.0,0.0,0.0,0.0,0.0,0.0,0.0,0.0,0.0,0.0,0.0,0.0,0.0,0.0,0.0,0.0,0.0,0.0,0.0,0.0,0.0,0.0,0.0,0.0,0.0,0.0,0.0,0.0,0.0,0.0,0.0,0.0,0.0,0.0,0.0,0.0,0.0,0.0,0.0,0.0,0.0,0.0,0.0,0.0,0.0,0.0,0.0,0.0,0.0,0.0,0.0,0.0,0.0,0.0,0.0,0.0,0.0,0.0,0.0,0.0,0.0,0.0,0.0,0.0,0.0,0.0,0.0,0.0,0.0,0.0,0.0,0.0,0.0,0.0,0.0,0.0,0.0,0.0,0.0,0.0,0.0,0.0,0.0,0.0,0.0,0.0,0.0,-2.5503,-2.5583,-2.6038,-2.4619,-2.3642,0.0,0.0,0.0,0.0,0.0,0.0,0.0,0.0,0.0,0.0,0.0,0.0,0.0,0.0,0.0,0.0,0.0,0.0,0.0,0.0,0.0,0.0,0.0,0.0,0.0,0.0,0.0,0.0,0.0,0.0,0.0,0.0,0.0,0.0,0.0,0.0,0.0,0.0,0.0,0.0,0.0,0.0,0.0,0.0,0.0,0.0,0.0,0.0,0.0,0.0,0.0,0.0,0.0,0.0,0.0,0.0,0.0,0.0,0.0,0.0,0.0,0.0,0.0,0.0,0.0,0.0,0.0,0.0,0.0,0.0,0.0,0.0,0.0,0.0,0.0,0.0,0.0,0.0,0.0,0.0,0.0,0.0,0.0,0.0,0.0,0.0,0.0,0.0,0.0,0.0,0.0,0.0,0.0,0.0,0.0,0.0,0.0,0.0,0.0,0.0,0.0,0.0,0.0,0.0,0.0,0.0,0.0,0.0,0.0,-2.6032,-2.6477,-2.6604,-2.6441,-2.4904,-2.3821,0.0,0.0,0.0,0.0,0.0,0.0,0.0,0.0,0.0,0.0,0.0,0.0,0.0,0.0,0.0,0.0,0.0,0.0,0.0,0.0,0.0,0.0,0.0,0.0,0.0,0.0,0.0,0.0,0.0,0.0,0.0,0.0,0.0,0.0,0.0,0.0,0.0,0.0,0.0,0.0,0.0,0.0,0.0,0.0,0.0,0.0,0.0,0.0,0.0,0.0,0.0,0.0,0.0,0.0,0.0,0.0,0.0,0.0,0.0,0.0,0.0,0.0,0.0,0.0,0.0,0.0,0.0,0.0,0.0,0.0,0.0,0.0,0.0,0.0,0.0,0.0,0.0,0.0,0.0,0.0,0.0,0.0,0.0,0.0,0.0,0.0,0.0,0.0,0.0,0.0,0.0,0.0,0.0,0.0,0.0,0.0,0.0,0.0,0.0,0.0,0.0,0.0,0.0,0.0,0.0,0.0,0.0,0.0,0.0,-2.681,0.0,-2.7424,0.0,-2.5274,-2.405,0.0,0.0,0.0,0.0,0.0,0.0,0.0,0.0,0.0,0.0,0.0,0.0,0.0,0.0,0.0,0.0,0.0,0.0,0.0,0.0,0.0,0.0,0.0,0.0,0.0,0.0,0.0,0.0,0.0,0.0,0.0,0.0,0.0,0.0,0.0,0.0,0.0,0.0,0.0,0.0,0.0,0.0,0.0,0.0,0.0,0.0,0.0,0.0,0.0,0.0,0.0,0.0,0.0,0.0,0.0,0.0,0.0,0.0,0.0,0.0,0.0,0.0,0.0,0.0,0.0,0.0,0.0,0.0,0.0,0.0,0.0,0.0,0.0,0.0,0.0,0.0,0.0,0.0,0.0,0.0,0.0,0.0,0.0,0.0,0.0,0.0,0.0,0.0,0.0,0.0,0.0,0.0,0.0,0.0,0.0,0.0,0.0,0.0,0.0,0.0,0.0,0.0,0.0,0.0,0.0,0.0,0.0,0.0,-2.6282,-2.8088,-2.797,-2.7974,-2.8145,-2.5839,-2.433,0.0,0.0,0.0,0.0,0.0,0.0,0.0,0.0,0.0,0.0,0.0,0.0,0.0,0.0,0.0,0.0,0.0,0.0,0.0,0.0,0.0,0.0,0.0,0.0,0.0,0.0,0.0,0.0,0.0,0.0,0.0,0.0,0.0,0.0,0.0,0.0,0.0,0.0,0.0,0.0,0.0,0.0,0.0,0.0,0.0,0.0,0.0,0.0,0.0,0.0,0.0,0.0,0.0,0.0,0.0,0.0,0.0,0.0,0.0,0.0,0.0,0.0,0.0,0.0,0.0,0.0,0.0,0.0,0.0,0.0,0.0,0.0,0.0,0.0,0.0,0.0,0.0,0.0,0.0,0.0,0.0,0.0,0.0,0.0,0.0,0.0,0.0,0.0,0.0,0.0,0.0,0.0,0.0,0.0,0.0,0.0,0.0,0.0,0.0,0.0,0.0,0.0,0.0,0.0,0.0,0.0,0.0,0.0,0.0,-2.9008,-2.9292,-2.9182,-2.8599,-2.699,-2.5491,0.0,0.0,0.0,0.0,0.0,0.0,0.0,0.0,0.0,0.0,0.0,0.0,0.0,0.0,0.0,0.0,0.0,0.0,0.0,0.0,0.0,0.0,0.0,0.0,0.0,0.0,0.0,0.0,0.0,0.0,0.0,0.0,0.0,0.0,0.0,0.0,0.0,0.0,0.0,0.0,0.0,0.0,0.0,0.0,0.0,0.0,0.0,0.0,0.0,0.0,0.0,0.0,0.0,0.0,0.0,0.0,0.0,0.0,0.0,0.0,0.0,0.0,0.0,0.0,0.0,0.0,0.0,0.0,0.0,0.0,0.0,0.0,0.0,0.0,0.0,0.0,0.0,0.0,0.0,0.0,0.0,0.0,0.0,0.0,0.0,0.0,0.0,0.0,0.0,0.0,0.0,0.0,0.0,0.0,0.0,0.0,0.0,0.0,0.0,0.0,0.0,0.0,0.0,0.0,0.0,0.0,0.0,0.0,0.0,-3.0479,-3.0558,-3.0373,-2.9954,-2.8254,-2.6643,-2.5115,0.0,0.0,0.0,0.0,0.0,0.0,0.0,0.0,0.0,0.0,0.0,0.0,0.0,0.0,0.0,0.0,0.0,0.0,0.0,0.0,0.0,0.0,0.0,0.0,0.0,0.0,0.0,0.0,0.0,0.0,0.0,0.0,0.0,0.0,0.0,0.0,0.0,0.0,0.0,0.0,0.0,0.0,0.0,0.0,0.0,0.0,0.0,0.0,0.0,0.0,0.0,0.0,0.0,0.0,0.0,0.0,0.0,0.0,0.0,0.0,0.0,0.0,0.0,0.0,0.0,0.0,0.0,0.0,0.0,0.0,0.0,0.0,0.0,0.0,0.0,0.0,0.0,0.0,0.0,0.0,0.0,0.0,0.0,0.0,0.0,0.0,0.0,0.0,0.0,0.0,0.0,0.0,0.0,0.0,0.0,0.0,0.0,0.0,0.0,0.0,0.0,0.0,0.0,0.0,0.0,0.0,0.0,0.0,-3.2625,-3.1934,-3.171,-3.1824,-2.9662,-2.7842,0.0,0.0,0.0,0.0,0.0,0.0,0.0,0.0,0.0,0.0,0.0,0.0,0.0,0.0,0.0,0.0,0.0,0.0,0.0,0.0,0.0,0.0,0.0,0.0,0.0,0.0,0.0,0.0,0.0,0.0,0.0,0.0,0.0,0.0,0.0,0.0,0.0,0.0,0.0,0.0,0.0,0.0,0.0,0.0,0.0,0.0,0.0,0.0,0.0,0.0,0.0,0.0,0.0,0.0,0.0,0.0,0.0,0.0,0.0,0.0,0.0,0.0,0.0,0.0,0.0,0.0,0.0,0.0,0.0,0.0,0.0,0.0,0.0,0.0,0.0,0.0,0.0,0.0,0.0,0.0,0.0,0.0,0.0,0.0,0.0,0.0,0.0,0.0,0.0,0.0,0.0,0.0,0.0,0.0,0.0,0.0,0.0,0.0,0.0,0.0,0.0,0.0,0.0,0.0,0.0,0.0,0.0,0.0,0.0,-3.5725,-3.598,-3.5,-3.2757,-3.1327,-2.9538,0.0,0.0,0.0,0.0,0.0,0.0,0.0,0.0,0.0,0.0,0.0,0.0,0.0,0.0,0.0,0.0,0.0,0.0,0.0,0.0,0.0,0.0,0.0,0.0,0.0,0.0,0.0,0.0,0.0,0.0,0.0,0.0,0.0,0.0,0.0,0.0,0.0,0.0,0.0,0.0,0.0,0.0,0.0,0.0,0.0,0.0,0.0,0.0,0.0,0.0,0.0,0.0,0.0,0.0,0.0,0.0,0.0,0.0,0.0,0.0,0.0,0.0,0.0,0.0,0.0,0.0,0.0,0.0,0.0,0.0,0.0,0.0,0.0,0.0,0.0,0.0,0.0,0.0,0.0,0.0,0.0,0.0,0.0,0.0,0.0,0.0,0.0,0.0,0.0,0.0,0.0,0.0,0.0,0.0,0.0,0.0,0.0,0.0,0.0,0.0,0.0,0.0,0.0,0.0,0.0,0.0,0.0,0.0,-3.536,-3.7027,-3.7873,-3.7343,-3.534,-3.3427,-3.1188,0.0,0.0,0.0,0.0,0.0,0.0,0.0,0.0,0.0,0.0,0.0,0.0,0.0,0.0,0.0,0.0,0.0,0.0,0.0,0.0,0.0,0.0,0.0,0.0,0.0,0.0,0.0,0.0,0.0,0.0,0.0,0.0,0.0,0.0,0.0,0.0,0.0,0.0,0.0,0.0,0.0,0.0,0.0,0.0,0.0,0.0,0.0,0.0,0.0,0.0,0.0,0.0,0.0,0.0,0.0,0.0,0.0,0.0,0.0,0.0,0.0,0.0,0.0,0.0,0.0,0.0,0.0,0.0,0.0,0.0,0.0,0.0,0.0,0.0,0.0,0.0,0.0,0.0,0.0,0.0,0.0,0.0,0.0,0.0,0.0,0.0,0.0,0.0,0.0,0.0,0.0,0.0,0.0,0.0,0.0,0.0,0.0,0.0,0.0,0.0,0.0,0.0,0.0,0.0,0.0,0.0,0.0,0.0,-3.6432,-3.7677,-3.878,-3.915,-3.8699,-3.5674,-3.2826,0.0,0.0,0.0,0.0,0.0,0.0,0.0,0.0,0.0,0.0,0.0,0.0,0.0,0.0,0.0,0.0,0.0,0.0,0.0,0.0,0.0,0.0,0.0,0.0,0.0,0.0,0.0,0.0,0.0,0.0,0.0,0.0,0.0,0.0,0.0,0.0,0.0,0.0,0.0,0.0,0.0,0.0,0.0,0.0,0.0,0.0,0.0,0.0,0.0,0.0,0.0,0.0,0.0,0.0,0.0,0.0,0.0,0.0,0.0,0.0,0.0,0.0,0.0,0.0,0.0,0.0,0.0,0.0,0.0,0.0,0.0,0.0,0.0,0.0,0.0,0.0,0.0,0.0,0.0,0.0,0.0,0.0,0.0,0.0,0.0,0.0,0.0,0.0,0.0,0.0,0.0,0.0,0.0,0.0,0.0,0.0,0.0,0.0,0.0,0.0,0.0,0.0,0.0,0.0,0.0,0.0,0.0,0.0,-3.9411,-4.0992,-4.1214,-4.1047,-4.0551,-3.7172,-3.4414,0.0,0.0,0.0,0.0,0.0,0.0,0.0,0.0,0.0,0.0,0.0,0.0,0.0,0.0,0.0,0.0,0.0,0.0,0.0,0.0,0.0,0.0,0.0,0.0,0.0,0.0,0.0,0.0,0.0,0.0,0.0,0.0,0.0,0.0,0.0,0.0,0.0,0.0,0.0,0.0,0.0,0.0,0.0,0.0,0.0,0.0,0.0,0.0,-2.2635,0.0,0.0,0.0,0.0,0.0,0.0,0.0,0.0,0.0,0.0,0.0,0.0,0.0,0.0,0.0,0.0,0.0,0.0,0.0,0.0,0.0,0.0,0.0,0.0,0.0,0.0,0.0,0.0,0.0,0.0,0.0,0.0,0.0,0.0,0.0,0.0,0.0,0.0,0.0,0.0,0.0,0.0,0.0,0.0,0.0,0.0,0.0,0.0,0.0,0.0,0.0,0.0,0.0,0.0,0.0,0.0,0.0,0.0,0.0,-4.1016,-4.2428,-4.2782,-4.2578,-4.1661,-3.8936,-3.6082,0.0,0.0,0.0,0.0,0.0,0.0,0.0,0.0,0.0,0.0,0.0,0.0,0.0,0.0,0.0,0.0,0.0,0.0,0.0,0.0,0.0,0.0,0.0,0.0,0.0,0.0,0.0,0.0,0.0,0.0,0.0,0.0,0.0,0.0,0.0,0.0,0.0,0.0,0.0,0.0,0.0,0.0,0.0,0.0,0.0,0.0,0.0,0.0,0.0,0.0,0.0,0.0,0.0,0.0,0.0,0.0,0.0,0.0,0.0,0.0,0.0,0.0,0.0,0.0,0.0,0.0,0.0,0.0,0.0,0.0,0.0,0.0,0.0,0.0,0.0,0.0,0.0,0.0,0.0,0.0,0.0,0.0,0.0,0.0,0.0,0.0,0.0,0.0,0.0,0.0,0.0,0.0,0.0,0.0,0.0,0.0,0.0,0.0,0.0,0.0,0.0,0.0,0.0,0.0,0.0,0.0,0.0,-4.0012,-4.2045,-4.3255,-4.3977,-4.3767,-4.2551,-4.0501,-3.7593,-3.3873,0.0,0.0,0.0,0.0,0.0,0.0,0.0,0.0,0.0,0.0,0.0,0.0,0.0,0.0,0.0,0.0,0.0,0.0,0.0,0.0,0.0,0.0,0.0,0.0,0.0,0.0,0.0,0.0,0.0,0.0,0.0,0.0,0.0,0.0,0.0,0.0,0.0,0.0,-2.4454,-2.6245,0.0,0.0,0.0,0.0,0.0,0.0,0.0,0.0,-2.623,0.0,0.0,0.0,0.0,0.0,0.0,0.0,0.0,0.0,0.0,0.0,0.0,0.0,0.0,0.0,0.0,0.0,0.0,0.0,0.0,0.0,0.0,0.0,0.0,0.0,0.0,0.0,0.0,0.0,0.0,0.0,0.0,0.0,0.0,0.0,0.0,0.0,0.0,0.0,0.0,0.0,0.0,0.0,0.0,0.0,0.0,0.0,0.0,0.0,0.0,0.0,0.0,0.0,0.0,0.0,0.0,-3.9172,-4.1537,-4.3448,-4.4943,-4.4886,-4.4327,-4.3211,-4.0956,-3.835,-3.5448,0.0,0.0,0.0,0.0,0.0,0.0,0.0,0.0,0.0,0.0,0.0,0.0,0.0,0.0,0.0,0.0,0.0,0.0,0.0,0.0,0.0,0.0,0.0,0.0,0.0,0.0,0.0,0.0,0.0,0.0,0.0,0.0,0.0,0.0,0.0,0.0,0.0,0.0,0.0,-2.9205,-3.0367,0.0,0.0,0.0,0.0,0.0,0.0,0.0,0.0,-2.6713,0.0,0.0,0.0,0.0,0.0,0.0,0.0,0.0,0.0,0.0,0.0,0.0,0.0,0.0,0.0,0.0,0.0,0.0,0.0,0.0,0.0,0.0,0.0,0.0,0.0,0.0,0.0,0.0,0.0,0.0,0.0,0.0,0.0,0.0,0.0,0.0,0.0,0.0,0.0,0.0,0.0,0.0,0.0,0.0,0.0,0.0,0.0,0.0,0.0,0.0,0.0,0.0,0.0,0.0,0.0,-3.9952,-4.2469,-4.4403,-4.5684,-4.5963,-4.5266,-4.3605,-4.1494,-3.8974,0.0,0.0,0.0,0.0,0.0,0.0,0.0,0.0,0.0,0.0,0.0,0.0,0.0,0.0,0.0,0.0,0.0,0.0,0.0,0.0,0.0,0.0,0.0,0.0,0.0,0.0,0.0,0.0,0.0,0.0,0.0,0.0,0.0,0.0,0.0,0.0,0.0,0.0,0.0,0.0,-3.0441,-3.149,-3.1581,0.0,0.0,0.0,0.0,0.0,0.0,-2.9258,-2.8988,0.0,0.0,0.0,0.0,0.0,0.0,0.0,0.0,0.0,0.0,0.0,0.0,0.0,0.0,0.0,0.0,0.0,0.0,0.0,0.0,0.0,0.0,0.0,0.0,0.0,0.0,0.0,0.0,0.0,0.0,0.0,0.0,0.0,0.0,0.0,0.0,0.0,0.0,0.0,0.0,0.0,0.0,0.0,0.0,0.0,0.0,0.0,0.0,0.0,0.0,0.0,0.0,0.0,0.0,0.0,-4.0567,-4.3376,-4.5269,-4.6229,-4.6848,-4.6078,-4.3775,-4.1875,-3.9318,0.0,0.0,0.0,0.0,0.0,0.0,0.0,0.0,0.0,0.0,0.0,0.0,0.0,0.0,0.0,0.0,0.0,0.0,0.0,0.0,0.0,0.0,0.0,0.0,0.0,0.0,0.0,0.0,0.0,0.0,0.0,0.0,0.0,0.0,0.0,0.0,0.0,0.0,0.0,0.0,0.0,-3.2497,-3.3158,-3.3304,0.0,0.0,0.0,0.0,-3.1861,-3.1555,0.0,0.0,0.0,0.0,0.0,0.0,0.0,0.0,0.0,0.0,0.0,0.0,0.0,0.0,0.0,0.0,0.0,0.0,0.0,0.0,0.0,0.0,0.0,0.0,0.0,0.0,0.0,0.0,0.0,0.0,0.0,0.0,0.0,0.0,0.0,0.0,0.0,0.0,0.0,0.0,0.0,0.0,0.0,0.0,0.0,0.0,0.0,0.0,0.0,0.0,0.0,0.0,0.0,0.0,0.0,0.0,-4.1567,-4.4313,-4.6215,-4.7116,-4.7276,-4.6214,-4.3775,-4.1977,-3.9267,0.0,0.0,0.0,0.0,0.0,0.0,0.0,0.0,0.0,0.0,0.0,0.0,0.0,0.0,0.0,0.0,0.0,0.0,0.0,0.0,0.0,0.0,0.0,0.0,0.0,0.0,0.0,0.0,0.0,0.0,0.0,0.0,0.0,0.0,0.0,0.0,0.0,0.0,0.0,0.0,0.0,-3.4335,-3.41,-3.4938,-3.5209,0.0,0.0,-3.3672,-3.325,-3.2735,0.0,0.0,0.0,0.0,0.0,0.0,0.0,0.0,0.0,0.0,0.0,0.0,0.0,0.0,0.0,0.0,0.0,0.0,0.0,0.0,0.0,0.0,0.0,0.0,0.0,0.0,0.0,0.0,0.0,0.0,0.0,0.0,0.0,0.0,0.0,0.0,0.0,0.0,0.0,0.0,0.0,0.0,0.0,0.0,0.0,0.0,0.0,0.0,0.0,0.0,0.0,0.0,0.0,0.0,0.0,-3.8711,-4.1877,-4.4612,-4.6438,-4.728,-4.7375,-4.6214,-4.374,-4.2043,-3.9456,0.0,0.0,0.0,0.0,0.0,0.0,0.0,0.0,0.0,0.0,0.0,0.0,0.0,0.0,0.0,0.0,0.0,0.0,0.0,0.0,0.0,0.0,0.0,0.0,0.0,0.0,0.0,0.0,0.0,0.0,0.0,0.0,0.0,0.0,0.0,0.0,0.0,0.0,0.0,0.0,0.0,0.0,-3.5633,-3.6418,0.0,0.0,0.0,-3.6015,-3.537,0.0,0.0,0.0,0.0,0.0,0.0,0.0,0.0,0.0,0.0,0.0,0.0,0.0,0.0,0.0,0.0,0.0,0.0,0.0,0.0,0.0,0.0,0.0,0.0,0.0,0.0,0.0,0.0,0.0,0.0,0.0,0.0,0.0,0.0,0.0,0.0,0.0,0.0,0.0,0.0,0.0,0.0,0.0,0.0,0.0,0.0,0.0,0.0,0.0,0.0,0.0,0.0,0.0,0.0,0.0,0.0,0.0,-4.2285,-4.4993,-4.6763,-4.7546,-4.7441,-4.6214,-4.3775,-4.2043,0.0,0.0,0.0,0.0,0.0,0.0,0.0,0.0,0.0,0.0,0.0,0.0,0.0,0.0,0.0,0.0,0.0,0.0,0.0,0.0,0.0,0.0,0.0,0.0,0.0,0.0,0.0,-1.9674,0.0,0.0,0.0,0.0,0.0,0.0,0.0,0.0,0.0,0.0,0.0,0.0,0.0,0.0,-3.6329,-3.7154,-3.7821,-3.8092,0.0,0.0,-3.8095,-3.7468,-3.6902,-3.6058,0.0,0.0,0.0,0.0,0.0,0.0,0.0,0.0,0.0,0.0,0.0,0.0,0.0,0.0,0.0,0.0,0.0,0.0,0.0,0.0,0.0,0.0,0.0,0.0,0.0,0.0,0.0,0.0,0.0,0.0,0.0,0.0,0.0,0.0,0.0,0.0,0.0,0.0,0.0,0.0,0.0,0.0,0.0,0.0,0.0,0.0,0.0,0.0,0.0,0.0,0.0,0.0,0.0,0.0,0.0,-4.3103,-4.5747,-4.7509,-4.8249,-4.7737,-4.6214,-4.3775,-4.2011,-3.9334,0.0,0.0,0.0,0.0,0.0,0.0,0.0,0.0,0.0,0.0,0.0,0.0,0.0,0.0,0.0,0.0,0.0,0.0,0.0,0.0,0.0,0.0,0.0,0.0,0.0,0.0,0.0,0.0,0.0,0.0,0.0,0.0,0.0,0.0,0.0,0.0,0.0,0.0,0.0,0.0,0.0,-3.7397,-3.8354,-3.9197,-3.9675,0.0,0.0,-3.9372,-3.908,-3.8126,-3.7237,-3.6671,0.0,0.0,0.0,0.0,0.0,0.0,0.0,0.0,0.0,0.0,0.0,0.0,0.0,0.0,0.0,0.0,0.0,0.0,0.0,0.0,0.0,0.0,0.0,0.0,0.0,0.0,0.0,0.0,0.0,0.0,0.0,0.0,0.0,0.0,0.0,0.0,0.0,0.0,0.0,0.0,0.0,0.0,0.0,0.0,0.0,0.0,0.0,0.0,0.0,0.0,0.0,0.0,0.0,-4.0342,-4.3828,-4.6056,-4.7577,-4.8349,-4.777,-4.6214,-4.374,-4.2043,-3.952,0.0,0.0,0.0,0.0,0.0,0.0,0.0,0.0,0.0,0.0,0.0,0.0,0.0,0.0,0.0,0.0,0.0,0.0,0.0,0.0,0.0,0.0,0.0,0.0,0.0,0.0,0.0,0.0,-2.3709,-2.4419,-2.4968,0.0,0.0,0.0,0.0,0.0,0.0,0.0,0.0,0.0,0.0,-3.8469,-3.9779,-4.0557,0.0,0.0,-4.1481,-4.1404,-4.0601,-3.9959,-3.9117,-3.7778,-3.6875,0.0,0.0,0.0,0.0,0.0,0.0,0.0,0.0,0.0,0.0,0.0,0.0,0.0,0.0,0.0,0.0,0.0,0.0,0.0,0.0,0.0,0.0,0.0,0.0,0.0,0.0,0.0,0.0,0.0,0.0,0.0,0.0,0.0,0.0,0.0,0.0,0.0,0.0,0.0,0.0,0.0,0.0,0.0,0.0,0.0,0.0,0.0,0.0,0.0,0.0,0.0,0.0,-4.0722,-4.4276,-4.6433,-4.7916,-4.8718,-4.8068,-4.6669,-4.4376,-4.2451,-4.0049,0.0,0.0,0.0,0.0,0.0,0.0,0.0,0.0,0.0,0.0,0.0,0.0,0.0,0.0,0.0,0.0,0.0,0.0,0.0,0.0,0.0,0.0,0.0,0.0,0.0,0.0,0.0,0.0,-2.4941,-2.5534,-2.6573,0.0,0.0,0.0,0.0,0.0,0.0,0.0,0.0,0.0,0.0,-3.9694,-4.0905,-4.1623,-4.2154,-4.2421,-4.2762,-4.2735,-4.1951,-4.1512,-4.0741,-3.9282,0.0,0.0,0.0,0.0,0.0,0.0,0.0,0.0,0.0,0.0,0.0,0.0,0.0,0.0,0.0,0.0,0.0,0.0,0.0,0.0,0.0,0.0,0.0,0.0,0.0,0.0,0.0,0.0,0.0,0.0,-2.7282,0.0,0.0,0.0,0.0,0.0,0.0,0.0,0.0,0.0,0.0,0.0,0.0,0.0,0.0,0.0,0.0,0.0,0.0,0.0,0.0,0.0,0.0,-4.1216,-4.4276,-4.6918,-4.8633,-4.9421,-4.8794,-4.7577,-4.5737,-4.3325,-4.0916,-3.8415,0.0,0.0,0.0,0.0,0.0,0.0,0.0,0.0,0.0,0.0,0.0,0.0,0.0,0.0,0.0,0.0,0.0,0.0,0.0,0.0,0.0,0.0,0.0,0.0,0.0,0.0,-2.6197,-2.6719,-2.7339,0.0,0.0,0.0,0.0,0.0,0.0,0.0,0.0,0.0,0.0,-3.9488,-4.0961,-4.1617,-4.2418,-4.2997,-4.3049,-4.3075,-4.3049,-4.3023,-4.2552,-4.1981,0.0,0.0,0.0,0.0,0.0,0.0,0.0,0.0,0.0,0.0,0.0,0.0,0.0,0.0,0.0,0.0,0.0,0.0,0.0,0.0,0.0,0.0,0.0,0.0,0.0,0.0,0.0,-3.1903,-3.1386,0.0,0.0,0.0,0.0,0.0,0.0,0.0,0.0,0.0,0.0,0.0,-4.0515,-4.1309,0.0,0.0,0.0,0.0,0.0,0.0,0.0,0.0,0.0,0.0,0.0,0.0,-4.1974,-4.4983,-4.7192,-4.87,-4.9488,-4.886,-4.7642,-4.5832,-4.3423,-4.036,-3.663,0.0,0.0,0.0,0.0,0.0,0.0,0.0,0.0,0.0,0.0,0.0,0.0,0.0,0.0,0.0,0.0,0.0,0.0,0.0,0.0,0.0,0.0,0.0,0.0,0.0,-2.753,0.0,0.0,0.0,0.0,0.0,0.0,0.0,0.0,0.0,0.0,0.0,-3.7813,-3.9312,-4.0815,-4.2077,-4.3048,-4.3703,-4.425,0.0,0.0,0.0,0.0,0.0,0.0,0.0,0.0,0.0,0.0,0.0,0.0,0.0,0.0,-4.0352,-3.8843,-3.8291,-3.819,-3.8517,0.0,0.0,0.0,0.0,0.0,0.0,0.0,0.0,0.0,0.0,0.0,0.0,0.0,0.0,-3.6167,0.0,-3.4835,0.0,0.0,0.0,0.0,0.0,0.0,0.0,0.0,-4.2068,-4.3113,-4.363,-4.4414,-4.4354,0.0,-4.3595,-4.1561,0.0,0.0,0.0,0.0,0.0,0.0,0.0,0.0,-4.3044,-4.5776,-4.798,-4.9345,-4.9824,-4.9454,-4.8388,-4.656,-4.3533,-4.0316,-3.7,-3.5091,-3.3306,0.0,0.0,0.0,0.0,0.0,0.0,0.0,0.0,0.0,0.0,0.0,0.0,0.0,0.0,0.0,0.0,0.0,0.0,0.0,0.0,0.0,0.0,0.0,-2.9306,0.0,0.0,0.0,0.0,0.0,0.0,0.0,0.0,0.0,-3.6201,-3.7691,-3.9337,-4.0827,-4.2186,-4.3337,-4.4068,0.0,0.0,0.0,0.0,0.0,0.0,0.0,-4.5761,-4.53,-4.4995,-4.4735,-4.4516,-4.4313,-4.4141,-4.4141,0.0,0.0,-4.1229,-4.0603,-4.0478,-4.0777,-4.0551,-4.04,-4.0752,-4.1128,-4.1326,0.0,0.0,0.0,0.0,0.0,0.0,0.0,0.0,-4.1067,-4.1032,0.0,-3.872,0.0,0.0,0.0,0.0,0.0,-4.1067,0.0,0.0,-4.563,-4.6734,-4.6803,-4.7493,-4.7431,-4.6769,-4.6734,-4.5906,-4.4173,-4.0664,0.0,0.0,0.0,0.0,0.0,0.0,-4.4389,-4.6672,-4.9213,-5.0566,-5.0627,-5.0643,-4.975,-4.7763,-4.3811,-4.1001,-3.9524,-3.6999,-3.4968,-3.3552,-3.1613,0.0,0.0,0.0,0.0,0.0,0.0,0.0,0.0,0.0,0.0,0.0,0.0,0.0,0.0,0.0,0.0,0.0,0.0,0.0,0.0,-3.0879,0.0,0.0,0.0,0.0,0.0,0.0,0.0,0.0,0.0,0.0,-3.8161,-3.9547,-4.0958,-4.2185,0.0,0.0,0.0,0.0,-4.6499,-4.6525,-4.6552,-4.6604,-4.6604,-4.6604,-4.673,-4.6959,0.0,0.0,-4.6371,-4.6351,-4.6326,-4.6351,-4.6301,-4.5673,-4.3539,-4.3112,-4.3062,-4.3087,-4.3062,-4.3062,-4.3062,-4.3162,-4.3212,-4.7275,0.0,0.0,0.0,0.0,-4.3771,-4.4526,-4.4975,-4.4975,-4.4665,-4.4018,-4.2871,0.0,0.0,0.0,0.0,0.0,0.0,-4.5147,-4.6493,-4.8217,-4.9321,-4.9838,-5.0568,-5.0499,-4.9838,-4.9838,-4.8734,-4.6769,-4.563,-4.3492,-4.0422,0.0,0.0,0.0,0.0,-4.5853,-4.7951,-4.9581,-5.0646,-5.1159,-5.0695,-4.9042,-4.6059,-4.4068,-4.214,-4.0259,-3.9031,-3.7523,-3.5676,-3.3644,0.0,0.0,0.0,0.0,0.0,0.0,0.0,0.0,0.0,0.0,0.0,0.0,0.0,0.0,0.0,0.0,0.0,0.0,0.0,-3.2634,-3.3246,-3.3439,0.0,0.0,0.0,0.0,0.0,0.0,0.0,0.0,0.0,-4.2004,-4.2579,-4.331,0.0,0.0,-4.5976,-4.5976,-4.663,-4.7231,-4.7623,-4.8068,0.0,-4.8852,-4.8904,-4.8956,-4.902,-4.8567,-4.8135,-4.7886,-4.7641,-4.7456,-4.7456,-4.7456,-4.7205,-4.6652,-4.5874,-4.5397,-4.5347,-4.5347,-4.5347,-4.5372,-4.5648,-4.5924,-5.1299,-4.8144,-4.6786,-4.6231,-4.6403,-4.7353,-4.7997,-4.839,-4.8361,-4.8086,-4.7569,-4.6527,-4.5837,-4.5389,-4.5389,0.0,0.0,0.0,-4.8155,-4.9114,-5.0321,-5.1114,-5.1563,-5.1981,-5.1946,-5.1563,-5.1563,-5.0838,-4.9465,-4.9189,-4.7907,-4.5596,0.0,0.0,-4.4561,-4.601,-4.7513,-4.9021,-5.0475,-5.129,-5.139,-5.0102,-4.8206,-4.5684,-4.4025,-4.2602,-4.1401,-4.0136,-3.8846,-3.7338,-3.5584,-3.3706,0.0,0.0,0.0,0.0,0.0,0.0,0.0,0.0,0.0,0.0,0.0,-2.9348,-2.9348,0.0,0.0,0.0,-3.2308,-3.3534,-3.5125,-3.5539,0.0,0.0,0.0,0.0,0.0,0.0,0.0,-4.0627,-4.1901,-4.3282,-4.4886,-4.5306,-4.5592,-4.5898,-4.6473,-4.6891,-4.7127,0.0,-4.8224,-4.8773,-4.9165,-4.9531,-4.9819,-4.9897,-4.9889,-5.0089,-4.9955,-4.9589,-4.9177,-4.8901,-4.8712,-4.8586,-4.8586,-4.8586,-4.8586,-4.8033,-4.7431,-4.7029,-4.6928,-4.6954,-4.6954,-4.7205,-4.7456,-5.4231,-5.3137,-5.1425,-5.0108,-4.9422,-5.0725,-5.1287,-5.1257,-5.1287,-5.1287,-5.1183,-4.9706,-4.9051,-4.9051,-4.9051,0.0,-4.8155,-5.0252,-5.1218,-5.1321,-5.2011,-5.2326,-5.236,-5.2394,-5.236,-5.239,-5.236,-5.2326,-5.2252,-5.1597,-5.1252,-5.1085,-4.7672,-4.6259,-4.701,-4.8293,-4.9304,-4.9953,-5.1668,-5.2168,-5.1386,-4.9093,-4.741,-4.6296,-4.3963,-4.2663,-4.254,-4.0724,-3.9339,-3.86,-3.7307,-3.5645,-3.3644,0.0,0.0,0.0,0.0,0.0,0.0,0.0,0.0,0.0,0.0,0.0,0.0,0.0,0.0,0.0,-3.4906,0.0,-3.7606,-3.7913,0.0,0.0,0.0,-4.0048,-4.0584,-4.1123,-4.1985,-4.3498,0.0,0.0,-4.6819,-4.7559,-4.7657,-4.6848,-4.7127,-4.7675,-4.825,-4.8773,-4.9348,-4.9845,-4.9949,-4.9976,-5.0132,-5.0132,-5.0228,-5.0451,-5.0783,-5.079,-5.0245,-5.0053,-4.9976,-4.9579,-4.959,-4.9565,-4.959,-4.9464,-4.9264,-4.8209,-4.8033,-4.8033,-4.8058,-4.8058,-4.8109,-5.6962,-5.6535,-5.5292,-5.3584,-5.1765,-5.252,-5.2839,-5.2873,-5.2873,-5.2873,-5.277,-5.1839,-5.1395,-5.1395,-5.1395,-5.1291,-5.1183,-5.1671,-5.2287,-5.2873,-5.3046,-5.3425,-5.3942,-5.3977,-5.3977,-5.3977,-5.3977,-5.3667,-5.3115,-5.2942,-5.2528,-5.1912,-5.1016,-5.0361,-5.008,-5.039,-5.1068,-5.2062,-5.2257,-5.1965,-5.1149,-4.9016,-4.7631,-4.7052,-4.4644,-4.3094,-4.2602,-4.1648,-4.0539,-3.9308,-3.7984,-3.6569,-3.506,-3.3521,0.0,0.0,0.0,0.0,0.0,0.0,0.0,0.0,0.0,-3.3152,-3.3704,0.0,-3.5059,0.0,-3.6999,-3.8688,-4.0878,-4.0849,0.0,0.0,-4.2694,-4.2911,-4.363,-4.3978,-4.4561,-4.559,-4.633,-4.7074,-4.787,-4.8881,-4.9292,-4.8843,-4.8714,-4.8852,-4.9401,-4.9584,-4.9897,-5.0446,-5.0577,-5.0734,-5.1073,-5.1178,-5.1204,-5.1299,-5.1205,-5.0931,-5.055,-5.0295,-4.9976,-4.9654,-4.959,-4.959,-4.959,-4.959,-4.9515,-4.9264,-4.9188,-4.9188,-4.9188,-4.9188,-4.9188,-5.8033,-5.7811,-5.7153,-5.6028,-5.4718,-5.4229,-5.397,-5.3908,-5.3908,-5.3908,-5.3873,-5.3425,-5.3015,-5.2804,-5.3049,-5.3046,-5.277,-5.308,-5.346,-5.3873,-5.3908,-5.4115,-5.4494,-5.4494,-5.4494,-5.4494,-5.4494,-5.4287,-5.3908,-5.3873,-5.3667,-5.3253,-5.3253,-5.3046,-5.2632,-5.2287,-5.2344,-5.2785,-5.2471,-5.1781,-5.0654,-4.8839,-4.7568,-4.6802,-4.4427,-4.2971,-4.2633,-4.1648,-4.072,-3.9951,-3.897,-3.7923,-3.6876,-3.5245,-3.3706,0.0,0.0,0.0,0.0,0.0,0.0,0.0,0.0,0.0,0.0,0.0,-3.7831,-3.9093,-3.9893,-4.1274,-4.353,-4.3716,-4.4216,-4.5537,-4.5475,-4.5644,-4.6453,-4.6469,-4.6818,-4.7859,-4.8219,-4.8619,-4.9368,-4.9925,-5.0276,-5.0254,-5.018,-5.0131,-5.0272,-5.0289,-5.0498,-5.1047,-5.1152,-5.123,-5.157,-5.1596,-5.1596,-5.1596,-5.1434,-5.122,-5.0842,-5.055,-5.0232,-4.9912,-4.9744,-4.959,-4.959,-4.959,-4.959,-4.959,-4.959,-4.959,-4.959,-4.959,-4.959,-5.8532,-5.8315,-5.7938,-5.7747,-5.7611,-5.5869,-5.496,-5.4698,-5.4632,-5.4598,-5.4494,-5.4494,-5.4149,-5.3598,-5.4218,-5.4149,-5.3598,-5.4218,-5.4494,-5.4494,-5.4494,-5.4494,-5.4494,-5.4494,-5.4494,-5.4494,-5.4494,-5.4494,-5.4494,-5.4494,-5.4494,-5.4494,-5.4494,-5.4494,-5.4494,-5.3873,-5.3341,-5.2859,-5.2467,-5.1619,-5.0232,-4.8711,-4.741,-4.6334,-4.3932,-4.2602,-4.2571,-4.1212,-4.0505,-4.0474,-3.9893,-3.9213,-3.8631,-3.6876,-3.5583,0.0,-3.4967,0.0,0.0,0.0,0.0,0.0,0.0,0.0,0.0,-3.9616,-4.0878,-4.2817,-4.3002,-4.3802,-4.5772,-4.6352,-4.6945,-4.7908,-4.7985,-4.826,-4.8985,-4.8786,-4.8958,-4.9992,-4.9968,-5.0102,-5.083,-5.081,-5.0966,-5.1315,-5.1372,-5.1329,-5.1014,-5.0952,-5.1073,-5.1544,-5.1596,-5.157,-5.1596,-5.1596,-5.1596,-5.1596,-5.1596,-5.1471,-5.112,-5.0867,-5.055,-5.0168,-4.9847,-4.9654,-4.959,-4.959,-4.959,-4.959,-4.959,-4.959,-4.959,-4.959,-4.959,-6.0397,-6.0052,-5.9232,-5.8702,-5.838,-5.7286,-5.6365,-5.5617,-5.5455,-5.5081,-5.4529,-5.4494,-5.4425,-5.4322,-5.4425,-5.4425,-5.4322,-5.446,-5.4494,-5.4494,-5.4494,-5.4494,-5.4494,-5.4494,-5.4494,-5.4494,-5.4494,-5.4494,-5.4494,-5.4494,-5.4494,-5.4494,-5.4494,-5.4494,-5.4494,0.0,0.0,0.0,-5.2664,-5.1846,-5.0876,-4.8935,-4.7662,-4.7052,-4.418,0.0,-4.2571,-4.1243,-4.0505,-4.0474,-3.9859,0.0,0.0,0.0,0.0,0.0,0.0,0.0,0.0,0.0,0.0,0.0,-4.1278,-4.134,-4.1063,-4.2109,-4.3402,-4.4849,-4.5003,-4.5865,-4.7835,-4.7937,-4.8584,-5.0136,-5.0425,-5.055,-5.0612,-5.0816,-5.097,-5.075,-5.0934,-5.1117,-5.1361,-5.1863,-5.2188,-5.2038,-5.2196,-5.2244,-5.1874,-5.1538,-5.1465,-5.1596,-5.1596,-5.1596,-5.1596,-5.1596,-5.1596,-5.1596,-5.1596,-5.1497,-5.1183,-5.1057,-5.0804,-5.0232,-5.0065,-4.9912,-4.9654,-4.959,-4.964,-4.9615,-4.9615,-4.959,-4.959,-4.9615,-4.959,-6.0914,0.0,-5.9999,-5.9636,0.0,-5.8709,-5.792,-5.7094,-5.6455,-5.577,-5.5046,-5.4667,-5.4494,-5.4494,-5.4494,-5.4494,-5.4494,-5.4494,-5.4494,-5.4494,-5.4494,-5.4494,-5.4494,-5.4494,-5.4494,-5.4494,-5.4494,-5.4494,-5.4494,-5.4494,-5.4494,-5.4494,-5.4494,-5.4494,-5.4529,-5.4335,-5.398,-5.3416,-5.2696,-5.1948,-5.107,-4.9349,-4.804,-4.727,-4.4892,0.0,0.0,0.0,0.0,0.0,0.0,0.0,0.0,0.0,0.0,-3.9554,-3.9831,-4.0047,-4.0047,-4.0662,-4.1648,-4.2971,-4.3987,-4.4295,-4.3618,-4.4479,-4.5618,-4.6942,-4.7065,-4.7773,-4.9435,-4.9873,-5.0393,-5.1304,-5.1739,-5.1924,-5.1942,-5.2034,-5.1981,-5.1661,-5.1793,-5.2041,-5.2031,-5.2537,-5.2864,-5.2682,-5.2585,-5.2465,-5.2121,-5.1783,-5.1596,-5.1596,-5.1596,-5.1596,-5.1596,-5.1596,-5.1596,-5.1596,-5.1596,-5.1534,-5.1346,-5.1183,-5.0931,-5.0423,-5.0232,-4.9976,-4.9744,-4.9816,-4.9992,-5.0042,-5.0218,-5.0419,-5.0419,-5.0193,-5.0092,-6.1111,-6.0671,-6.0521,-6.0333,-6.0139,-5.9783,-5.9238,-5.8479,0.0,0.0,0.0,-5.5046,-5.4701,-5.4701,-5.4563,-5.4494,-5.4494,-5.4494,-5.4494,-5.4494,-5.4494,-5.4494,-5.4494,-5.4494,-5.4494,-5.4494,-5.4494,-5.4494,-5.4494,-5.4494,-5.4494,-5.4494,-5.4494,-5.4463,-5.4431,-5.411,-5.3749,-5.3382,-5.2696,-5.1911,-5.1102,-4.97,-4.8418,-4.7333,-4.558,-4.4093,-4.2817,-4.214,-4.1494,-4.0905,-4.1463,-4.1771,-4.1771,-4.1771,-4.1771,-4.1771,-4.1771,-4.1894,-4.2109,-4.2663,-4.3587,-4.5033,-4.6234,-4.6665,-4.5988,-4.6573,-4.7465,-4.8696,-4.8912,-4.9497,-5.0759,-5.1467,-5.1966,-5.2124,-5.2681,-5.3091,-5.3082,-5.2946,-5.2717,-5.2576,-5.2738,-5.2883,-5.284,-5.3155,-5.3321,-5.3153,-5.2834,-5.2404,-5.2121,-5.1783,-5.1596,-5.1596,-5.1596,-5.1596,-5.1596,-5.1596,-5.1596,-5.1596,-5.1596,-5.1596,-5.1534,-5.1346,-5.1057,-5.0652,-5.041,-5.0192,-4.992,-5.0218,-5.0544,-5.0569,-5.0946,-5.1322,-5.1373,-5.1046,-5.0845,-6.1901,-6.1004,-6.0701,-6.0485,-6.0333,-5.9943,-5.9547,-5.9075,-5.7458,-5.6736,-5.6598,-5.5805,-5.546,-5.5426,-5.4805,-5.4494,-5.4494,-5.4494,-5.4494,-5.4494,-5.4494,-5.4494,-5.4494,-5.4494,-5.4494,-5.4494,-5.4494,-5.4494,-5.4494,-5.4494,-5.4494,-5.4494,-5.4494,-5.4399,-5.4239,-5.3915,-5.3584,-5.3247,-5.259,-5.1911,-5.1102,-4.9821,-4.8541,-4.7302,-4.5732,-4.4421,-4.3501,-4.2817,-4.2417,-4.2325,-4.2417,-4.2448,-4.2448,-4.2479,-4.2479,-4.2448,-4.2479,-4.294,-4.4048,-4.4302,-4.5126,-4.7004,-4.7896,-4.805,-4.7404,-4.7927,-4.8666,-4.9466,-5.0051,-5.0697,-5.1498,-5.2175,-5.2686,-5.3085,-5.4009,-5.4394,-5.4022,-5.381,-5.3664,-5.3716,-5.3553,-5.3471,-5.3508,-5.3704,-5.3817,-5.3504,-5.2983,-5.2342,-5.1846,-5.1659,-5.1596,-5.1596,-5.1596,-5.1596,-5.1596,-5.1596,-5.1596,-5.1596,-5.1596,-5.1596,-5.1596,-5.1534,-5.1309,-5.0741,-5.0909,-5.0867,-5.0424,-5.077,-5.1096,-5.1172,-5.1297,-5.1498,-5.19,-5.1875,-5.1724,-6.2713,-6.1741,-6.1401,-6.0905,-6.0364,-5.9914,-5.9553,-5.9216,-5.839,-5.7771,-5.7322,-5.6598,-5.6253,-5.6184,-5.546,-5.5115,-5.5115,-5.4701,-5.4494,-5.4494,-5.4494,-5.4494,-5.4494,-5.4494,-5.4494,-5.4494,-5.4494,-5.4494,-5.4494,-5.4494,-5.4494,-5.4497,-5.4399,-5.4271,-5.4078,-5.375,-5.3382,-5.3041,-5.2483,-5.1802,-5.1102,-5.0173,-4.9187,-4.8059,-4.6679,-4.5425,-4.4328,-4.3568,-4.2971,-4.2602,-4.294,-4.3125,-4.3125,-4.3464,-4.3833,-4.4202,-4.4233,-4.4664,-4.5618,-4.6018,-4.6788,-4.805,-4.8789,-4.9251,-4.9281,-4.9558,-5.0051,-5.0697,-5.1097,-5.1528,-5.2206,-5.2852,-5.3392,-5.3774,-5.4483,-5.4824,-5.475,-5.4331,-5.4153,-5.4211,-5.4192,-5.4036,-5.3877,-5.4134,-5.4161,-5.3652,-5.3044,-5.2342,-5.1721,-5.1596,-5.1596,-5.1596,-5.1596,-5.1596,-5.1596,-5.1596,-5.1596,-5.1596,-5.1596,-5.1596,-5.1596,-5.1622,-5.1413,-5.11,-5.128,-5.1238,-5.0927,-5.1348,-5.1649,-5.1749,-5.2,-5.2277,-5.2503,-5.2553,-5.2452,-6.3597,-6.2611,-6.2036,-6.1227,-6.0301,-5.9818,-5.9521,-5.9352,-5.9115,-5.8702,-5.8116,-5.7391,-5.7047,-5.6978,-5.6219,-5.577,-5.5563,-5.5012,-5.4667,-5.4529,-5.4494,-5.4494,-5.4494,-5.4494,-5.4494,-5.4494,-5.4494,-5.4494,-5.4494,-5.4494,-5.4494,-5.4463,-5.4303,-5.4143,-5.398,-5.3584,-5.3213,-5.2868,-5.2269,-5.1692,-5.1135,-5.0563,-4.978,-4.8616,-4.7692,-4.6617,-4.5401,-4.4624,-4.4018,-4.3587,-4.3987,-4.4302,-4.4302,-4.4795,-4.5249,-4.5741,-4.5834,-4.6111,-4.6788,-4.7619,-4.8296,-4.882,-4.9651,-5.0359,-5.0851,-5.1067,-5.1282,-5.1652,-5.1836,-5.2206,-5.2883,-5.356,-5.4114,-5.4571,-5.4957,-5.5224,-5.529,-5.4743,-5.4472,-5.4706,-5.4636,-5.4403,-5.4364,-5.4481,-5.4281,-5.347,-5.2895,-5.2342,-5.1783,-5.1596,-5.1596,-5.1596,-5.1596,-5.1596,-5.1596,-5.1596,-5.1596,-5.1596,-5.1596,-5.1701,-5.1753,-5.1805,-5.1825,-5.1743,-5.1767,-5.1787,-5.169,-5.1967,-5.2226,-5.2327,-5.2553,-5.2785,-5.2785,-5.2879,-5.2904,-6.4507,-6.3597,-6.2413,-6.1129,-6.0142,-5.9753,-5.9588,-5.9521,-5.9149,-5.9012,-5.8806,-5.8116,-5.7805,-5.7702,-5.7047,-5.6322,-5.5701,-5.5563,-5.5184,-5.4598,-5.4494,-5.4529,-5.4529,-5.4494,-5.4494,-5.4494,-5.4494,-5.4494,-5.4494,-5.4494,-5.4494,-5.4463,-5.4303,-5.4143,-5.3948,-5.3484,-5.311,-5.2903,-5.2197,-5.1577,-5.1102,-5.0749,-4.9928,-4.8616,-4.8349,-4.7706,-4.6741,-4.6475,-4.6265,-4.6234,-4.6203,-4.6296,-4.6296,-4.6357,-4.6419,-4.648,-4.6511,-4.6788,-4.7527,-4.8758,-4.9497,-4.9682,-5.0759,-5.1498,-5.1621,-5.2144,-5.2267,-5.199,-5.2267,-5.2883,-5.356,-5.4191,-5.4837,-5.5343,-5.5664,-5.5918,-5.575,-5.4997,-5.4619,-5.5591,-5.5034,-5.4601,-5.4898,-5.4703,-5.4074,-5.2983,-5.2711,-5.2342,-5.1721,-5.1596,-5.1596,-5.1596,-5.1596,-5.1596,-5.1596,-5.1596,-5.1596,-5.1596,-5.1622,-5.1831,-5.2145,-5.238,-5.2488,-5.2556,-5.2693,-5.267,-5.259,-5.2657,-5.2779,-5.2729,-5.276,-5.2861,-5.2861,-5.2861,-5.2861,-6.5334,-6.4519,-6.3551,-6.2258,-6.0812,-5.9927,-5.9621,-5.9588,-5.9149,-5.9012,-5.8978,-5.8702,-5.8564,-5.853,-5.7771,-5.7253,-5.6943,-5.6495,-5.615,-5.5805,-5.5391,-5.5118,-5.5115,-5.4701,-5.4494,-5.4494,-5.4494,-5.4494,-5.4494,-5.4494,-5.4431,-5.4335,-5.4175,-5.4013,-5.3783,-5.3315,-5.2972,-5.2903,-5.2161,-5.1614,-5.1317,-5.0826,-5.0274,-4.9606,-4.8875,-4.8286,-4.7737,-4.7136,-4.6722,-4.6603,-4.6603,-4.6603,-4.6603,-4.6603,-4.6788,-4.7157,-4.7588,-4.8112,-4.8789,-4.9374,-5.0051,-5.082,-5.1374,-5.1867,-5.2267,-5.2544,-5.2575,-5.2452,-5.2914,-5.3437,-5.3775,-5.4668,-5.5438,-5.5698,-5.6041,-5.6176,-5.5979,-5.5478,-5.5381,-5.5947,-5.5519,-5.5197,-5.5387,-5.4849,-5.3894,-5.2834,-5.2588,-5.2342,-5.1721,-5.1596,-5.1596,-5.1596,-5.1596,-5.1596,-5.1596,-5.1596,-5.1596,-5.1648,-5.191,-5.2276,-5.2459,-5.2851,-5.3088,-5.3308,-5.3222,-5.3196,-5.314,-5.2977,-5.2861,-5.2861,-5.2861,-5.2861,-5.2861,-5.2861,-5.2861,-6.5945,-6.5351,-6.4476,-6.3035,-6.1268,-6.0309,-5.9795,-5.952,-5.9149,-5.9012,-5.9012,-5.9012,-5.9012,-5.8944,-5.8426,-5.8116,-5.784,-5.7357,-5.6978,-5.6771,-5.6184,-5.591,-5.5874,-5.5184,-5.4805,-5.477,-5.4598,-5.4494,-5.4494,-5.4494,-5.4399,-5.4207,-5.4078,-5.3915,-5.3684,-5.3179,-5.2903,-5.2834,-5.2161,-5.1721,-5.1536,-5.0934,-5.0512,-5.0253,-4.9379,-4.878,-4.8542,-4.7876,-4.7358,-4.7157,-4.7157,-4.7157,-4.7157,-4.7157,-4.7373,-4.7865,-4.8543,-4.9127,-4.9693,-5.002,-5.0636,-5.159,-5.1836,-5.2175,-5.2606,-5.2729,-5.2821,-5.3037,-5.3591,-5.3991,-5.4114,-5.5037,-5.5715,-5.5961,-5.6291,-5.6274,-5.6058,-5.59,-5.5909,-5.6196,-5.5858,-5.5567,-5.5472,-5.473,-5.3773,-5.2834,-5.2588,-5.2342,-5.1783,-5.1596,-5.1596,-5.1596,-5.1596,-5.1596,-5.1596,-5.1596,-5.1622,-5.1884,-5.225,-5.2563,-5.2825,-5.34,-5.3818,-5.3959,-5.3597,-5.3391,-5.3428,-5.3291,-5.2861,-5.2861,-5.2861,-5.2861,-5.2861,-5.2861,-5.2861,-6.6269,-6.6033,-6.4689,-6.307,-6.1268,-6.0833,-6.0247,-5.9657,-5.9183,-5.9012,-5.9012,-5.9012,-5.9012,-5.9012,-5.8909,-5.8564,-5.7978,-5.7874,-5.7529,-5.6978,-5.6805,-5.6736,-5.6702,-5.5943,-5.5531,-5.5529,-5.5012,-5.4632,-5.4563,-5.4529,-5.4399,-5.4207,-5.4078,-5.3882,-5.3651,-5.3179,-5.2903,-5.2834,-5.2161,-5.1794,-5.1684,-5.101,-5.0512,-5.0285,-4.9789,-4.9439,-4.9237,-4.9025,-4.8718,-4.8512,-4.8419,-4.845,-4.8481,-4.845,-4.8481,-4.8635,-4.922,-4.9651,-4.9897,-5.0851,-5.1621,-5.1805,-5.2267,-5.2667,-5.2698,-5.279,-5.3037,-5.3622,-5.4237,-5.4668,-5.4683,-5.5376,-5.6023,-5.6546,-5.6506,-5.6323,-5.6058,-5.6143,-5.6147,-5.6279,-5.6084,-5.5567,-5.488,-5.4314,-5.3685,-5.2895,-5.2615,-5.2342,-5.1783,-5.1596,-5.1596,-5.1596,-5.1596,-5.1596,-5.1622,-5.1753,-5.1962,-5.2223,-5.2563,-5.2903,-5.3609,-5.4236,-5.455,-5.4586,-5.4103,-5.3843,-5.381,-5.3521,-5.3067,-5.2861,-5.2861,-5.2861,-5.2861,-5.2861,-5.2861,-6.6021,-6.5604,-6.4531,-6.3564,-6.2636,-6.1321,-6.056,-6.0214,-5.9356,-5.9012,-5.9012,-5.9012,-5.9012,-5.9012,-5.9012,-5.8875,-5.8633,-5.8599,-5.8461,-5.8185,-5.7736,-5.7495,-5.7426,-5.6736,-5.6391,-5.6322,-5.6115,-5.5701,-5.5184,-5.4736,-5.4335,-5.411,-5.4013,-5.3849,-5.3551,-5.311,-5.2903,-5.2834,-5.2161,-5.1762,-5.1725,-5.101,-5.055,-5.0473,-5.005,-4.9653,-4.93,-4.921,-4.9006,-4.8604,-4.8604,-4.8604,-4.8604,-4.8604,-4.885,-4.9251,-4.9528,-5.0051,-5.0882,-5.1405,-5.1898,-5.2329,-5.2575,-5.2729,-5.279,-5.3098,-5.3422,-5.3837,-5.476,-5.5284,-5.5468,-5.5961,-5.6532,-5.67,-5.6713,-5.6623,-5.6636,-5.6807,-5.6982,-5.6809,-5.6466,-5.5792,-5.4884,-5.446,-5.3954,-5.2861,-5.2615,-5.228,-5.1783,-5.1596,-5.1596,-5.1596,-5.1622,-5.1727,-5.2145,-5.2171,-5.2302,-5.2642,-5.2981,-5.3504,-5.4158,-5.4576,-5.4916,-5.4809,-5.4469,-5.3997,-5.3793,-5.341,-5.2998,-5.2861,-5.2861,-5.2861,-5.2861,-5.2861,-5.2861,-6.5895,-6.5278,-6.4716,-6.4129,-6.3443,-6.2054,-6.1152,-6.0666,-5.9805,-5.9254,-5.9047,-5.9012,-5.9012,-5.9012,-5.9012,-5.9012,-5.9012,-5.9012,-5.9012,-5.8978,-5.8495,-5.8254,-5.815,-5.7495,-5.715,-5.7116,-5.6874,-5.6529,-5.5979,-5.543,-5.489,-5.4389,-5.4289,-5.3988,-5.3551,-5.3109,-5.2903,-5.2764,-5.2161,-5.1762,-5.1721,-5.101,-5.0589,-5.055,-5.0129,-4.9733,-4.93,-4.9259,-4.9056,-4.8646,-4.8604,-4.8727,-4.8912,-4.8943,-4.9281,-4.9928,-5.0236,-5.0697,-5.1559,-5.1898,-5.2236,-5.2637,-5.2729,-5.2729,-5.276,-5.3345,-5.373,-5.4206,-5.5007,-5.5745,-5.6053,-5.6532,-5.681,-5.681,-5.681,-5.6843,-5.6909,-5.7323,-5.7483,-5.7181,-5.6703,-5.5847,-5.4877,-5.4667,-5.3981,-5.2799,-5.2615,-5.2342,-5.1783,-5.1596,-5.1596,-5.1622,-5.1805,-5.204,-5.2485,-5.2746,-5.306,-5.3373,-5.3478,-5.4027,-5.4471,-5.4889,-5.5006,-5.4965,-5.463,-5.4064,-5.3589,-5.3204,-5.2998,-5.2929,-5.2861,-5.2861,-5.2861,-5.2861,-5.2861,-6.5895,-6.5349,-6.5316,-6.4623,-6.3654,-6.3066,-6.2057,-6.0944,-6.0359,-5.9737,-5.9219,-5.9047,-5.9012,-5.9012,-5.9012,-5.9012,-5.9012,-5.9012,-5.9012,-5.8978,-5.8944,-5.8909,-5.8875,-5.8219,-5.7909,-5.7874,-5.7185,-5.684,-5.6805,-5.6433,-5.5889,-5.521,-5.4906,-5.4432,-5.3551,-5.3245,-5.2937,-5.2764,-5.2161,-5.1798,-5.1688,-5.1048,-5.0589,-5.055,-5.0129,-4.9733,-4.93,-4.9259,-4.9056,-4.8646,-4.8604,-4.8943,-4.9497,-4.9651,-4.9989,-5.0636,-5.1282,-5.1621,-5.1805,-5.2298,-5.2606,-5.2729,-5.2729,-5.2729,-5.2944,-5.3391,-5.4037,-5.4699,-5.5376,-5.5992,-5.6546,-5.6779,-5.681,-5.681,-5.681,-5.6843,-5.707,-5.7486,-5.7708,-5.7316,-5.6794,-5.5903,-5.4995,-5.4607,-5.4041,-5.3044,-5.2588,-5.2404,-5.1846,-5.1659,-5.1596,-5.1701,-5.1988,-5.238,-5.2877,-5.3373,-5.3818,-5.4184,-5.4184,-5.4445,-5.4733,-5.5072,-5.5072,-5.4965,-5.4469,-5.3929,-5.3316,-5.2998,-5.2998,-5.2861,-5.2861,-5.2861,-5.2861,-5.2861,-5.2861,-6.5895,-6.5316,-6.5316,-6.4941,-6.425,-6.338,-6.2684,-6.2127,-6.0843,-6.0047,-5.9771,-5.9254,-5.9012,-5.9012,-5.9012,-5.9012,-5.9012,-5.9012,-5.9012,-5.9012,-5.9012,-5.9012,-5.8944,-5.8771,-5.8668,-5.853,-5.7909,-5.7564,-5.7427,-5.6847,-5.6233,-5.5894,-5.569,-5.5144,-5.4296,-5.385,-5.3439,-5.2832,-5.2161,-5.1798,-5.1725,-5.101,-5.0589,-5.055,-5.0129,-4.9701,-4.9331,-4.9259,-4.9056,-4.8604,-4.8604,-4.8943,-4.962,-5.0143,-5.0697,-5.1313,-5.1559,-5.1959,-5.2359,-5.2575,-5.2729,-5.2729,-5.2729,-5.2944,-5.3406,-5.3976,-5.4668,-5.5345,-5.6023,-5.6594,-5.6748,-5.681,-5.681,-5.681,-5.681,-5.7058,-5.7527,-5.7911,-5.7828,-5.7326,-5.6794,-5.5903,-5.4936,-5.4607,-5.4161,-5.3166,-5.2738,-5.2404,-5.2032,-5.1721,-5.1596,-5.1648,-5.2145,-5.272,-5.3243,-5.3766,-5.4236,-5.455,-5.4628,-5.4654,-5.4942,-5.5099,-5.5099,-5.4872,-5.4335,-5.3861,-5.3204,-5.2861,-5.2861,-5.2861,-5.2861,-5.2861,-5.2861,-5.2861,-5.2861,-6.5895,-6.5316,-6.5316,-6.5046,-6.4636,-6.3764,-6.3275,-6.2788,-6.1327,-6.0461,-6.0082,-5.9357,-5.9012,-5.9012,-5.9012,-5.9012,-5.9012,-5.9012,-5.9012,-5.9012,-5.9012,-5.9012,-5.9012,-5.9012,-5.9012,-5.8944,-5.853,-5.8323,-5.8254,-5.7638,-5.7056,-5.6679,-5.6403,-5.5855,-5.5039,-5.4623,-5.4142,-5.3668,-5.2987,-5.245,-5.2072,-5.1403,-5.0845,-5.0614,-5.0129,-4.9859,-4.9643,-4.9665,-4.9336,-4.881,-4.885,-4.9466,-5.0328,-5.0882,-5.1374,-5.1898,-5.2113,-5.2298,-5.2667,-5.2698,-5.2729,-5.2729,-5.2944,-5.3252,-5.3806,-5.4483,-5.5284,-5.5684,-5.6378,-5.681,-5.681,-5.681,-5.681,-5.681,-5.7056,-5.7469,-5.8113,-5.8196,-5.7941,-5.736,-5.6794,-5.5845,-5.4995,-5.4607,-5.4161,-5.3288,-5.2799,-5.2465,-5.2156,-5.1783,-5.1737,-5.1936,-5.2537,-5.3112,-5.3635,-5.4158,-5.4654,-5.4863,-5.4994,-5.4968,-5.5072,-5.5099,-5.5099,-5.4738,-5.4309,-5.3929,-5.3341,-5.2998,-5.2861,-5.2861,-5.2861,-5.2861,-5.2861,-5.2861,-5.2861,-6.5895,-6.5349,-6.5282,-6.5013,-6.4637,-6.4252,-6.3728,-6.2996,-6.1881,-6.0978,-6.0254,-5.953,-5.9081,-5.9012,-5.9012,-5.9012,-5.9012,-5.9012,-5.9012,-5.9012,-5.9012,-5.9012,-5.9012,-5.9012,-5.9012,-5.8978,-5.8944,-5.8909,-5.8806,-5.8495,-5.8148,-5.743,-5.7046,-5.6494,-5.5849,-5.5326,-5.508,-5.477,-5.4175,-5.3432,-5.2903,-5.2146,-5.1421,-5.0845,-5.0414,-5.0268,-5.034,-5.0268,-4.9823,-4.8984,-4.9528,-5.042,-5.1405,-5.1713,-5.2052,-5.2606,-5.2698,-5.2667,-5.2698,-5.2729,-5.279,-5.2914,-5.3345,-5.3806,-5.4114,-5.4976,-5.5653,-5.5869,-5.644,-5.681,-5.681,-5.681,-5.6871,-5.7025,-5.7451,-5.8043,-5.8689,-5.8435,-5.797,-5.736,-5.6737,-5.5961,-5.4817,-5.4607,-5.4101,-5.3349,-5.2799,-5.2465,-5.2121,-5.1924,-5.1973,-5.2328,-5.2825,-5.3373,-5.387,-5.4445,-5.4889,-5.4942,-5.5099,-5.5099,-5.5099,-5.5099,-5.4965,-5.4604,-5.4241,-5.3929,-5.3546,-5.3136,-5.2929,-5.2861,-5.2861,-5.2861,-5.2861,-5.2861,-5.2861,-6.5768,-6.5316,-6.5149,-6.4843,-6.4498,-6.4287,-6.4039,-6.3547,-6.2604,-6.1668,-6.0944,-6.022,-5.953,-5.9047,-5.9012,-5.9012,-5.9012,-5.9012,-5.9012,-5.9012,-5.9012,-5.9012,-5.9012,-5.9012,-5.9012,-5.9012,-5.8978,-5.8978,-5.884,-5.8631,-5.8283,-5.797,-5.7688,-5.7239,-5.6558,-5.6099,-5.5615,-5.5071,-5.434,-5.3858,-5.358,-5.2817,-5.2317,-5.2149,-5.162,-5.1307,-5.1038,-5.0731,-5.053,-5.0278,-5.079,-5.1282,-5.1744,-5.2144,-5.2483,-5.2667,-5.2729,-5.2729,-5.2729,-5.2729,-5.2944,-5.3406,-5.3652,-5.4145,-5.513,-5.5468,-5.5961,-5.6378,-5.6748,-5.681,-5.681,-5.684,-5.721,-5.8035,-5.8062,-5.8196,-5.8654,-5.8489,-5.7974,-5.736,-5.6737,-5.5903,-5.4995,-5.4548,-5.4249,-5.3376,-5.2799,-5.2465,-5.2121,-5.1941,-5.1962,-5.2459,-5.2955,-5.353,-5.4105,-5.468,-5.5046,-5.5046,-5.5099,-5.5099,-5.5099,-5.5099,-5.4872,-5.4578,-5.4241,-5.3861,-5.3546,-5.3204,-5.3067,-5.2861,-5.2861,-5.2861,-5.2861,-5.2861,-5.2861,-6.5672,-6.5282,-6.5082,-6.4775,-6.4393,-6.4217,-6.4108,-6.3718,-6.2915,-6.2048,-6.1254,-6.0496,-5.9737,-5.9047,-5.9012,-5.9012,-5.9012,-5.9012,-5.9012,-5.9012,-5.9012,-5.9012,-5.9012,-5.9012,-5.9012,-5.9012,-5.9012,-5.8909,-5.8771,-5.8596,-5.8384,-5.8207,-5.7991,-5.7679,-5.727,-5.6875,-5.6452,-5.597,-5.5236,-5.471,-5.4344,-5.3559,-5.2973,-5.2684,-5.2254,-5.1873,-5.1724,-5.1636,-5.1436,-5.1282,-5.1498,-5.1836,-5.2144,-5.2483,-5.2729,-5.2729,-5.2729,-5.2729,-5.2729,-5.2729,-5.3037,-5.3622,-5.3929,-5.4637,-5.5468,-5.593,-5.644,-5.6717,-5.681,-5.681,-5.6871,-5.7056,-5.7636,-5.8316,-5.8451,-5.8516,-5.9078,-5.8589,-5.7889,-5.7247,-5.6623,-5.5961,-5.4758,-5.4607,-5.4101,-5.3376,-5.2799,-5.2492,-5.2121,-5.2056,-5.2145,-5.272,-5.3295,-5.3896,-5.4367,-5.4889,-5.5072,-5.5099,-5.5099,-5.5099,-5.5099,-5.5099,-5.4939,-5.4671,-5.4267,-5.3929,-5.3657,-5.3341,-5.2998,-5.2861,-5.2861,-5.2861,-5.2861,-5.2861,-5.2861,-6.5578,-6.5282,-6.5082,-6.474,-6.4393,-6.4251,-6.4072,-6.3752,-6.3017,-6.222,-6.1461,-6.0668,-5.9978,-5.915,-5.9116,-5.9012,-5.9012,-5.9012,-5.9012,-5.9012,-5.9012,-5.9012,-5.9012,-5.9012,-5.9012,-5.9012,-5.9012,-5.8909,-5.8736,-5.8561,-5.8384,-5.8135,-5.7954,-5.7918,-5.7673,-5.7446,-5.7327,-5.7043,-5.6255,-5.5634,-5.5044,-5.4309,-5.367,-5.3195,-5.2574,-5.2418,-5.2461,-5.2502,-5.2359,-5.1836,-5.1805,-5.2144,-5.2637,-5.2698,-5.2729,-5.2729,-5.2729,-5.2729,-5.276,-5.2821,-5.316,-5.3791,-5.4483,-5.5099,-5.5807,-5.6409,-5.6717,-5.681,-5.681,-5.6871,-5.7118,-5.7518,-5.8078,-5.8613,-5.8836,-5.916,-5.9188,-5.8719,-5.7863,-5.7021,-5.6566,-5.5787,-5.5054,-5.446,-5.4161,-5.3105,-5.2677,-5.243,-5.2253,-5.2203,-5.2511,-5.3138,-5.3739,-5.4341,-5.4707,-5.5072,-5.5099,-5.5099,-5.5099,-5.5099,-5.5099,-5.5099,-5.5099,-5.4872,-5.4402,-5.4064,-5.3929,-5.3521,-5.3067,-5.2861,-5.2861,-5.2861,-5.2861,-5.2861,-5.2861,-6.548,-6.5282,-6.4911,-6.4568,-6.4251,-6.4216,-6.4001,-6.3673,-6.3464,-6.2875,-6.2151,-6.1392,-6.0634,-5.9875,-5.9323,-5.9012,-5.9012,-5.9012,-5.9012,-5.9012,-5.9012,-5.9012,-5.9012,-5.9012,-5.9012,-5.9012,-5.9012,-5.884,-5.8631,-5.8525,-5.8312,-5.7991,-5.7954,-5.7881,-5.7845,-5.7514,-5.7327,-5.7176,-5.6486,-5.606,-5.5698,-5.4987,-5.4355,-5.4112,-5.3449,-5.3146,-5.3084,-5.2829,-5.2637,-5.2544,-5.2483,-5.2544,-5.2667,-5.2729,-5.2729,-5.2729,-5.2729,-5.2729,-5.2821,-5.3176,-5.3806,-5.4453,-5.5068,-5.5807,-5.6502,-5.6686,-5.681,-5.681,-5.681,-5.7025,-5.7518,-5.8146,-5.8612,-5.9001,-5.9444,-5.9455,-5.8961,-5.85,-5.7836,-5.705,-5.6423,-5.5671,-5.4758,-5.4401,-5.3833,-5.2983,-5.2527,-5.2342,-5.2296,-5.2234,-5.281,-5.3373,-5.4027,-5.4576,-5.4837,-5.5099,-5.5099,-5.5099,-5.5099,-5.5099,-5.5099,-5.5099,-5.5099,-5.4831,-5.4469,-5.42,-5.3929,-5.3478,-5.2861,-5.2861,-5.2861,-5.2861,-5.2861,-5.2861,-5.2861,-6.5382,-6.5249,-6.4878,-6.4498,-6.4216,-6.418,-6.3965,-6.3637,-6.36,-6.3186,-6.253,-6.2013,-6.1254,-6.022,-5.9737,-5.9426,-5.9047,-5.9012,-5.9012,-5.9012,-5.9012,-5.9012,-5.9012,-5.9012,-5.9012,-5.9012,-5.9012,-5.8806,-5.8596,-5.8455,-5.8312,-5.7918,-5.7881,-5.7881,-5.7845,-5.7514,-5.7327,-5.7139,-5.6525,-5.6086,-5.5966,-5.5237,-5.4613,-5.4401,-5.377,-5.3421,-5.3377,-5.2966,-5.2743,-5.2729,-5.2729,-5.2729,-5.2729,-5.2729,-5.2729,-5.2729,-5.2729,-5.2914,-5.3191,-5.3484,-5.4114,-5.5099,-5.553,-5.6101,-5.6594,-5.681,-5.681,-5.681,-5.6871,-5.7087,-5.7765,-5.8393,-5.8919,-5.9152,-5.9696,-5.9529,-5.8719,-5.8335,-5.7807,-5.6908,-5.625,-5.5554,-5.4877,-5.4341,-5.3652,-5.2861,-5.265,-5.243,-5.225,-5.2302,-5.2877,-5.353,-5.4236,-5.4733,-5.4968,-5.5099,-5.5099,-5.5099,-5.5099,-5.5099,-5.5099,-5.5032,-5.5032,-5.4671,-5.4335,-5.3997,-5.3657,-5.3204,-5.2929,-5.2861,-5.2861,-5.2861,-5.2861,-5.2861,-5.2861,-6.5316,-6.5282,-6.4843,-6.4533,-6.4216,-6.4215,-6.3965,-6.3637,-6.36,-6.3289,-6.2703,-6.2565,-6.1634,-6.0599,-6.0185,-5.9737,-5.9185,-5.9012,-5.9012,-5.9012,-5.9012,-5.9012,-5.9012,-5.9012,-5.9012,-5.9012,-5.8944,-5.8771,-5.8561,-5.8455,-5.8241,-5.7954,-5.7881,-5.7881,-5.7808,-5.7514,-5.7327,-5.7214,-5.6519,-5.6086,-5.5966,-5.5237,-5.4645,-5.4146,-5.3683,-5.3421,-5.329,-5.2966,-5.2729,-5.2729,-5.2729,-5.2729,-5.2729,-5.2729,-5.2729,-5.2729,-5.2852,-5.316,-5.3591,-5.3991,-5.4607,-5.5653,-5.5838,-5.6146,-5.6656,-5.681,-5.681,-5.681,-5.6871,-5.7148,-5.7888,-5.8423,-5.8909,-5.9201,-5.9713,-5.9392,-5.8555,-5.814,-5.7584,-5.6623,-5.5961,-5.5261,-5.4758,-5.4221,-5.347,-5.2861,-5.2677,-5.2483,-5.2276,-5.2433,-5.3034,-5.3635,-5.4314,-5.4785,-5.502,-5.5099,-5.5099,-5.5099,-5.5099,-5.5099,-5.5099,-5.5099,-5.4965,-5.4578,-5.4241,-5.3929,-5.3589,-5.3204,-5.2998,-5.2929,-5.2861,-5.2861,-5.2861,-5.2861,-5.2861,-6.5316,-6.5282,-6.4843,-6.4533,-6.4216,-6.418,-6.3965,-6.3637,-6.36,-6.3531,-6.3324,-6.2772,-6.2048,-6.1151,-6.0427,-5.9771,-5.9185,-5.9012,-5.9012,-5.9012,-5.9012,-5.9012,-5.9012,-5.9012,-5.9012,-5.8944,-5.8909,-5.8701,-5.8525,-5.8348,-5.8169,-5.7954,-5.7881,-5.7881,-5.7808,-5.7514,-5.7327,-5.7176,-5.6558,-5.6126,-5.5927,-5.5278,-5.4603,-5.4103,-5.364,-5.3421,-5.329,-5.2966,-5.2729,-5.2729,-5.2729,-5.2729,-5.279,-5.279,-5.279,-5.2914,-5.3314,-5.3683,-5.3991,-5.476,-5.5315,-5.5776,-5.6176,-5.6563,-5.6779,-5.681,-5.681,-5.684,-5.6933,-5.7303,-5.8535,-5.8762,-5.9154,-5.9566,-5.9705,-5.9452,-5.847,-5.7918,-5.7445,-5.648,-5.5729,-5.5085,-5.4639,-5.4101,-5.3349,-5.2861,-5.2615,-5.2218,-5.1915,-5.2406,-5.3191,-5.3766,-5.4367,-5.4759,-5.5099,-5.5099,-5.5099,-5.5099,-5.5099,-5.5099,-5.5099,-5.5099,-5.4872,-5.4443,-5.4174,-5.3861,-5.3521,-5.3136,-5.2998,-5.2929,-5.2861,-5.2861,-5.2861,-5.2861,-5.2861,-6.5249,-6.5115,-6.4706,-6.4393,-6.418,-6.4073,-6.3856,-6.3637,-6.36,-6.36,-6.3496,-6.3186,-6.2634,-6.1875,-6.1116,-6.0151,-5.9288,-5.9012,-5.9012,-5.9012,-5.9012,-5.9012,-5.9047,-5.9047,-5.9012,-5.8909,-5.8771,-5.863,-5.849,-5.8278,-5.8063,-5.7954,-5.7881,-5.7881,-5.7808,-5.7514,-5.7327,-5.7139,-5.6525,-5.6086,-5.6006,-5.5237,-5.4603,-5.4103,-5.364,-5.3421,-5.3321,-5.2966,-5.2729,-5.2729,-5.2729,-5.2914,-5.3129,-5.3252,-5.3252,-5.3375,-5.3868,-5.4422,-5.4668,-5.5438,-5.5776,-5.6238,-5.6625,-5.6779,-5.681,-5.681,-5.681,-5.6902,-5.7272,-5.7734,-5.8639,-5.8938,-5.9368,-5.9765,-5.972,-5.9153,-5.836,-5.7696,-5.705,-5.6308,-5.5554,-5.4967,-5.458,-5.3981,-5.3227,-5.2799,-5.2492,-5.2094,-5.1659,-5.2276,-5.3112,-5.3792,-5.4341,-5.4759,-5.5046,-5.5099,-5.5099,-5.5099,-5.5099,-5.5099,-5.5099,-5.5099,-5.4738,-5.4267,-5.3997,-5.3861,-5.3384,-5.2929,-5.2929,-5.2861,-5.2861,-5.2861,-5.2861,-5.2861,-5.2861,-6.5182,-6.4945,-6.4567,-6.4323,-6.418,-6.3999,-6.3818,-6.3637,-6.36,-6.36,-6.36,-6.3531,-6.3151,-6.2427,-6.1599,-6.0599,-5.9461,-5.9426,-5.9323,-5.9254,-5.9081,-5.9047,-5.9254,-5.9254,-5.9392,-5.9597,-5.9283,-5.8763,-5.8455,-5.8207,-5.8061,-5.7918,-5.7881,-5.7881,-5.7808,-5.7514,-5.7364,-5.7063,-5.6525,-5.6086,-5.5685,-5.5187,-5.4603,-5.4103,-5.364,-5.3421,-5.3334,-5.2966,-5.2852,-5.2914,-5.3037,-5.3221,-5.3806,-5.4052,-5.4114,-5.4206,-5.4637,-5.5161,-5.5499,-5.5869,-5.6207,-5.6656,-5.6779,-5.681,-5.681,-5.684,-5.6871,-5.7056,-5.7426,-5.8165,-5.8947,-5.9267,-5.954,-5.9773,-5.9452,-5.8882,-5.8195,-5.7557,-5.6823,-5.6077,-5.5379,-5.479,-5.4401,-5.38,-5.3105,-5.2738,-5.243,-5.2032,-5.1737,-5.2145,-5.2877,-5.3635,-5.4236,-5.4733,-5.4994,-5.5099,-5.5099,-5.5099,-5.5099,-5.5099,-5.5099,-5.5099,-5.4671,-5.4267,-5.4064,-5.3861,-5.3316,-5.2861,-5.2861,-5.2861,-5.2861,-5.2861,-5.2861,-5.2861,-5.2861,-6.5182,-6.498,-6.4533,-6.4323,-6.418,-6.3965,-6.3783,-6.36,-6.36,-6.36,-6.36,-6.3565,-6.3186,-6.2427,-6.1703,-6.122,-6.0806,-6.0323,-6.0047,-5.9978,-5.953,-5.9564,-5.9978,-6.0047,-6.0252,-6.0386,-6.0376,-5.9652,-5.8895,-5.8337,-5.809,-5.8051,-5.8152,-5.7915,-5.8014,-5.7682,-5.7327,-5.7176,-5.6486,-5.5726,-5.5146,-5.4896,-5.4528,-5.4103,-5.3746,-5.3515,-5.3489,-5.3183,-5.3129,-5.356,-5.3591,-5.3929,-5.4545,-5.5191,-5.5407,-5.5468,-5.553,-5.5622,-5.5838,-5.6207,-5.6563,-5.6779,-5.681,-5.681,-5.681,-5.684,-5.7025,-5.7672,-5.7826,-5.8412,-5.9285,-5.9461,-5.9662,-5.9607,-5.9399,-5.8828,-5.8169,-5.7303,-5.6537,-5.5874,-5.5172,-5.4612,-5.4161,-5.3531,-5.2983,-5.2677,-5.2306,-5.197,-5.1878,-5.226,-5.2589,-5.3295,-5.4027,-5.455,-5.4863,-5.4968,-5.5099,-5.5099,-5.5099,-5.5099,-5.5099,-5.5032,-5.4671,-5.4335,-5.4132,-5.3725,-5.3204,-5.2861,-5.2861,-5.2861,-5.2861,-5.2861,-5.2861,-5.2861,-5.2861,-6.5115,-6.481,-6.4463,-6.4251,-6.4144,-6.3856,-6.3673,-6.36,-6.36,-6.36,-6.36,-6.36,-6.3186,-6.253,-6.2082,-6.1703,-6.1323,-6.0978,-6.084,-6.0806,-6.0461,-6.0461,-6.0737,-6.0806,-6.0975,-6.0966,-6.0784,-6.0327,-5.9604,-5.9318,-5.9133,-5.9066,-5.9099,-5.893,-5.8521,-5.8115,-5.7696,-5.7196,-5.6486,-5.5685,-5.5063,-5.4771,-5.4603,-5.4134,-5.4047,-5.3983,-5.3944,-5.3987,-5.3929,-5.4222,-5.4252,-5.456,-5.513,-5.5561,-5.5807,-5.6347,-5.6347,-5.6347,-5.6409,-5.6656,-5.6779,-5.681,-5.681,-5.681,-5.681,-5.6871,-5.7118,-5.7734,-5.8165,-5.8824,-5.9553,-5.9735,-5.9862,-5.9766,-5.9183,-5.8555,-5.7948,-5.7078,-5.6308,-5.5613,-5.4936,-5.4401,-5.3894,-5.3288,-5.2861,-5.2615,-5.2218,-5.1783,-5.1868,-5.2145,-5.2537,-5.2903,-5.3635,-5.4314,-5.4602,-5.4785,-5.5046,-5.5099,-5.5099,-5.5099,-5.5099,-5.4939,-5.4604,-5.4335,-5.4064,-5.3589,-5.3067,-5.2861,-5.2861,-5.2861,-5.2861,-5.2861,-5.2861,-5.2955,-5.313,-6.5082,-6.4672,-6.4322,-6.4215,-6.4144,-6.3783,-6.36,-6.36,-6.36,-6.36,-6.36,-6.36,-6.3289,-6.2875,-6.2737,-6.2496,-6.1944,-6.1703,-6.1599,-6.1565,-6.1427,-6.1358,-6.153,-6.1599,-6.1593,-6.1476,-6.1571,-6.1245,-6.0985,-6.0698,-6.0486,-6.0148,-5.9877,-5.9708,-5.9325,-5.8854,-5.8385,-5.7631,-5.7054,-5.6295,-5.5589,-5.5421,-5.5134,-5.483,-5.4687,-5.4688,-5.4691,-5.456,-5.4668,-5.4945,-5.4976,-5.5284,-5.5838,-5.6053,-5.6238,-5.6625,-5.6717,-5.6717,-5.6717,-5.6779,-5.681,-5.681,-5.681,-5.681,-5.684,-5.6902,-5.7333,-5.8054,-5.867,-5.9316,-5.9778,-5.9975,-5.9811,-5.9476,-5.8828,-5.828,-5.7613,-5.6823,-5.6077,-5.5379,-5.4758,-5.4161,-5.3592,-5.2983,-5.265,-5.2527,-5.2156,-5.1659,-5.1805,-5.2067,-5.2328,-5.2642,-5.3321,-5.4001,-5.4367,-5.4628,-5.4889,-5.5099,-5.5099,-5.5099,-5.5099,-5.4872,-5.4604,-5.4267,-5.3997,-5.3521,-5.2998,-5.2929,-5.2861,-5.2861,-5.2861,-5.2861,-5.2861,-5.3005,-5.3356,-6.5082,-6.4672,-6.4322,-6.4215,-6.4144,-6.3783,-6.36,-6.36,-6.36,-6.36,-6.36,-6.36,-6.3565,-6.3462,-6.3393,-6.3358,-6.3324,-6.2703,-6.2461,-6.2151,-6.1772,-6.1944,-6.222,-6.2389,-6.2486,-6.2669,-6.245,-6.2327,-6.2227,-6.1878,-6.1197,-6.0317,-6.052,-6.0216,-5.9861,-5.9453,-5.88,-5.817,-5.7765,-5.7335,-5.6766,-5.6497,-5.6324,-5.5904,-5.5628,-5.5436,-5.5436,-5.5117,-5.5161,-5.5622,-5.5653,-5.5838,-5.6409,-5.6532,-5.6686,-5.6748,-5.681,-5.681,-5.681,-5.681,-5.681,-5.681,-5.681,-5.6871,-5.6994,-5.7457,-5.8011,-5.8608,-5.9224,-5.9768,-6.0083,-6.0114,-5.9827,-5.9237,-5.8664,-5.7974,-5.7303,-5.6537,-5.5787,-5.5085,-5.4493,-5.3954,-5.341,-5.2922,-5.2553,-5.243,-5.2032,-5.1596,-5.1596,-5.1831,-5.204,-5.2406,-5.3034,-5.3635,-5.4158,-5.4524,-5.4968,-5.5099,-5.5099,-5.5099,-5.5099,-5.4805,-5.4511,-5.4132,-5.3861,-5.341,-5.3067,-5.2929,-5.2861,-5.2861,-5.2861,-5.2861,-5.3155,-5.3356,-5.3758,-6.5082,-6.4672,-6.4322,-6.4215,-6.4144,-6.3783,-6.36,-6.36,-6.36,-6.36,-6.36,-6.36,-6.36,-6.36,-6.36,-6.36,-6.3565,-6.3358,-6.3186,-6.3117,-6.2944,-6.2944,-6.3115,-6.3004,-6.299,-6.3004,-6.2885,-6.2693,-6.2386,-6.2415,-6.2178,-6.1603,-6.1366,-6.1013,-6.0656,-5.9834,-5.9039,-5.8486,-5.8165,-5.7758,-5.7077,-5.6893,-5.6674,-5.6233,-5.6273,-5.6138,-5.6093,-5.6044,-5.618,-5.6317,-5.633,-5.6563,-5.6748,-5.681,-5.681,-5.681,-5.681,-5.681,-5.681,-5.681,-5.681,-5.681,-5.684,-5.6964,-5.7303,-5.7734,-5.8442,-5.907,-5.9624,-6.0024,-6.0276,-6.0144,-5.9773,-5.9099,-5.8445,-5.7696,-5.6964,-5.6193,-5.5496,-5.4877,-5.4373,-5.3894,-5.3349,-5.2799,-5.2553,-5.2306,-5.1934,-5.1596,-5.1596,-5.1596,-5.1831,-5.2223,-5.2851,-5.3295,-5.3818,-5.4419,-5.5046,-5.5099,-5.5099,-5.5099,-5.5032,-5.4738,-5.4443,-5.4064,-5.3657,-5.3341,-5.3067,-5.2929,-5.2861,-5.2861,-5.2861,-5.2861,-5.3231,-5.3632,-5.4084,-6.508,-6.4776,-6.4358,-6.4215,-6.4144,-6.3783,-6.36,-6.36,-6.36,-6.36,-6.36,-6.36,-6.36,-6.36,-6.36,-6.36,-6.36,-6.3565,-6.3565,-6.3531,-6.3496,-6.36,-6.3526,-6.338,-6.3158,-6.3,-6.277,-6.2576,-6.2381,-6.2415,-6.2313,-6.2279,-6.2381,-6.1824,-6.1251,-6.0351,-5.9529,-5.9037,-5.8796,-5.8375,-5.7708,-5.7565,-5.7376,-5.6992,-5.69,-5.6825,-5.6731,-5.6696,-5.6625,-5.6717,-5.6748,-5.6779,-5.681,-5.681,-5.681,-5.681,-5.681,-5.681,-5.681,-5.681,-5.681,-5.681,-5.7118,-5.7364,-5.7703,-5.8134,-5.9039,-5.9532,-5.9881,-6.0095,-6.0272,-5.988,-5.9399,-5.8719,-5.8059,-5.736,-5.668,-5.5961,-5.5348,-5.4699,-5.4221,-5.3652,-5.3017,-5.2465,-5.2245,-5.1996,-5.1872,-5.1596,-5.1596,-5.1596,-5.1648,-5.2093,-5.2694,-5.3086,-5.3452,-5.4314,-5.5072,-5.5099,-5.5099,-5.5099,-5.5006,-5.4671,-5.4376,-5.4064,-5.3657,-5.3273,-5.3067,-5.2929,-5.2861,-5.2861,-5.2861,-5.2861,-5.3231,-5.3607,-5.4185,-6.5182,-6.4946,-6.4428,-6.4215,-6.4144,-6.3783,-6.36,-6.36,-6.36,-6.36,-6.36,-6.36,-6.36,-6.36,-6.36,-6.36,-6.36,-6.36,-6.36,-6.36,-6.36,-6.36,-6.3489,-6.334,-6.3114,-6.3,-6.277,-6.2537,-6.2415,-6.2415,-6.2415,-6.2341,-6.2302,-6.2156,-6.189,-6.1521,-6.0986,-6.044,-6.0181,-5.9512,-5.8908,-5.862,-5.8305,-5.7849,-5.7496,-5.7277,-5.715,-5.6927,-5.681,-5.681,-5.681,-5.681,-5.681,-5.681,-5.681,-5.681,-5.681,-5.684,-5.6871,-5.684,-5.6902,-5.7056,-5.7457,-5.7869,-5.8165,-5.8824,-5.9624,-5.9993,-6.0126,-6.0172,-5.9986,-5.9506,-5.8991,-5.836,-5.7751,-5.7107,-5.6365,-5.5613,-5.4995,-5.446,-5.3921,-5.3349,-5.2711,-5.2156,-5.1846,-5.1659,-5.1596,-5.1596,-5.1596,-5.1622,-5.1648,-5.2145,-5.2746,-5.3243,-5.3739,-5.4497,-5.5046,-5.5072,-5.5099,-5.5099,-5.4872,-5.4537,-5.42,-5.3997,-5.3521,-5.3067,-5.2929,-5.2861,-5.2861,-5.2861,-5.2861,-5.2936,-5.3256,-5.3683,-5.431,-6.5182,-6.498,-6.4428,-6.4215,-6.4144,-6.3783,-6.36,-6.36,-6.36,-6.36,-6.36,-6.36,-6.36,-6.36,-6.36,-6.36,-6.36,-6.36,-6.36,-6.36,-6.36,-6.3489,-6.3377,-6.3227,-6.3,-6.2808,-6.261,-6.2532,-6.2415,-6.2415,-6.2415,-6.2341,-6.2144,-6.1911,-6.1635,-6.1301,-6.0717,-6.0378,-6.0076,-5.9596,-5.9062,-5.8837,-5.8518,-5.8058,-5.7684,-5.7448,-5.7275,-5.6923,-5.681,-5.681,-5.681,-5.681,-5.681,-5.681,-5.681,-5.681,-5.684,-5.7056,-5.7303,-5.7487,-5.7487,-5.7703,-5.8023,-5.8608,-5.9131,-5.9439,-5.9963,-6.028,-6.0267,-6.025,-5.9986,-5.9452,-5.8882,-5.828,-5.7613,-5.688,-5.6135,-5.5289,-5.4607,-5.4161,-5.3652,-5.3044,-5.243,-5.2032,-5.1721,-5.1596,-5.1596,-5.1596,-5.1596,-5.1675,-5.1727,-5.2328,-5.2903,-5.3426,-5.4027,-5.468,-5.5046,-5.5072,-5.5099,-5.5099,-5.4805,-5.4402,-5.42,-5.3997,-5.3384,-5.2861,-5.2861,-5.2861,-5.2861,-5.2861,-5.303,-5.3181,-5.3457,-5.3959,-5.4587,-6.5216,-6.5048,-6.4463,-6.4215,-6.4144,-6.3783,-6.36,-6.36,-6.36,-6.36,-6.36,-6.36,-6.36,-6.36,-6.36,-6.36,-6.36,-6.36,-6.36,-6.36,-6.36,-6.3489,-6.3302,-6.3076,-6.2923,-6.2693,-6.2532,-6.2415,-6.2415,-6.2415,-6.2341,-6.215,-6.1911,-6.1709,-6.1465,-6.1053,-6.0633,-6.0335,-5.999,-5.954,-5.9094,-5.8746,-5.8381,-5.7965,-5.7637,-5.7401,-5.7132,-5.6923,-5.681,-5.681,-5.681,-5.681,-5.681,-5.681,-5.681,-5.681,-5.6871,-5.7148,-5.758,-5.8104,-5.8177,-5.8547,-5.8916,-5.9285,-5.9778,-6.0024,-6.0229,-6.0402,-6.0399,-6.0114,-5.9827,-5.9261,-5.8609,-5.8003,-5.7332,-5.6595,-5.5845,-5.4995,-5.446,-5.4014,-5.347,-5.2799,-5.2245,-5.1934,-5.1596,-5.1596,-5.1596,-5.1596,-5.1622,-5.1701,-5.1884,-5.2485,-5.3034,-5.3556,-5.4105,-5.468,-5.4968,-5.5072,-5.5099,-5.5099,-5.4831,-5.4469,-5.4267,-5.3929,-5.3316,-5.2929,-5.2929,-5.2861,-5.303,-5.3155,-5.3281,-5.3457,-5.3683,-5.426,-5.4913,-6.5245,-6.5147,-6.4463,-6.4145,-6.4109,-6.3783,-6.36,-6.36,-6.36,-6.36,-6.36,-6.36,-6.36,-6.36,-6.36,-6.36,-6.36,-6.36,-6.36,-6.36,-6.3563,-6.3414,-6.3265,-6.3038,-6.2808,-6.2654,-6.2498,-6.2415,-6.2415,-6.2341,-6.2189,-6.1997,-6.175,-6.1547,-6.1219,-6.0886,-6.0548,-6.0292,-5.9816,-5.9407,-5.9004,-5.8701,-5.8289,-5.7918,-5.759,-5.7353,-5.7115,-5.6906,-5.681,-5.681,-5.681,-5.681,-5.681,-5.681,-5.681,-5.681,-5.681,-5.7333,-5.7919,-5.8454,-5.9101,-5.9501,-5.9747,-5.9839,-5.9993,-6.0363,-6.0506,-6.042,-6.025,-5.9849,-5.9476,-5.8828,-5.8225,-5.7584,-5.6964,-5.625,-5.5554,-5.4908,-5.446,-5.3894,-5.3288,-5.2677,-5.2121,-5.1721,-5.1596,-5.1596,-5.1596,-5.1596,-5.1648,-5.1831,-5.2093,-5.2642,-5.3191,-5.3687,-5.4236,-5.4837,-5.4968,-5.5099,-5.5099,-5.5032,-5.4831,-5.4537,-5.42,-5.3793,-5.3316,-5.2998,-5.2929,-5.3055,-5.3231,-5.3381,-5.3658,-5.4034,-5.4336,-5.4737,-5.529,-6.3902,-6.4367,-6.3659,-6.3658,-6.411,-6.3783,-6.36,-6.36,-6.36,-6.36,-6.36,-6.36,-6.36,-6.36,-6.36,-6.36,-6.36,-6.36,-6.36,-6.3563,-6.3452,-6.3265,-6.3076,-6.2885,-6.2693,-6.2537,-6.2454,-6.2415,-6.2341,-6.2229,-6.203,-6.179,-6.1628,-6.1301,-6.0969,-6.0633,-6.0463,-6.0163,-5.9628,-5.9229,-5.8882,-5.8564,-5.815,-5.7731,-5.7543,-5.7258,-5.6971,-5.6858,-5.681,-5.681,-5.681,-5.681,-5.681,-5.681,-5.681,-5.6871,-5.7241,-5.7826,-5.8454,-5.9101,-5.9747,-6.024,-6.0424,-6.0517,-6.0578,-6.0588,-6.069,-6.0407,-6.0144,-5.9827,-5.9261,-5.8664,-5.7974,-5.736,-5.6766,-5.6077,-5.5379,-5.4817,-5.4281,-5.347,-5.2922,-5.243,-5.1908,-5.1721,-5.1596,-5.1596,-5.1622,-5.1648,-5.1753,-5.1962,-5.2328,-5.2877,-5.3452,-5.3975,-5.4471,-5.502,-5.5046,-5.5099,-5.5099,-5.5032,-5.4898,-5.4604,-5.42,-5.3725,-5.3247,-5.2998,-5.2929,-5.313,-5.3457,-5.3909,-5.4235,-5.4612,-5.4988,-5.5315,-5.5591,-6.3158,-6.3486,-6.2854,-6.2788,-6.2958,-6.2777,-6.2841,-6.3151,-6.3462,-6.36,-6.36,-6.36,-6.36,-6.36,-6.36,-6.36,-6.36,-6.36,-6.3563,-6.3414,-6.334,-6.3114,-6.2923,-6.2731,-6.2615,-6.2493,-6.2415,-6.2415,-6.2341,-6.215,-6.1917,-6.1709,-6.1506,-6.1136,-6.0802,-6.0506,-6.0325,-5.9903,-5.9464,-5.9017,-5.8701,-5.8381,-5.7918,-5.759,-5.7448,-5.7115,-5.6858,-5.681,-5.681,-5.681,-5.681,-5.681,-5.681,-5.681,-5.7056,-5.7179,-5.7518,-5.8239,-5.9008,-5.947,-6.0116,-6.0578,-6.0794,-6.0763,-6.0763,-6.0763,-6.0534,-6.0302,-6.0039,-5.972,-5.9099,-5.85,-5.7836,-5.722,-5.6537,-5.5845,-5.5203,-5.4639,-5.3894,-5.3044,-5.2492,-5.2032,-5.1783,-5.1659,-5.1596,-5.1596,-5.1701,-5.1805,-5.1988,-5.225,-5.2642,-5.3138,-5.3739,-5.4314,-5.4759,-5.5099,-5.5099,-5.5099,-5.5099,-5.5032,-5.4965,-5.4537,-5.3997,-5.3521,-5.3179,-5.3074,-5.3155,-5.3432,-5.3758,-5.426,-5.4787,-5.5139,-5.544,-5.5717,-5.5968,-6.2733,-6.2772,-6.2155,-6.1745,-6.1359,-6.1427,-6.1772,-6.2427,-6.3013,-6.3462,-6.3531,-6.36,-6.36,-6.36,-6.36,-6.36,-6.3563,-6.3563,-6.3452,-6.3265,-6.3189,-6.3,-6.2808,-6.2654,-6.2537,-6.2454,-6.2381,-6.2341,-6.2268,-6.207,-6.1797,-6.1669,-6.1383,-6.1053,-6.0675,-6.0335,-6.0066,-5.9584,-5.9197,-5.8837,-5.8564,-5.8197,-5.7778,-5.7511,-5.7275,-5.7019,-5.6858,-5.681,-5.681,-5.681,-5.681,-5.681,-5.681,-5.6994,-5.7303,-5.7734,-5.8042,-5.8701,-5.9408,-5.987,-6.024,-6.0609,-6.0794,-6.0794,-6.0794,-6.069,-6.0429,-6.0144,-5.9933,-5.9399,-5.8773,-5.828,-5.7725,-5.6993,-5.625,-5.5554,-5.4936,-5.4281,-5.341,-5.2738,-5.228,-5.1846,-5.1721,-5.1596,-5.1596,-5.1596,-5.1831,-5.2014,-5.2302,-5.2589,-5.3034,-5.353,-5.4079,-5.4602,-5.4837,-5.5099,-5.5099,-5.5099,-5.5099,-5.4939,-5.4805,-5.4335,-5.3725,-5.3366,-5.3099,-5.335,-5.3507,-5.3884,-5.4336,-5.4863,-5.5315,-5.5641,-5.5917,-5.6068,-5.6118,-6.153,-6.2033,-6.1945,-6.1675,-6.1324,-6.1323,-6.1392,-6.1599,-6.1593,-6.235,-6.3427,-6.3565,-6.3563,-6.3563,-6.3563,-6.3563,-6.3563,-6.3414,-6.334,-6.3152,-6.3034,-6.2847,-6.2654,-6.2537,-6.2459,-6.2454,-6.2381,-6.2302,-6.211,-6.1911,-6.1669,-6.1424,-6.1136,-6.076,-6.0463,-6.0152,-5.9716,-5.9274,-5.8927,-5.8701,-5.8473,-5.815,-5.7778,-5.7464,-5.7227,-5.7019,-5.6858,-5.681,-5.681,-5.681,-5.681,-5.681,-5.681,-5.7254,-5.7611,-5.7949,-5.867,-5.9316,-5.9778,-6.0209,-6.0547,-6.0671,-6.0794,-6.0794,-6.0742,-6.0586,-6.0377,-6.0039,-5.9667,-5.9099,-5.8555,-5.8114,-5.7557,-5.6737,-5.5961,-5.532,-5.4667,-5.3773,-5.2956,-5.2527,-5.2032,-5.1783,-5.1659,-5.1596,-5.1596,-5.1805,-5.2171,-5.2459,-5.2825,-5.3138,-5.3609,-5.4079,-5.4524,-5.4942,-5.5072,-5.5099,-5.5099,-5.5099,-5.5099,-5.4939,-5.4738,-5.4132,-5.3546,-5.3356,-5.3206,-5.3507,-5.3959,-5.4587,-5.5064,-5.5465,-5.5691,-5.5942,-5.6018,-5.6143,-5.6194,-6.0892,-6.1223,-6.0965,-6.0669,-6.0324,-6.0183,-6.0356,-6.063,-6.0451,-6.1137,-6.2309,-6.2687,-6.2996,-6.3271,-6.3305,-6.3343,-6.334,-6.3227,-6.3076,-6.2923,-6.2847,-6.2654,-6.2537,-6.2459,-6.242,-6.2415,-6.2381,-6.2302,-6.1997,-6.179,-6.1588,-6.1252,-6.0844,-6.0548,-6.0249,-5.9892,-5.9452,-5.9049,-5.8701,-5.8487,-5.8303,-5.7965,-5.759,-5.7353,-5.7115,-5.6875,-5.6858,-5.681,-5.681,-5.681,-5.681,-5.7087,-5.7241,-5.7562,-5.8134,-5.872,-5.9347,-5.9932,-6.024,-6.0517,-6.0794,-6.0794,-6.0794,-6.0794,-6.069,-6.0534,-6.025,-5.988,-5.9476,-5.8991,-5.836,-5.7863,-5.7247,-5.6566,-5.5729,-5.4967,-5.4194,-5.3349,-5.2834,-5.2588,-5.2156,-5.1721,-5.1596,-5.1596,-5.1675,-5.2093,-5.2433,-5.2955,-5.3321,-5.3635,-5.4131,-5.4524,-5.4889,-5.5046,-5.5072,-5.5099,-5.5099,-5.5099,-5.5099,-5.4738,-5.4469,-5.3861,-5.3435,-5.3218,-5.3331,-5.3783,-5.4285,-5.4938,-5.5465,-5.5817,-5.5993,-5.6168,-5.6219,-5.6219,-5.6219,-6.0547,-6.0392,-5.9851,-5.9387,-5.9047,-5.8909,-5.9218,-5.9662,-5.9553,-5.9891,-6.0677,-6.1254,-6.2006,-6.2624,-6.2966,-6.3,-6.3,-6.3,-6.2847,-6.277,-6.2688,-6.2537,-6.2459,-6.2415,-6.2415,-6.2341,-6.2341,-6.215,-6.1917,-6.1709,-6.1424,-6.1086,-6.075,-6.0463,-6.0109,-5.9716,-5.9286,-5.8882,-5.8564,-5.8243,-5.7918,-5.7637,-5.7401,-5.7163,-5.6954,-5.681,-5.681,-5.681,-5.681,-5.681,-5.684,-5.7179,-5.7611,-5.7931,-5.867,-5.9285,-5.9809,-6.027,-6.0578,-6.0701,-6.0794,-6.0794,-6.0794,-6.0742,-6.0638,-6.0407,-6.0092,-5.9667,-5.9261,-5.8828,-5.8195,-5.7584,-5.6964,-5.6337,-5.5468,-5.4612,-5.3833,-5.3044,-5.2773,-5.2588,-5.2156,-5.1659,-5.1622,-5.1622,-5.1962,-5.2354,-5.2877,-5.34,-5.3844,-5.4158,-5.455,-5.4759,-5.4968,-5.5072,-5.5099,-5.5099,-5.5099,-5.5099,-5.5032,-5.4604,-5.42,-5.3589,-5.3298,-5.3193,-5.3356,-5.3984,-5.4536,-5.5139,-5.5616,-5.6093,-5.6143,-5.6219,-5.6219,-5.6219,-5.6219,-6.0266,-5.9786,-5.9654,-5.9352,-5.8978,-5.884,-5.8874,-5.8942,-5.8658,-5.8889,-5.9463,-5.9661,-6.0411,-6.2146,-6.2761,-6.2928,-6.2885,-6.2808,-6.277,-6.2693,-6.2537,-6.2459,-6.2381,-6.2415,-6.2415,-6.2341,-6.2189,-6.1957,-6.1716,-6.1547,-6.1219,-6.0802,-6.0548,-6.0206,-5.976,-5.9407,-5.9017,-5.8655,-5.8289,-5.7918,-5.7731,-5.7495,-5.7322,-5.7115,-5.6906,-5.6858,-5.681,-5.681,-5.681,-5.681,-5.6902,-5.7303,-5.7826,-5.8362,-5.907,-5.9747,-6.027,-6.0517,-6.0763,-6.0794,-6.0794,-6.0794,-6.0794,-6.069,-6.0534,-6.025,-5.988,-5.9345,-5.8936,-5.8609,-5.8059,-5.736,-5.668,-5.6049,-5.532,-5.4493,-5.3652,-5.3044,-5.265,-5.2342,-5.2032,-5.1773,-5.1727,-5.1936,-5.2328,-5.2798,-5.3426,-5.3896,-5.421,-5.4576,-5.4916,-5.4994,-5.5072,-5.5099,-5.5099,-5.5099,-5.5099,-5.5099,-5.4965,-5.4537,-5.3997,-5.3384,-5.3117,-5.3155,-5.3708,-5.4361,-5.4888,-5.5365,-5.5767,-5.6168,-5.6168,-5.6219,-5.6219,-5.6219,-5.6219]},{"header":{"parameterUnit":"m.s-1","parameterCategory":1,"la1":31.0,"la2":29.5877,"lo1":-88.7671,"lo2":-86.6584,"dy":0.0162,"dx":0.0185,"nx":115,"ny":88,"refTime":"2024-05-30T12:00:00:Z","depth":0,"parameterNumber":3,"parameterNumberName":"V-component_of_WINDS"},"data":[0.0,0.0,0.0,0.0,0.0,0.0,0.0,0.0,0.0,0.0,0.0,0.0,0.0,0.0,0.0,0.0,0.0,0.0,0.0,0.0,0.0,0.0,0.0,0.0,0.0,0.0,0.0,0.0,0.0,0.0,0.0,0.0,0.0,0.0,0.0,0.0,0.0,0.0,0.0,0.0,0.0,0.0,0.0,0.0,0.0,0.0,0.0,0.0,0.0,0.0,0.0,0.0,0.0,0.0,0.0,0.0,0.0,0.0,0.0,0.0,0.0,0.0,0.0,0.0,0.0,0.0,0.0,0.0,0.0,0.0,0.0,0.0,0.0,0.0,0.0,0.0,0.0,0.0,0.0,0.0,0.0,0.0,0.0,0.0,0.0,0.0,0.0,0.0,0.0,0.0,0.0,0.0,0.0,0.0,0.0,0.0,0.0,0.0,0.0,0.0,0.0,0.0,0.0,0.0,0.0,0.0,0.0,0.0,0.0,0.0,0.0,0.0,0.0,0.0,0.0,0.0,0.0,0.0,0.0,0.0,0.0,0.0,0.0,0.0,0.0,0.0,0.0,0.0,0.0,0.0,0.0,0.0,0.0,0.0,0.0,0.0,0.0,0.0,0.0,0.0,0.0,0.0,0.0,0.0,0.0,0.0,0.0,0.0,0.0,0.0,0.0,0.0,0.0,0.0,0.0,0.0,0.0,0.0,0.0,0.0,0.0,0.0,0.0,0.0,0.0,0.0,0.0,0.0,0.0,0.0,0.0,0.0,0.0,0.0,0.0,0.0,0.0,0.0,0.0,0.0,0.0,0.0,0.0,0.0,0.0,0.0,0.0,0.0,0.0,0.0,0.0,0.0,0.0,0.0,0.0,0.0,0.0,0.0,0.0,0.0,0.0,0.0,0.0,0.0,0.0,0.0,0.0,0.0,0.0,0.0,0.0,0.0,0.0,0.0,0.0,0.0,0.0,0.0,0.0,0.0,0.0,0.0,0.0,0.0,0.0,0.0,0.0,0.0,0.0,0.0,0.0,0.0,0.0,0.0,0.0,0.0,0.0,0.0,0.0,0.0,0.0,0.0,0.0,0.0,0.0,0.0,0.0,0.0,0.0,0.0,0.0,0.0,0.0,0.0,0.0,0.0,0.0,0.0,0.0,0.0,0.0,0.0,0.0,0.0,0.0,0.0,0.0,0.0,0.0,0.0,0.0,0.0,0.0,0.0,0.0,0.0,0.0,0.0,0.0,0.0,0.0,0.0,0.0,0.0,0.0,0.0,0.0,0.0,0.0,0.0,0.0,0.0,0.0,0.0,0.0,0.0,0.0,0.0,0.0,0.0,0.0,0.0,0.0,0.0,0.0,0.0,0.0,0.0,0.0,0.0,0.0,0.0,0.0,0.0,0.0,0.0,0.0,0.0,0.0,0.0,0.0,0.0,0.0,0.0,0.0,0.0,0.0,0.0,0.0,0.0,0.0,0.0,0.0,0.0,0.0,0.0,0.0,0.0,0.0,0.0,0.0,0.0,0.0,0.0,0.0,0.0,0.0,0.0,0.0,0.0,0.0,0.0,0.0,0.0,0.0,0.0,0.0,0.0,0.0,0.0,0.0,0.0,0.0,0.0,0.0,0.0,0.0,0.0,0.0,0.0,0.0,0.0,0.0,0.0,0.0,0.0,0.0,0.0,0.0,0.0,0.0,0.0,0.0,0.0,0.0,0.0,0.0,0.0,0.0,0.0,0.0,0.0,0.0,0.0,0.0,0.0,0.0,0.0,0.0,0.0,0.0,0.0,0.0,0.0,0.0,0.0,0.0,0.0,0.0,0.0,0.0,0.0,0.0,0.0,0.0,0.0,0.0,0.0,0.0,0.0,0.0,0.0,0.0,0.0,0.0,0.0,0.0,0.0,0.0,0.0,0.0,0.0,0.0,0.0,0.0,0.0,0.0,0.0,0.0,0.0,0.0,0.0,0.0,0.0,0.0,0.0,0.0,0.0,0.0,0.0,0.0,0.0,0.0,0.0,0.0,0.0,0.0,0.0,0.0,0.0,0.0,0.0,0.0,0.0,0.0,0.0,0.0,0.0,0.0,0.0,0.0,0.0,0.0,0.0,0.0,0.0,0.0,0.0,0.0,0.0,0.0,0.0,0.0,0.0,0.0,0.0,0.0,0.0,0.0,0.0,0.0,0.0,0.0,0.0,0.0,0.0,0.0,0.0,0.0,0.0,0.0,0.0,0.0,0.0,0.0,0.0,0.0,0.0,0.0,0.0,0.0,0.0,0.0,0.0,0.0,0.0,0.0,0.0,0.0,0.0,0.0,0.0,0.0,0.0,0.0,0.0,0.0,0.0,0.0,0.0,0.0,0.0,0.0,0.0,0.0,0.0,0.0,0.0,0.0,0.0,0.0,0.0,0.0,0.0,0.0,0.0,0.0,0.0,0.0,0.0,0.0,0.0,0.0,0.0,0.0,0.0,0.0,0.0,0.0,0.0,0.0,0.0,0.0,0.0,0.0,0.0,0.0,0.0,0.0,0.0,0.0,0.0,0.0,0.0,0.0,0.0,0.0,0.0,0.0,0.0,0.0,0.0,0.0,0.0,0.0,0.0,0.0,0.0,0.0,0.0,0.0,0.0,0.0,0.0,0.0,0.0,0.0,0.0,0.0,0.0,0.0,0.0,0.0,0.0,0.0,0.0,0.0,0.0,0.0,0.0,0.0,0.0,0.0,0.0,0.0,0.0,0.0,0.0,0.0,0.0,0.0,0.0,0.0,0.0,0.0,0.0,0.0,0.0,0.0,0.0,0.0,0.0,0.0,0.0,0.0,0.0,0.0,0.0,0.0,0.0,0.0,0.0,0.0,0.0,0.0,0.0,0.0,0.0,0.0,0.0,0.0,0.0,0.0,0.0,0.0,0.0,0.0,0.0,0.0,0.0,0.0,0.0,0.0,0.0,0.0,0.0,0.0,0.0,0.0,0.0,0.0,0.0,0.0,0.0,0.0,0.0,0.0,0.0,0.0,0.0,0.0,0.0,0.0,0.0,0.0,0.0,0.0,0.0,0.0,0.0,0.0,0.0,0.0,0.0,0.0,0.0,0.0,0.0,0.0,0.0,0.0,0.0,0.0,0.0,0.0,0.0,0.0,0.0,0.0,0.0,0.0,0.0,0.0,0.0,0.0,0.0,0.0,0.0,0.0,0.0,0.0,0.0,0.0,0.0,0.0,0.0,0.0,0.0,0.0,0.0,0.0,0.0,0.0,0.0,0.0,0.0,0.0,0.0,0.0,0.0,0.0,0.0,0.0,0.0,0.0,0.0,0.0,0.0,0.0,0.0,0.0,0.0,0.0,0.0,0.0,0.0,0.0,0.0,0.0,0.0,0.0,0.0,0.0,0.0,0.0,0.0,0.0,0.0,0.0,0.0,0.0,0.0,0.0,0.0,0.0,0.0,0.0,0.0,0.0,0.0,0.0,0.0,0.0,0.0,0.0,0.0,0.0,0.0,0.0,0.0,0.0,0.0,0.0,0.0,0.0,0.0,0.0,0.0,0.0,0.0,0.0,0.0,0.0,0.0,0.0,0.0,0.0,0.0,0.0,0.0,0.0,0.0,0.0,0.0,0.0,0.0,0.0,0.0,0.0,0.0,0.0,0.0,0.0,0.0,0.0,0.0,0.0,0.0,0.0,0.0,0.0,0.0,0.0,0.0,0.0,0.0,0.0,0.0,0.0,0.0,0.0,0.0,0.0,0.0,0.0,0.0,0.0,0.0,0.0,0.0,0.0,0.0,0.0,0.0,0.0,0.0,0.0,0.0,0.0,0.0,0.0,0.0,0.0,0.0,0.0,0.0,0.0,0.0,0.0,0.0,0.0,0.0,0.0,0.0,0.0,0.0,0.0,0.0,0.0,0.0,0.0,0.0,0.0,0.0,0.0,0.0,0.0,0.0,0.0,0.0,0.0,0.0,0.0,0.0,0.0,0.0,0.0,0.0,0.0,0.0,0.0,0.0,0.0,0.0,0.0,0.0,0.0,0.0,0.0,0.0,0.0,0.0,0.0,0.0,0.0,0.0,0.0,0.0,0.0,0.0,0.0,0.0,0.0,0.0,0.0,0.0,0.0,0.0,0.0,0.0,0.0,0.0,0.0,0.0,0.0,0.0,0.0,0.0,0.0,0.0,0.0,0.0,0.0,0.0,0.0,0.0,0.0,0.0,0.0,0.0,0.0,0.0,0.0,0.0,0.0,0.0,0.0,0.0,0.0,0.0,0.0,0.0,0.0,0.0,0.0,0.0,2.0872,0.0,0.0,0.0,0.0,0.0,0.0,0.0,0.0,0.0,0.0,0.0,0.0,0.0,0.0,0.0,0.0,0.0,0.0,0.0,0.0,0.0,0.0,0.0,0.0,0.0,0.0,0.0,0.0,0.0,0.0,0.0,0.0,0.0,0.0,0.0,0.0,0.0,0.0,0.0,0.0,0.0,0.0,0.0,0.0,0.0,0.0,0.0,0.0,0.0,0.0,0.0,0.0,0.0,0.0,0.0,0.0,0.0,0.0,0.0,0.0,0.0,0.0,0.0,0.0,0.0,0.0,0.0,0.0,0.0,0.0,0.0,0.0,0.0,0.0,0.0,0.0,0.0,0.0,0.0,0.0,0.0,0.0,0.0,0.0,0.0,0.0,0.0,0.0,0.0,0.0,0.0,0.0,0.0,0.0,0.0,0.0,0.0,0.0,0.0,0.0,0.0,0.0,0.0,0.0,0.0,0.0,0.0,0.0,0.0,0.0,2.1718,2.1993,2.181,2.1771,2.1903,0.0,0.0,0.0,0.0,0.0,0.0,0.0,0.0,0.0,0.0,0.0,0.0,0.0,0.0,0.0,0.0,0.0,0.0,0.0,0.0,0.0,0.0,0.0,0.0,0.0,0.0,0.0,0.0,0.0,0.0,0.0,0.0,0.0,0.0,0.0,0.0,0.0,0.0,0.0,0.0,0.0,0.0,0.0,0.0,0.0,0.0,0.0,0.0,0.0,0.0,0.0,0.0,0.0,0.0,0.0,0.0,0.0,0.0,0.0,0.0,0.0,0.0,0.0,0.0,0.0,0.0,0.0,0.0,0.0,0.0,0.0,0.0,0.0,0.0,0.0,0.0,0.0,0.0,0.0,0.0,0.0,0.0,0.0,0.0,0.0,0.0,0.0,0.0,0.0,0.0,0.0,0.0,0.0,0.0,0.0,0.0,0.0,0.0,0.0,0.0,0.0,0.0,0.0,0.0,0.0,0.0,0.0,0.0,0.0,0.0,0.0,0.0,2.2941,2.2808,2.2655,0.0,0.0,0.0,0.0,0.0,0.0,0.0,0.0,0.0,0.0,0.0,0.0,0.0,0.0,0.0,0.0,0.0,0.0,0.0,0.0,0.0,0.0,0.0,0.0,0.0,0.0,0.0,0.0,0.0,0.0,0.0,0.0,0.0,0.0,0.0,0.0,0.0,0.0,0.0,0.0,0.0,0.0,0.0,0.0,0.0,0.0,0.0,0.0,0.0,0.0,0.0,0.0,0.0,0.0,0.0,0.0,0.0,0.0,0.0,0.0,0.0,0.0,0.0,0.0,0.0,0.0,0.0,0.0,0.0,0.0,0.0,0.0,0.0,0.0,0.0,0.0,0.0,0.0,0.0,0.0,0.0,0.0,0.0,0.0,0.0,0.0,0.0,0.0,0.0,0.0,0.0,0.0,0.0,0.0,0.0,0.0,0.0,0.0,0.0,0.0,0.0,0.0,0.0,0.0,0.0,0.0,0.0,0.0,0.0,0.0,2.2602,2.3508,2.3761,0.0,2.2712,0.0,0.0,0.0,0.0,0.0,0.0,0.0,0.0,0.0,0.0,0.0,0.0,0.0,0.0,0.0,0.0,0.0,0.0,0.0,0.0,0.0,0.0,0.0,0.0,0.0,0.0,0.0,0.0,0.0,0.0,0.0,0.0,0.0,0.0,0.0,0.0,0.0,0.0,0.0,0.0,0.0,0.0,0.0,0.0,0.0,0.0,0.0,0.0,0.0,0.0,0.0,0.0,0.0,0.0,0.0,0.0,0.0,0.0,0.0,0.0,0.0,0.0,0.0,0.0,0.0,0.0,0.0,0.0,0.0,0.0,0.0,0.0,0.0,0.0,0.0,0.0,0.0,0.0,0.0,0.0,0.0,0.0,0.0,0.0,0.0,0.0,0.0,0.0,0.0,0.0,0.0,0.0,0.0,0.0,0.0,0.0,0.0,0.0,0.0,0.0,0.0,0.0,0.0,0.0,0.0,0.0,0.0,0.0,0.0,0.0,2.283,2.3743,2.3915,2.3759,0.0,0.0,0.0,0.0,0.0,0.0,0.0,0.0,0.0,0.0,0.0,0.0,0.0,0.0,0.0,0.0,0.0,0.0,0.0,0.0,0.0,0.0,0.0,0.0,0.0,0.0,0.0,0.0,0.0,0.0,0.0,0.0,0.0,0.0,0.0,0.0,0.0,0.0,0.0,0.0,0.0,0.0,0.0,0.0,0.0,0.0,0.0,0.0,0.0,0.0,0.0,0.0,0.0,0.0,0.0,0.0,0.0,0.0,0.0,0.0,0.0,0.0,0.0,0.0,0.0,0.0,0.0,0.0,0.0,0.0,0.0,0.0,0.0,0.0,0.0,0.0,0.0,0.0,0.0,0.0,0.0,0.0,0.0,0.0,0.0,0.0,0.0,0.0,0.0,0.0,0.0,0.0,0.0,0.0,0.0,0.0,0.0,0.0,0.0,0.0,0.0,0.0,0.0,0.0,0.0,0.0,0.0,0.0,0.0,0.0,2.1949,2.2933,2.4065,2.3925,2.3781,2.3648,0.0,0.0,0.0,0.0,0.0,0.0,0.0,0.0,0.0,0.0,0.0,0.0,0.0,0.0,0.0,0.0,0.0,0.0,0.0,0.0,0.0,0.0,0.0,0.0,0.0,0.0,0.0,0.0,0.0,0.0,0.0,0.0,0.0,0.0,0.0,0.0,0.0,0.0,0.0,0.0,0.0,0.0,0.0,0.0,0.0,0.0,0.0,0.0,0.0,0.0,0.0,0.0,0.0,0.0,0.0,0.0,0.0,0.0,0.0,0.0,0.0,0.0,0.0,0.0,0.0,0.0,0.0,0.0,0.0,0.0,0.0,0.0,0.0,0.0,0.0,0.0,0.0,0.0,0.0,0.0,0.0,0.0,0.0,0.0,0.0,0.0,0.0,0.0,0.0,0.0,0.0,0.0,0.0,0.0,0.0,0.0,0.0,0.0,0.0,0.0,0.0,0.0,0.0,0.0,0.0,0.0,0.0,0.0,0.0,2.1686,2.2784,2.4656,2.3878,2.359,0.0,0.0,0.0,0.0,0.0,0.0,0.0,0.0,0.0,0.0,0.0,0.0,0.0,0.0,0.0,0.0,0.0,0.0,0.0,0.0,0.0,0.0,0.0,0.0,0.0,0.0,0.0,0.0,0.0,0.0,0.0,0.0,0.0,0.0,0.0,0.0,0.0,0.0,0.0,0.0,0.0,0.0,0.0,0.0,0.0,0.0,0.0,0.0,0.0,0.0,0.0,0.0,0.0,0.0,0.0,0.0,0.0,0.0,0.0,0.0,0.0,0.0,0.0,0.0,0.0,0.0,0.0,0.0,0.0,0.0,0.0,0.0,0.0,0.0,0.0,0.0,0.0,0.0,0.0,0.0,0.0,0.0,0.0,0.0,0.0,0.0,0.0,0.0,0.0,0.0,0.0,0.0,0.0,0.0,0.0,0.0,0.0,0.0,0.0,0.0,0.0,0.0,0.0,0.0,0.0,0.0,0.0,0.0,0.0,2.0986,2.2167,2.328,2.4281,2.3581,2.3409,0.0,0.0,0.0,0.0,0.0,0.0,0.0,0.0,0.0,0.0,0.0,0.0,0.0,0.0,0.0,0.0,0.0,0.0,0.0,0.0,0.0,0.0,0.0,0.0,0.0,0.0,0.0,0.0,0.0,0.0,0.0,0.0,0.0,0.0,0.0,0.0,0.0,0.0,0.0,0.0,0.0,0.0,0.0,0.0,0.0,0.0,0.0,0.0,0.0,0.0,0.0,0.0,0.0,0.0,0.0,0.0,0.0,0.0,0.0,0.0,0.0,0.0,0.0,0.0,0.0,0.0,0.0,0.0,0.0,0.0,0.0,0.0,0.0,0.0,0.0,0.0,0.0,0.0,0.0,0.0,0.0,0.0,0.0,0.0,0.0,0.0,0.0,0.0,0.0,0.0,0.0,0.0,0.0,0.0,0.0,0.0,0.0,0.0,0.0,0.0,0.0,0.0,0.0,0.0,0.0,0.0,0.0,0.0,0.0,2.1326,0.0,2.3526,0.0,2.3414,2.3174,0.0,0.0,0.0,0.0,0.0,0.0,0.0,0.0,0.0,0.0,0.0,0.0,0.0,0.0,0.0,0.0,0.0,0.0,0.0,0.0,0.0,0.0,0.0,0.0,0.0,0.0,0.0,0.0,0.0,0.0,0.0,0.0,0.0,0.0,0.0,0.0,0.0,0.0,0.0,0.0,0.0,0.0,0.0,0.0,0.0,0.0,0.0,0.0,0.0,0.0,0.0,0.0,0.0,0.0,0.0,0.0,0.0,0.0,0.0,0.0,0.0,0.0,0.0,0.0,0.0,0.0,0.0,0.0,0.0,0.0,0.0,0.0,0.0,0.0,0.0,0.0,0.0,0.0,0.0,0.0,0.0,0.0,0.0,0.0,0.0,0.0,0.0,0.0,0.0,0.0,0.0,0.0,0.0,0.0,0.0,0.0,0.0,0.0,0.0,0.0,0.0,0.0,0.0,0.0,0.0,0.0,0.0,0.0,2.0672,2.2292,2.2751,2.3421,2.4305,2.3317,2.2937,0.0,0.0,0.0,0.0,0.0,0.0,0.0,0.0,0.0,0.0,0.0,0.0,0.0,0.0,0.0,0.0,0.0,0.0,0.0,0.0,0.0,0.0,0.0,0.0,0.0,0.0,0.0,0.0,0.0,0.0,0.0,0.0,0.0,0.0,0.0,0.0,0.0,0.0,0.0,0.0,0.0,0.0,0.0,0.0,0.0,0.0,0.0,0.0,0.0,0.0,0.0,0.0,0.0,0.0,0.0,0.0,0.0,0.0,0.0,0.0,0.0,0.0,0.0,0.0,0.0,0.0,0.0,0.0,0.0,0.0,0.0,0.0,0.0,0.0,0.0,0.0,0.0,0.0,0.0,0.0,0.0,0.0,0.0,0.0,0.0,0.0,0.0,0.0,0.0,0.0,0.0,0.0,0.0,0.0,0.0,0.0,0.0,0.0,0.0,0.0,0.0,0.0,0.0,0.0,0.0,0.0,0.0,0.0,0.0,2.2766,2.3352,2.3737,2.3891,2.3669,2.341,0.0,0.0,0.0,0.0,0.0,0.0,0.0,0.0,0.0,0.0,0.0,0.0,0.0,0.0,0.0,0.0,0.0,0.0,0.0,0.0,0.0,0.0,0.0,0.0,0.0,0.0,0.0,0.0,0.0,0.0,0.0,0.0,0.0,0.0,0.0,0.0,0.0,0.0,0.0,0.0,0.0,0.0,0.0,0.0,0.0,0.0,0.0,0.0,0.0,0.0,0.0,0.0,0.0,0.0,0.0,0.0,0.0,0.0,0.0,0.0,0.0,0.0,0.0,0.0,0.0,0.0,0.0,0.0,0.0,0.0,0.0,0.0,0.0,0.0,0.0,0.0,0.0,0.0,0.0,0.0,0.0,0.0,0.0,0.0,0.0,0.0,0.0,0.0,0.0,0.0,0.0,0.0,0.0,0.0,0.0,0.0,0.0,0.0,0.0,0.0,0.0,0.0,0.0,0.0,0.0,0.0,0.0,0.0,0.0,2.3866,2.4144,2.4377,2.4583,2.4238,2.3884,2.3471,0.0,0.0,0.0,0.0,0.0,0.0,0.0,0.0,0.0,0.0,0.0,0.0,0.0,0.0,0.0,0.0,0.0,0.0,0.0,0.0,0.0,0.0,0.0,0.0,0.0,0.0,0.0,0.0,0.0,0.0,0.0,0.0,0.0,0.0,0.0,0.0,0.0,0.0,0.0,0.0,0.0,0.0,0.0,0.0,0.0,0.0,0.0,0.0,0.0,0.0,0.0,0.0,0.0,0.0,0.0,0.0,0.0,0.0,0.0,0.0,0.0,0.0,0.0,0.0,0.0,0.0,0.0,0.0,0.0,0.0,0.0,0.0,0.0,0.0,0.0,0.0,0.0,0.0,0.0,0.0,0.0,0.0,0.0,0.0,0.0,0.0,0.0,0.0,0.0,0.0,0.0,0.0,0.0,0.0,0.0,0.0,0.0,0.0,0.0,0.0,0.0,0.0,0.0,0.0,0.0,0.0,0.0,0.0,2.5433,2.5175,2.5394,2.606,2.5055,2.4416,0.0,0.0,0.0,0.0,0.0,0.0,0.0,0.0,0.0,0.0,0.0,0.0,0.0,0.0,0.0,0.0,0.0,0.0,0.0,0.0,0.0,0.0,0.0,0.0,0.0,0.0,0.0,0.0,0.0,0.0,0.0,0.0,0.0,0.0,0.0,0.0,0.0,0.0,0.0,0.0,0.0,0.0,0.0,0.0,0.0,0.0,0.0,0.0,0.0,0.0,0.0,0.0,0.0,0.0,0.0,0.0,0.0,0.0,0.0,0.0,0.0,0.0,0.0,0.0,0.0,0.0,0.0,0.0,0.0,0.0,0.0,0.0,0.0,0.0,0.0,0.0,0.0,0.0,0.0,0.0,0.0,0.0,0.0,0.0,0.0,0.0,0.0,0.0,0.0,0.0,0.0,0.0,0.0,0.0,0.0,0.0,0.0,0.0,0.0,0.0,0.0,0.0,0.0,0.0,0.0,0.0,0.0,0.0,0.0,2.7105,2.7608,2.7406,2.6585,2.617,2.5621,0.0,0.0,0.0,0.0,0.0,0.0,0.0,0.0,0.0,0.0,0.0,0.0,0.0,0.0,0.0,0.0,0.0,0.0,0.0,0.0,0.0,0.0,0.0,0.0,0.0,0.0,0.0,0.0,0.0,0.0,0.0,0.0,0.0,0.0,0.0,0.0,0.0,0.0,0.0,0.0,0.0,0.0,0.0,0.0,0.0,0.0,0.0,0.0,0.0,0.0,0.0,0.0,0.0,0.0,0.0,0.0,0.0,0.0,0.0,0.0,0.0,0.0,0.0,0.0,0.0,0.0,0.0,0.0,0.0,0.0,0.0,0.0,0.0,0.0,0.0,0.0,0.0,0.0,0.0,0.0,0.0,0.0,0.0,0.0,0.0,0.0,0.0,0.0,0.0,0.0,0.0,0.0,0.0,0.0,0.0,0.0,0.0,0.0,0.0,0.0,0.0,0.0,0.0,0.0,0.0,0.0,0.0,0.0,2.6225,2.7649,2.8604,2.8784,2.811,2.7432,2.6578,0.0,0.0,0.0,0.0,0.0,0.0,0.0,0.0,0.0,0.0,0.0,0.0,0.0,0.0,0.0,0.0,0.0,0.0,0.0,0.0,0.0,0.0,0.0,0.0,0.0,0.0,0.0,0.0,0.0,0.0,0.0,0.0,0.0,0.0,0.0,0.0,0.0,0.0,0.0,0.0,0.0,0.0,0.0,0.0,0.0,0.0,0.0,0.0,0.0,0.0,0.0,0.0,0.0,0.0,0.0,0.0,0.0,0.0,0.0,0.0,0.0,0.0,0.0,0.0,0.0,0.0,0.0,0.0,0.0,0.0,0.0,0.0,0.0,0.0,0.0,0.0,0.0,0.0,0.0,0.0,0.0,0.0,0.0,0.0,0.0,0.0,0.0,0.0,0.0,0.0,0.0,0.0,0.0,0.0,0.0,0.0,0.0,0.0,0.0,0.0,0.0,0.0,0.0,0.0,0.0,0.0,0.0,0.0,2.6348,2.7689,2.8827,2.9635,3.0031,2.8631,2.7423,0.0,0.0,0.0,0.0,0.0,0.0,0.0,0.0,0.0,0.0,0.0,0.0,0.0,0.0,0.0,0.0,0.0,0.0,0.0,0.0,0.0,0.0,0.0,0.0,0.0,0.0,0.0,0.0,0.0,0.0,0.0,0.0,0.0,0.0,0.0,0.0,0.0,0.0,0.0,0.0,0.0,0.0,0.0,0.0,0.0,0.0,0.0,0.0,0.0,0.0,0.0,0.0,0.0,0.0,0.0,0.0,0.0,0.0,0.0,0.0,0.0,0.0,0.0,0.0,0.0,0.0,0.0,0.0,0.0,0.0,0.0,0.0,0.0,0.0,0.0,0.0,0.0,0.0,0.0,0.0,0.0,0.0,0.0,0.0,0.0,0.0,0.0,0.0,0.0,0.0,0.0,0.0,0.0,0.0,0.0,0.0,0.0,0.0,0.0,0.0,0.0,0.0,0.0,0.0,0.0,0.0,0.0,0.0,2.7277,2.9037,2.9533,3.0097,3.0696,2.9634,2.8813,0.0,0.0,0.0,0.0,0.0,0.0,0.0,0.0,0.0,0.0,0.0,0.0,0.0,0.0,0.0,0.0,0.0,0.0,0.0,0.0,0.0,0.0,0.0,0.0,0.0,0.0,0.0,0.0,0.0,0.0,0.0,0.0,0.0,0.0,0.0,0.0,0.0,0.0,0.0,0.0,0.0,0.0,0.0,0.0,0.0,0.0,0.0,0.0,3.2552,0.0,0.0,0.0,0.0,0.0,0.0,0.0,0.0,0.0,0.0,0.0,0.0,0.0,0.0,0.0,0.0,0.0,0.0,0.0,0.0,0.0,0.0,0.0,0.0,0.0,0.0,0.0,0.0,0.0,0.0,0.0,0.0,0.0,0.0,0.0,0.0,0.0,0.0,0.0,0.0,0.0,0.0,0.0,0.0,0.0,0.0,0.0,0.0,0.0,0.0,0.0,0.0,0.0,0.0,0.0,0.0,0.0,0.0,0.0,2.7277,2.8956,2.9887,3.0581,3.1039,3.0489,2.9677,0.0,0.0,0.0,0.0,0.0,0.0,0.0,0.0,0.0,0.0,0.0,0.0,0.0,0.0,0.0,0.0,0.0,0.0,0.0,0.0,0.0,0.0,0.0,0.0,0.0,0.0,0.0,0.0,0.0,0.0,0.0,0.0,0.0,0.0,0.0,0.0,0.0,0.0,0.0,0.0,0.0,0.0,0.0,0.0,0.0,0.0,0.0,0.0,0.0,0.0,0.0,0.0,0.0,0.0,0.0,0.0,0.0,0.0,0.0,0.0,0.0,0.0,0.0,0.0,0.0,0.0,0.0,0.0,0.0,0.0,0.0,0.0,0.0,0.0,0.0,0.0,0.0,0.0,0.0,0.0,0.0,0.0,0.0,0.0,0.0,0.0,0.0,0.0,0.0,0.0,0.0,0.0,0.0,0.0,0.0,0.0,0.0,0.0,0.0,0.0,0.0,0.0,0.0,0.0,0.0,0.0,0.0,2.5307,2.6915,2.8494,2.9943,3.0931,3.1414,3.1148,3.0171,2.8423,0.0,0.0,0.0,0.0,0.0,0.0,0.0,0.0,0.0,0.0,0.0,0.0,0.0,0.0,0.0,0.0,0.0,0.0,0.0,0.0,0.0,0.0,0.0,0.0,0.0,0.0,0.0,0.0,0.0,0.0,0.0,0.0,0.0,0.0,0.0,0.0,0.0,0.0,2.7338,2.9927,0.0,0.0,0.0,0.0,0.0,0.0,0.0,0.0,3.4966,0.0,0.0,0.0,0.0,0.0,0.0,0.0,0.0,0.0,0.0,0.0,0.0,0.0,0.0,0.0,0.0,0.0,0.0,0.0,0.0,0.0,0.0,0.0,0.0,0.0,0.0,0.0,0.0,0.0,0.0,0.0,0.0,0.0,0.0,0.0,0.0,0.0,0.0,0.0,0.0,0.0,0.0,0.0,0.0,0.0,0.0,0.0,0.0,0.0,0.0,0.0,0.0,0.0,0.0,0.0,0.0,2.377,2.5144,2.6886,2.8908,2.9639,3.0607,3.1901,3.1003,3.0097,2.9156,0.0,0.0,0.0,0.0,0.0,0.0,0.0,0.0,0.0,0.0,0.0,0.0,0.0,0.0,0.0,0.0,0.0,0.0,0.0,0.0,0.0,0.0,0.0,0.0,0.0,0.0,0.0,0.0,0.0,0.0,0.0,0.0,0.0,0.0,0.0,0.0,0.0,0.0,0.0,3.1942,3.3578,0.0,0.0,0.0,0.0,0.0,0.0,0.0,0.0,3.45,0.0,0.0,0.0,0.0,0.0,0.0,0.0,0.0,0.0,0.0,0.0,0.0,0.0,0.0,0.0,0.0,0.0,0.0,0.0,0.0,0.0,0.0,0.0,0.0,0.0,0.0,0.0,0.0,0.0,0.0,0.0,0.0,0.0,0.0,0.0,0.0,0.0,0.0,0.0,0.0,0.0,0.0,0.0,0.0,0.0,0.0,0.0,0.0,0.0,0.0,0.0,0.0,0.0,0.0,0.0,2.3299,2.4954,2.6746,2.8616,2.992,3.0965,3.1826,3.1197,3.0313,0.0,0.0,0.0,0.0,0.0,0.0,0.0,0.0,0.0,0.0,0.0,0.0,0.0,0.0,0.0,0.0,0.0,0.0,0.0,0.0,0.0,0.0,0.0,0.0,0.0,0.0,0.0,0.0,0.0,0.0,0.0,0.0,0.0,0.0,0.0,0.0,0.0,0.0,0.0,0.0,3.2716,3.414,3.4692,0.0,0.0,0.0,0.0,0.0,0.0,3.597,3.6038,0.0,0.0,0.0,0.0,0.0,0.0,0.0,0.0,0.0,0.0,0.0,0.0,0.0,0.0,0.0,0.0,0.0,0.0,0.0,0.0,0.0,0.0,0.0,0.0,0.0,0.0,0.0,0.0,0.0,0.0,0.0,0.0,0.0,0.0,0.0,0.0,0.0,0.0,0.0,0.0,0.0,0.0,0.0,0.0,0.0,0.0,0.0,0.0,0.0,0.0,0.0,0.0,0.0,0.0,0.0,2.2777,2.4791,2.6666,2.8329,3.0134,3.13,3.1659,3.1341,3.0443,0.0,0.0,0.0,0.0,0.0,0.0,0.0,0.0,0.0,0.0,0.0,0.0,0.0,0.0,0.0,0.0,0.0,0.0,0.0,0.0,0.0,0.0,0.0,0.0,0.0,0.0,0.0,0.0,0.0,0.0,0.0,0.0,0.0,0.0,0.0,0.0,0.0,0.0,0.0,0.0,0.0,3.4697,3.5949,3.6505,0.0,0.0,0.0,0.0,3.7719,3.7773,0.0,0.0,0.0,0.0,0.0,0.0,0.0,0.0,0.0,0.0,0.0,0.0,0.0,0.0,0.0,0.0,0.0,0.0,0.0,0.0,0.0,0.0,0.0,0.0,0.0,0.0,0.0,0.0,0.0,0.0,0.0,0.0,0.0,0.0,0.0,0.0,0.0,0.0,0.0,0.0,0.0,0.0,0.0,0.0,0.0,0.0,0.0,0.0,0.0,0.0,0.0,0.0,0.0,0.0,0.0,0.0,2.2745,2.488,2.675,2.845,3.0046,3.1098,3.1659,3.1204,3.0062,0.0,0.0,0.0,0.0,0.0,0.0,0.0,0.0,0.0,0.0,0.0,0.0,0.0,0.0,0.0,0.0,0.0,0.0,0.0,0.0,0.0,0.0,0.0,0.0,0.0,0.0,0.0,0.0,0.0,0.0,0.0,0.0,0.0,0.0,0.0,0.0,0.0,0.0,0.0,0.0,0.0,3.6024,3.6568,3.7548,3.8256,0.0,0.0,3.848,3.8845,3.8412,0.0,0.0,0.0,0.0,0.0,0.0,0.0,0.0,0.0,0.0,0.0,0.0,0.0,0.0,0.0,0.0,0.0,0.0,0.0,0.0,0.0,0.0,0.0,0.0,0.0,0.0,0.0,0.0,0.0,0.0,0.0,0.0,0.0,0.0,0.0,0.0,0.0,0.0,0.0,0.0,0.0,0.0,0.0,0.0,0.0,0.0,0.0,0.0,0.0,0.0,0.0,0.0,0.0,0.0,0.0,2.1128,2.2501,2.4665,2.6676,2.8479,3.0036,3.1098,3.1706,3.1181,3.0071,0.0,0.0,0.0,0.0,0.0,0.0,0.0,0.0,0.0,0.0,0.0,0.0,0.0,0.0,0.0,0.0,0.0,0.0,0.0,0.0,0.0,0.0,0.0,0.0,0.0,0.0,0.0,0.0,0.0,0.0,0.0,0.0,0.0,0.0,0.0,0.0,0.0,0.0,0.0,0.0,0.0,0.0,3.8129,3.9053,0.0,0.0,0.0,4.0529,4.0421,0.0,0.0,0.0,0.0,0.0,0.0,0.0,0.0,0.0,0.0,0.0,0.0,0.0,0.0,0.0,0.0,0.0,0.0,0.0,0.0,0.0,0.0,0.0,0.0,0.0,0.0,0.0,0.0,0.0,0.0,0.0,0.0,0.0,0.0,0.0,0.0,0.0,0.0,0.0,0.0,0.0,0.0,0.0,0.0,0.0,0.0,0.0,0.0,0.0,0.0,0.0,0.0,0.0,0.0,0.0,0.0,0.0,2.2483,2.462,2.6659,2.8568,3.0078,3.1098,3.1659,3.1181,0.0,0.0,0.0,0.0,0.0,0.0,0.0,0.0,0.0,0.0,0.0,0.0,0.0,0.0,0.0,0.0,0.0,0.0,0.0,0.0,0.0,0.0,0.0,0.0,0.0,0.0,0.0,2.0642,0.0,0.0,0.0,0.0,0.0,0.0,0.0,0.0,0.0,0.0,0.0,0.0,0.0,0.0,3.8116,3.9755,4.0735,4.1389,0.0,0.0,4.2495,4.2164,4.1986,4.1479,0.0,0.0,0.0,0.0,0.0,0.0,0.0,0.0,0.0,0.0,0.0,0.0,0.0,0.0,0.0,0.0,0.0,0.0,0.0,0.0,0.0,0.0,0.0,0.0,0.0,0.0,0.0,0.0,0.0,0.0,0.0,0.0,0.0,0.0,0.0,0.0,0.0,0.0,0.0,0.0,0.0,0.0,0.0,0.0,0.0,0.0,0.0,0.0,0.0,0.0,0.0,0.0,0.0,0.0,0.0,2.2858,2.5033,2.7085,2.8991,3.0193,3.1098,3.1659,3.1158,2.991,0.0,0.0,0.0,0.0,0.0,0.0,0.0,0.0,0.0,0.0,0.0,0.0,0.0,0.0,0.0,0.0,0.0,0.0,0.0,0.0,0.0,0.0,0.0,0.0,0.0,0.0,0.0,0.0,0.0,0.0,0.0,0.0,0.0,0.0,0.0,0.0,0.0,0.0,0.0,0.0,0.0,3.958,4.104,4.2496,4.3488,0.0,0.0,4.392,4.4075,4.3094,4.2368,4.2653,0.0,0.0,0.0,0.0,0.0,0.0,0.0,0.0,0.0,0.0,0.0,0.0,0.0,0.0,0.0,0.0,0.0,0.0,0.0,0.0,0.0,0.0,0.0,0.0,0.0,0.0,0.0,0.0,0.0,0.0,0.0,0.0,0.0,0.0,0.0,0.0,0.0,0.0,0.0,0.0,0.0,0.0,0.0,0.0,0.0,0.0,0.0,0.0,0.0,0.0,0.0,0.0,0.0,2.1394,2.3242,2.5202,2.7124,2.9051,3.0214,3.1098,3.1706,3.1181,3.0052,0.0,0.0,0.0,0.0,0.0,0.0,0.0,0.0,0.0,0.0,0.0,0.0,0.0,0.0,0.0,0.0,0.0,0.0,0.0,0.0,0.0,0.0,0.0,0.0,0.0,0.0,0.0,0.0,2.4074,2.5508,2.7189,0.0,0.0,0.0,0.0,0.0,0.0,0.0,0.0,0.0,0.0,4.1253,4.3127,4.4164,0.0,0.0,4.6069,4.6085,4.5389,4.4967,4.4408,4.3555,4.289,0.0,0.0,0.0,0.0,0.0,0.0,0.0,0.0,0.0,0.0,0.0,0.0,0.0,0.0,0.0,0.0,0.0,0.0,0.0,0.0,0.0,0.0,0.0,0.0,0.0,0.0,0.0,0.0,0.0,0.0,0.0,0.0,0.0,0.0,0.0,0.0,0.0,0.0,0.0,0.0,0.0,0.0,0.0,0.0,0.0,0.0,0.0,0.0,0.0,0.0,0.0,0.0,2.1595,2.348,2.5408,2.7317,2.9273,3.0402,3.1331,3.2094,3.1484,3.0454,0.0,0.0,0.0,0.0,0.0,0.0,0.0,0.0,0.0,0.0,0.0,0.0,0.0,0.0,0.0,0.0,0.0,0.0,0.0,0.0,0.0,0.0,0.0,0.0,0.0,0.0,0.0,0.0,2.4832,2.6441,2.8684,0.0,0.0,0.0,0.0,0.0,0.0,0.0,0.0,0.0,0.0,4.2941,4.464,4.5623,4.6408,4.701,4.7491,4.7462,4.6592,4.6408,4.6049,4.4991,0.0,0.0,0.0,0.0,0.0,0.0,0.0,0.0,0.0,0.0,0.0,0.0,0.0,0.0,0.0,0.0,0.0,0.0,0.0,0.0,0.0,0.0,0.0,0.0,0.0,0.0,0.0,0.0,0.0,0.0,1.4506,0.0,0.0,0.0,0.0,0.0,0.0,0.0,0.0,0.0,0.0,0.0,0.0,0.0,0.0,0.0,0.0,0.0,0.0,0.0,0.0,0.0,0.0,2.1915,2.348,2.574,2.7796,2.9695,3.0861,3.1941,3.3078,3.2206,3.1184,3.0013,0.0,0.0,0.0,0.0,0.0,0.0,0.0,0.0,0.0,0.0,0.0,0.0,0.0,0.0,0.0,0.0,0.0,0.0,0.0,0.0,0.0,0.0,0.0,0.0,0.0,0.0,2.4429,2.6257,2.8064,0.0,0.0,0.0,0.0,0.0,0.0,0.0,0.0,0.0,0.0,4.2812,4.48,4.5417,4.6801,4.7753,4.7811,4.784,4.7811,4.7782,4.7259,4.6932,0.0,0.0,0.0,0.0,0.0,0.0,0.0,0.0,0.0,0.0,0.0,0.0,0.0,0.0,0.0,0.0,0.0,0.0,0.0,0.0,0.0,0.0,0.0,0.0,0.0,0.0,0.0,1.6963,1.6688,0.0,0.0,0.0,0.0,0.0,0.0,0.0,0.0,0.0,0.0,0.0,2.1485,2.1906,0.0,0.0,0.0,0.0,0.0,0.0,0.0,0.0,0.0,0.0,0.0,0.0,2.2318,2.3981,2.5891,2.7835,2.9735,3.0829,3.1984,3.3147,3.2205,3.069,2.8555,0.0,0.0,0.0,0.0,0.0,0.0,0.0,0.0,0.0,0.0,0.0,0.0,0.0,0.0,0.0,0.0,0.0,0.0,0.0,0.0,0.0,0.0,0.0,0.0,0.0,2.4356,0.0,0.0,0.0,0.0,0.0,0.0,0.0,0.0,0.0,0.0,0.0,4.1538,4.3185,4.4933,4.6425,4.7496,4.8431,4.9253,0.0,0.0,0.0,0.0,0.0,0.0,0.0,0.0,0.0,0.0,0.0,0.0,0.0,0.0,4.7983,4.6292,4.5633,4.5412,4.5903,0.0,0.0,0.0,0.0,0.0,0.0,0.0,0.0,0.0,0.0,0.0,0.0,0.0,0.0,1.918,0.0,1.8522,0.0,0.0,0.0,0.0,0.0,0.0,0.0,0.0,2.2309,2.2923,2.3198,2.3553,2.3584,0.0,2.318,2.2098,0.0,0.0,0.0,0.0,0.0,0.0,0.0,0.0,2.2887,2.4404,2.6323,2.8203,3.0011,3.1279,3.2485,3.3673,3.2581,3.1005,2.8843,2.7416,2.6021,0.0,0.0,0.0,0.0,0.0,0.0,0.0,0.0,0.0,0.0,0.0,0.0,0.0,0.0,0.0,0.0,0.0,0.0,0.0,0.0,0.0,0.0,0.0,2.5531,0.0,0.0,0.0,0.0,0.0,0.0,0.0,0.0,0.0,4.0205,4.186,4.3689,4.5343,4.6853,4.813,4.8943,0.0,0.0,0.0,0.0,0.0,0.0,0.0,5.1046,5.109,5.1307,5.1689,5.2237,5.2461,5.2606,5.2606,0.0,0.0,4.9134,4.8282,4.8133,4.8596,4.8327,4.8147,4.8566,4.9015,4.9359,0.0,0.0,0.0,0.0,0.0,0.0,0.0,0.0,2.1778,2.176,0.0,2.0534,0.0,0.0,0.0,0.0,0.0,2.1778,0.0,0.0,2.4262,2.4849,2.4886,2.5252,2.5286,2.4867,2.4849,2.4409,2.3425,2.1621,0.0,0.0,0.0,0.0,0.0,0.0,2.3602,2.4882,2.6999,2.8901,3.0495,3.203,3.3399,3.4543,3.3315,3.2034,3.0879,2.8907,2.732,2.6214,2.4699,0.0,0.0,0.0,0.0,0.0,0.0,0.0,0.0,0.0,0.0,0.0,0.0,0.0,0.0,0.0,0.0,0.0,0.0,0.0,0.0,2.5854,0.0,0.0,0.0,0.0,0.0,0.0,0.0,0.0,0.0,0.0,4.2382,4.3921,4.5488,4.6749,0.0,0.0,0.0,0.0,5.1643,5.1672,5.1701,5.1759,5.1759,5.1759,5.2013,5.2961,0.0,0.0,5.5018,5.5239,5.5209,5.5239,5.5179,5.4431,5.1887,5.1379,5.1319,5.1349,5.1319,5.1319,5.1319,5.1439,5.1498,2.1919,0.0,0.0,0.0,0.0,2.2847,2.3426,2.3914,2.3914,2.3749,2.3467,2.2795,0.0,0.0,0.0,0.0,0.0,0.0,2.4005,2.4721,2.5637,2.6224,2.6499,2.6958,2.6921,2.6499,2.6499,2.5913,2.4867,2.4262,2.3125,2.1493,0.0,0.0,0.0,0.0,2.4509,2.5968,2.7625,2.9388,3.1274,3.253,3.347,3.416,3.3815,3.2923,3.1524,3.0494,2.9316,2.7873,2.6286,0.0,0.0,0.0,0.0,0.0,0.0,0.0,0.0,0.0,0.0,0.0,0.0,0.0,0.0,0.0,0.0,0.0,0.0,0.0,2.6426,2.7651,2.8813,0.0,0.0,0.0,0.0,0.0,0.0,0.0,0.0,0.0,4.665,4.7288,4.8101,0.0,0.0,5.1062,5.1062,5.1788,5.2455,5.2891,5.3384,0.0,5.4255,5.4313,5.4371,5.4682,5.5137,5.5617,5.6191,5.64,5.6555,5.6555,5.6555,5.6256,5.5598,5.467,5.4102,5.4042,5.4042,5.4042,5.4072,5.4401,5.473,2.4468,2.3546,2.3646,2.3874,2.422,2.4848,2.5386,2.5729,2.5782,2.5635,2.5359,2.4739,2.4372,2.4134,2.4134,0.0,0.0,0.0,2.5672,2.6114,2.6756,2.7178,2.7416,2.7711,2.7693,2.7416,2.7416,2.7031,2.637,2.6223,2.5472,2.4244,0.0,0.0,2.3694,2.4464,2.5463,2.6616,2.8267,2.9912,3.1569,3.3083,3.399,3.427,3.3935,3.3284,3.2346,3.1428,3.035,2.9172,2.7801,2.6334,0.0,0.0,0.0,0.0,0.0,0.0,0.0,0.0,0.0,0.0,0.0,2.3344,2.3344,0.0,0.0,0.0,2.5584,2.6615,2.8191,2.9231,0.0,0.0,0.0,0.0,0.0,0.0,0.0,4.3567,4.5528,4.7441,4.9415,4.9878,5.0304,5.0975,5.1614,5.2078,5.2339,0.0,5.3559,5.4168,5.4604,5.501,5.5329,5.5416,5.5529,5.5874,5.6464,5.7045,5.7452,5.7636,5.7796,5.7902,5.7902,5.7902,5.7902,5.7244,5.6526,5.6047,5.5927,5.5957,5.5957,5.6256,5.6555,2.6304,2.6493,2.6415,2.6154,2.5865,2.6829,2.727,2.7326,2.727,2.727,2.7215,2.6499,2.6149,2.6149,2.6149,0.0,2.5672,2.6719,2.7233,2.7288,2.7655,2.7895,2.7914,2.7932,2.7914,2.7856,2.7914,2.7895,2.7783,2.7435,2.7251,2.7234,2.5414,2.4661,2.4996,2.5745,2.6422,2.7193,2.8935,3.05,3.1799,3.3741,3.4762,3.4886,3.3887,3.3332,3.3236,3.1817,3.0735,3.0158,2.9148,2.7849,2.6286,0.0,0.0,0.0,0.0,0.0,0.0,0.0,0.0,0.0,0.0,0.0,0.0,0.0,0.0,0.0,2.7272,0.0,2.9779,3.077,0.0,0.0,0.0,3.7755,3.9622,4.1574,4.3571,4.5638,0.0,0.0,5.0982,5.1788,5.2122,5.1802,5.2339,5.2949,5.3588,5.4168,5.4807,5.5358,5.5474,5.5503,5.5678,5.5678,5.5907,5.665,5.74,5.7915,5.844,5.8605,5.8773,5.8955,5.9099,5.9069,5.9099,5.8949,5.871,5.7453,5.7244,5.7244,5.7274,5.7274,5.7334,2.7475,2.7727,2.7945,2.7598,2.6947,2.7779,2.8095,2.8113,2.8113,2.8113,2.8058,2.7563,2.7399,2.7399,2.7399,2.7344,2.7215,2.7546,2.7801,2.8113,2.8205,2.8407,2.8682,2.87,2.87,2.87,2.87,2.8535,2.8242,2.815,2.793,2.7675,2.7197,2.6848,2.6628,2.6793,2.7512,2.871,2.9641,3.1301,3.3695,3.4401,3.4924,3.5376,3.4412,3.3669,3.3284,3.2539,3.1673,3.0711,2.9677,2.857,2.7392,2.619,0.0,0.0,0.0,0.0,0.0,0.0,0.0,0.0,0.0,2.5901,2.6273,0.0,2.733,0.0,2.8907,3.0362,3.2443,3.3227,0.0,0.0,3.8106,3.9841,4.1585,4.3691,4.5644,4.7313,4.9036,5.048,5.1447,5.2534,5.3324,5.3419,5.3748,5.4255,5.4865,5.5068,5.5416,5.6026,5.6171,5.6345,5.6723,5.6839,5.6868,5.7098,5.7496,5.7948,5.828,5.85,5.8773,5.9045,5.9099,5.9099,5.9099,5.9099,5.9009,5.871,5.862,5.862,5.862,5.862,5.862,2.768,2.7963,2.8418,2.8394,2.7955,2.8305,2.8546,2.8663,2.8663,2.8663,2.8645,2.8407,2.8263,2.8077,2.8281,2.8205,2.8058,2.8223,2.8425,2.8645,2.8663,2.8773,2.8975,2.8975,2.8975,2.8975,2.8975,2.8865,2.8663,2.8645,2.8535,2.8315,2.8315,2.8205,2.7985,2.7801,2.8273,2.9259,3.0677,3.22,3.4086,3.4516,3.4878,3.5188,3.4245,3.3573,3.3308,3.2539,3.1886,3.1284,3.0446,2.9629,2.8811,2.7536,2.6334,0.0,0.0,0.0,0.0,0.0,0.0,0.0,0.0,0.0,0.0,0.0,2.9556,3.0543,3.1168,3.2319,3.4316,3.5086,3.6206,3.8041,3.9618,4.1369,4.3603,4.5169,4.6818,4.8702,4.9932,5.101,5.2023,5.284,5.3797,5.4722,5.5002,5.5311,5.571,5.5852,5.6084,5.6694,5.681,5.6897,5.7274,5.7303,5.7303,5.7303,5.7501,5.764,5.7974,5.828,5.8555,5.8828,5.9021,5.9099,5.9099,5.9099,5.9099,5.9099,5.9099,5.9099,5.9099,5.9099,5.9099,2.7449,2.7815,2.8415,2.8713,2.8724,2.862,2.8763,2.9007,2.9048,2.903,2.8975,2.8975,2.8792,2.8498,2.8828,2.8792,2.8498,2.8828,2.8975,2.8975,2.8975,2.8975,2.8975,2.8975,2.8975,2.8975,2.8975,2.8975,2.8975,2.8975,2.8975,2.8975,2.8975,2.8975,2.8975,2.8645,2.8811,2.9527,3.1603,3.3043,3.3803,3.4426,3.4762,3.4836,3.3863,3.3284,3.326,3.2271,3.1717,3.1693,3.1168,3.0706,3.0182,2.8811,2.7738,0.0,2.7258,0.0,0.0,0.0,0.0,0.0,0.0,0.0,0.0,3.0951,3.1937,3.3452,3.3597,3.4222,3.5761,3.6541,3.7678,3.9404,4.0713,4.2603,4.5182,4.6196,4.7485,4.9665,5.0296,5.1207,5.2407,5.3077,5.406,5.5391,5.5817,5.6016,5.6408,5.6464,5.6723,5.7245,5.7303,5.7274,5.7303,5.7303,5.7303,5.7303,5.7303,5.7416,5.7781,5.8003,5.828,5.8609,5.8882,5.9045,5.9099,5.9099,5.9099,5.9099,5.9099,5.9099,5.9099,5.9099,5.9099,2.7604,2.8162,2.8252,2.8631,2.9107,2.911,2.9108,2.9107,2.9331,2.9287,2.8993,2.8975,2.8938,2.8883,2.8938,2.8938,2.8883,2.8957,2.8975,2.8975,2.8975,2.8975,2.8975,2.8975,2.8975,2.8975,2.8975,2.8975,2.8975,2.8975,2.8975,2.8975,2.8975,2.8975,2.8975,0.0,0.0,0.0,3.1957,3.3268,3.4316,3.4584,3.4947,3.5376,3.4054,0.0,3.326,3.2295,3.1717,3.1693,3.1211,0.0,0.0,0.0,0.0,0.0,0.0,0.0,0.0,0.0,0.0,0.0,3.225,3.2298,3.2082,3.2899,3.3909,3.504,3.516,3.5833,3.7372,3.7875,3.8819,4.069,4.1938,4.3365,4.5074,4.6769,4.8264,4.9116,5.0823,5.2017,5.238,5.3472,5.4516,5.5197,5.5852,5.6394,5.6735,5.6988,5.7158,5.7303,5.7303,5.7303,5.7303,5.7303,5.7303,5.7303,5.7303,5.7445,5.7725,5.7836,5.8059,5.8555,5.8748,5.8828,5.9045,5.9099,5.9159,5.9129,5.9129,5.9099,5.9099,5.9129,5.9099,2.76,0.0,2.8458,2.8765,0.0,2.9672,2.9671,2.9484,2.9781,2.9654,2.9269,2.9067,2.8975,2.8975,2.8975,2.8975,2.8975,2.8975,2.8975,2.8975,2.8975,2.8975,2.8975,2.8975,2.8975,2.8975,2.8975,2.8975,2.8975,2.8975,2.8975,2.8975,2.8975,2.8975,2.8993,2.9272,2.9922,3.0762,3.2055,3.3254,3.4447,3.4877,3.5224,3.554,3.4602,0.0,0.0,0.0,0.0,0.0,0.0,0.0,0.0,0.0,0.0,3.0903,3.112,3.1288,3.1288,3.1769,3.2539,3.3573,3.4366,3.4607,3.4078,3.4751,3.5641,3.6675,3.6771,3.7324,3.8623,3.9141,3.9995,4.1545,4.2556,4.386,4.5752,4.7057,4.8156,4.9239,5.0676,5.1815,5.2487,5.3579,5.4623,5.5394,5.6022,5.6509,5.688,5.7134,5.7303,5.7303,5.7303,5.7303,5.7303,5.7303,5.7303,5.7303,5.7303,5.736,5.7528,5.7725,5.7948,5.839,5.8555,5.8773,5.9021,5.9368,5.9578,5.9638,5.9847,6.0086,6.0086,5.9817,5.9697,2.7448,2.813,2.8543,2.8939,2.925,2.997,3.0183,3.0038,0.0,0.0,0.0,2.9269,2.9085,2.9085,2.9012,2.8975,2.8975,2.8975,2.8975,2.8975,2.8975,2.8975,2.8975,2.8975,2.8975,2.8975,2.8975,2.8975,2.8975,2.8975,2.8975,2.8975,2.8975,2.9035,2.9094,2.9686,3.0255,3.0898,3.2055,3.331,3.4469,3.5125,3.5502,3.5587,3.5053,3.4294,3.3452,3.2923,3.2418,3.203,3.2394,3.2635,3.2635,3.2635,3.2635,3.2635,3.2635,3.2731,3.2899,3.3332,3.4054,3.5184,3.6122,3.6459,3.593,3.6386,3.7084,3.8046,3.8214,3.8671,3.9657,4.021,4.0967,4.2021,4.2947,4.4352,4.6347,4.7152,4.799,4.9351,5.0486,5.1516,5.284,5.3738,5.4616,5.5646,5.6164,5.6566,5.688,5.7134,5.7303,5.7303,5.7303,5.7303,5.7303,5.7303,5.7303,5.7303,5.7303,5.7303,5.736,5.7528,5.7836,5.814,5.8504,5.8897,5.923,5.9847,6.0236,6.0266,6.0715,6.1164,6.1224,6.0835,6.0595,2.6916,2.74,2.8064,2.8527,2.8939,2.9561,3.0178,3.0671,3.039,3.0167,3.0094,2.9672,2.9489,2.947,2.914,2.8975,2.8975,2.8975,2.8975,2.8975,2.8975,2.8975,2.8975,2.8975,2.8975,2.8975,2.8975,2.8975,2.8975,2.8975,2.8975,2.8975,2.8975,2.9153,2.945,3.0039,3.0626,3.1208,3.2227,3.331,3.4469,3.4885,3.5267,3.5564,3.4854,3.4317,3.391,3.3452,3.314,3.3068,3.314,3.3164,3.3164,3.3188,3.3188,3.3164,3.3188,3.3549,3.4414,3.4534,3.5256,3.6723,3.7421,3.7541,3.7036,3.7445,3.8022,3.8647,3.9104,3.9609,4.0234,4.0763,4.1441,4.2321,4.3541,4.4739,4.5733,4.688,4.8107,4.9329,5.082,5.2089,5.3275,5.4293,5.5004,5.5526,5.6077,5.6623,5.7078,5.7247,5.7303,5.7303,5.7303,5.7303,5.7303,5.7303,5.7303,5.7303,5.7303,5.7303,5.7303,5.736,5.7613,5.8114,5.8693,5.9296,5.9827,6.0505,6.0894,6.0984,6.1134,6.1373,6.1852,6.1822,6.1642,2.7106,2.757,2.8225,2.8644,2.8873,2.9709,3.0426,3.0908,3.0883,3.0717,3.0479,3.0094,2.991,2.9874,2.9489,2.9305,2.9305,2.9085,2.8975,2.8975,2.8975,2.8975,2.8975,2.8975,2.8975,2.8975,2.8975,2.8975,2.8975,2.8975,2.8975,2.9053,2.9153,2.939,2.9745,3.0333,3.0976,3.1556,3.2477,3.348,3.4469,3.5131,3.5573,3.5725,3.5415,3.4934,3.4245,3.3887,3.3573,3.3284,3.3549,3.3693,3.3693,3.3958,3.4246,3.4535,3.4559,3.4895,3.5641,3.5954,3.6555,3.7541,3.8118,3.8479,3.8503,3.8719,3.9104,3.9609,3.9922,4.0258,4.0787,4.1293,4.1997,4.2773,4.3825,4.4893,4.5839,4.6815,4.791,4.9134,5.0425,5.1841,5.3292,5.4252,5.4995,5.5437,5.6019,5.6623,5.7191,5.7303,5.7303,5.7303,5.7303,5.7303,5.7303,5.7303,5.7303,5.7303,5.7303,5.7303,5.7303,5.7332,5.773,5.8526,5.8991,5.9596,6.0424,6.1194,6.1553,6.1672,6.1972,6.2301,6.257,6.263,6.251,2.7324,2.7631,2.8435,2.8877,2.9005,2.9987,3.0573,3.0815,3.1184,3.1212,3.0901,3.0516,3.0332,3.0296,2.9892,2.9654,2.9544,2.925,2.9067,2.8993,2.8975,2.8975,2.8975,2.8975,2.8975,2.8975,2.8975,2.8975,2.8975,2.8975,2.8975,2.9035,2.9331,2.9627,2.9922,3.0626,3.1267,3.1845,3.282,3.3649,3.4491,3.5323,3.5754,3.5892,3.602,3.569,3.4837,3.4629,3.439,3.4054,3.4366,3.4534,3.4534,3.4919,3.5352,3.5737,3.5809,3.6026,3.6555,3.7204,3.7733,3.8142,3.8791,3.9345,3.9729,3.9898,4.0066,4.0355,4.0499,4.0787,4.1317,4.1846,4.2469,4.3214,4.4108,4.502,4.5985,4.6755,4.7666,4.8934,5.0175,5.1513,5.3075,5.4125,5.4877,5.5613,5.6106,5.6623,5.7134,5.7303,5.7303,5.7303,5.7303,5.7303,5.7303,5.7303,5.7303,5.7303,5.7303,5.7419,5.7477,5.7536,5.7938,5.9002,5.9551,6.0102,6.1058,6.1795,6.2241,6.2361,6.263,6.3047,6.3047,6.3019,6.3049,2.7382,2.7324,2.8361,2.8993,2.9333,3.0118,3.0443,3.0573,3.112,3.1377,3.1267,3.0901,3.0736,3.0681,3.0332,2.9947,2.9617,2.9544,2.9342,2.903,2.8975,2.8993,2.8993,2.8975,2.8975,2.8975,2.8975,2.8975,2.8975,2.8975,2.8975,2.9035,2.9331,2.9627,2.9981,3.0801,3.1441,3.1787,3.2934,3.3896,3.4469,3.5124,3.5613,3.5892,3.6186,3.6195,3.5785,3.6066,3.6146,3.6122,3.6098,3.617,3.617,3.6218,3.6266,3.6314,3.6338,3.6555,3.7132,3.8094,3.8671,3.8815,3.9657,4.0234,4.0331,4.0739,4.0836,4.0619,4.0836,4.1317,4.1846,4.2434,4.294,4.3433,4.4476,4.5281,4.555,4.6456,4.7794,4.9291,5.0319,5.1701,5.3479,5.4346,5.5026,5.6077,5.6279,5.6623,5.7191,5.7303,5.7303,5.7303,5.7303,5.7303,5.7303,5.7303,5.7303,5.7303,5.7332,5.7565,5.7913,5.8174,5.855,5.9535,6.035,6.0992,6.1575,6.2338,6.2899,6.2839,6.3017,6.3137,6.3137,6.3137,6.3137,2.7733,2.7553,2.8878,2.9529,2.9742,3.0206,3.0378,3.0443,3.112,3.1377,3.1359,3.1212,3.1139,3.1121,3.0717,3.0442,3.0277,3.0039,2.9855,2.9672,2.9452,2.9384,2.9305,2.9085,2.8975,2.8975,2.8975,2.8975,2.8975,2.8975,2.9094,2.9272,2.9568,2.9863,3.0274,3.1092,3.1672,3.1787,3.2991,3.384,3.4289,3.5013,3.553,3.5794,3.6001,3.6139,3.6218,3.6169,3.6258,3.6411,3.6411,3.6411,3.6411,3.6411,3.6555,3.6843,3.718,3.7589,3.8118,3.8575,3.9104,3.9705,4.0138,4.0523,4.0836,4.1052,4.1076,4.098,4.1341,4.1749,4.2014,4.2711,4.3313,4.3614,4.4378,4.5086,4.5331,4.6552,4.793,4.9064,5.0541,5.1924,5.3254,5.4254,5.5203,5.6164,5.6394,5.6623,5.7191,5.7303,5.7303,5.7303,5.7303,5.7303,5.7303,5.7303,5.7303,5.7361,5.7652,5.8058,5.8261,5.8697,5.9219,6.0122,6.0822,6.1466,6.2081,6.2579,6.3137,6.3137,6.3137,6.3137,6.3137,6.3137,6.3137,2.7992,2.7992,2.9298,2.9897,2.9965,3.0316,3.0467,3.049,3.112,3.1377,3.1377,3.1377,3.1377,3.1341,3.1066,3.0901,3.0754,3.0497,3.0296,3.0185,2.9874,2.9806,2.9709,2.9342,2.914,2.9122,2.903,2.8975,2.8975,2.8975,2.9153,2.9509,2.9745,3.0039,3.045,3.1325,3.1787,3.1903,3.2991,3.3749,3.403,3.4924,3.5533,3.5763,3.6041,3.626,3.6579,3.6488,3.6586,3.6843,3.6843,3.6843,3.6843,3.6843,3.7012,3.7397,3.7926,3.8383,3.8737,3.908,3.9561,4.0306,4.0499,4.0763,4.11,4.1196,4.1268,4.1437,4.187,4.2182,4.2279,4.3,4.3529,4.3721,4.4376,4.4963,4.5294,4.6595,4.7856,4.8958,5.0516,5.2158,5.3335,5.4373,5.532,5.6164,5.6394,5.6623,5.7134,5.7303,5.7303,5.7303,5.7303,5.7303,5.7303,5.7303,5.7332,5.7623,5.8029,5.8377,5.8668,5.9306,5.9771,6.0588,6.1116,6.1555,6.2143,6.2672,6.3137,6.3137,6.3137,6.3137,6.3137,6.3137,6.3137,2.813,2.8285,2.9395,2.9914,2.9965,3.0579,3.0697,3.0479,3.1138,3.1377,3.1377,3.1377,3.1377,3.1377,3.1322,3.1139,3.0827,3.0772,3.0589,3.0296,3.0204,3.0167,3.0149,2.9745,2.9604,2.9525,2.925,2.9048,2.9012,2.8993,2.9153,2.9509,2.9745,3.0098,3.0509,3.1325,3.1787,3.1903,3.2991,3.3636,3.3805,3.4813,3.5533,3.5785,3.634,3.675,3.7019,3.7364,3.7636,3.7902,3.7829,3.7853,3.7878,3.7853,3.7878,3.7998,3.8455,3.8791,3.8984,3.9729,4.0331,4.0475,4.0836,4.1148,4.1172,4.1244,4.1437,4.1894,4.2375,4.2711,4.2819,4.3265,4.377,4.4178,4.4546,4.4902,4.5294,4.6487,4.7637,4.8922,5.0498,5.2272,5.4166,5.479,5.5351,5.6106,5.6423,5.6623,5.7134,5.7303,5.7303,5.7303,5.7303,5.7303,5.7332,5.7477,5.771,5.8,5.8377,5.8755,5.9539,6.0235,6.0584,6.1024,6.1557,6.1939,6.2175,6.2526,6.2963,6.3137,6.3137,6.3137,6.3137,6.3137,6.3137,2.8707,2.9552,2.9834,3.0148,3.0634,3.0825,3.0857,3.0763,3.1146,3.1377,3.1377,3.1377,3.1377,3.1377,3.1377,3.1304,3.1176,3.1157,3.1084,3.0937,3.0699,3.0571,3.0534,3.0167,2.9984,2.9947,2.9837,2.9617,2.9342,2.9104,2.9272,2.9686,2.9863,3.0157,3.0762,3.1441,3.1787,3.1903,3.2991,3.3614,3.3671,3.4813,3.5478,3.5588,3.6114,3.6657,3.7066,3.7251,3.7518,3.7974,3.7974,3.7974,3.7974,3.7974,3.8166,3.8479,3.8695,3.9104,3.9753,4.0162,4.0547,4.0884,4.1076,4.1196,4.1244,4.1485,4.1832,4.2062,4.2784,4.3192,4.3337,4.3721,4.4069,4.4299,4.4409,4.4839,4.5761,4.6724,4.792,4.9384,5.1066,5.2829,5.4052,5.4699,5.5144,5.6193,5.6423,5.668,5.7134,5.7303,5.7303,5.7303,5.7332,5.7448,5.7913,5.7942,5.8087,5.8464,5.8842,5.9422,6.0148,6.0613,6.099,6.1139,6.1702,6.2116,6.2292,6.2673,6.3021,6.3137,6.3137,6.3137,6.3137,6.3137,6.3137,2.8995,3.0266,3.0178,3.0416,3.1029,3.1193,3.1159,3.0994,3.1382,3.1506,3.1396,3.1377,3.1377,3.1377,3.1377,3.1377,3.1377,3.1377,3.1377,3.1359,3.1102,3.0974,3.0919,3.0571,3.0387,3.0369,3.0241,3.0057,2.9843,2.9628,2.9725,3.0071,3.017,3.0467,3.0918,3.1518,3.1787,3.2018,3.2991,3.3614,3.3749,3.4813,3.5423,3.5478,3.6004,3.6549,3.7066,3.712,3.7388,3.7921,3.7974,3.807,3.8214,3.8238,3.8503,3.9008,3.9248,3.9609,4.0282,4.0547,4.0812,4.1124,4.1196,4.1196,4.122,4.1677,4.2073,4.2351,4.2976,4.3553,4.3794,4.4069,4.4285,4.4285,4.4285,4.4812,4.5981,4.6835,4.8234,5.0146,5.1619,5.3113,5.4281,5.4548,5.5172,5.625,5.6423,5.6623,5.7134,5.7303,5.7303,5.7332,5.7536,5.7797,5.829,5.8581,5.8929,5.9277,5.9393,6.0003,6.0496,6.0961,6.1224,6.1313,6.1612,6.2057,6.2468,6.2847,6.3021,6.3079,6.3137,6.3137,6.3137,6.3137,6.3137,2.8995,3.0299,3.037,3.0651,3.1132,3.1702,3.162,3.1136,3.1672,3.1763,3.1488,3.1396,3.1377,3.1377,3.1377,3.1377,3.1377,3.1377,3.1377,3.1359,3.1341,3.1322,3.1304,3.0956,3.0791,3.0772,3.0406,3.0222,3.0204,3.0402,3.0504,3.0604,3.0828,3.0953,3.0918,3.152,3.1808,3.2018,3.2991,3.3558,3.3727,3.4758,3.5423,3.5478,3.6004,3.6549,3.7066,3.712,3.7388,3.7921,3.7974,3.8238,3.8671,3.8791,3.9056,3.9561,4.0066,4.0331,4.0475,4.086,4.11,4.1196,4.1196,4.1196,4.1365,4.1808,4.2313,4.2735,4.3265,4.3746,4.4178,4.4261,4.4285,4.4285,4.4285,4.4812,4.5906,4.6759,4.8209,5.082,5.2156,5.3166,5.4161,5.4607,5.5113,5.6019,5.6394,5.6566,5.7078,5.7247,5.7303,5.7419,5.7739,5.8174,5.8726,5.9277,5.9771,6.0177,6.0177,6.0467,6.0787,6.1164,6.1164,6.1313,6.1702,6.2175,6.2701,6.3021,6.3021,6.3137,6.3137,6.3137,6.3137,6.3137,6.3137,2.8995,3.037,3.037,3.0801,3.1424,3.1946,3.1939,3.1741,3.1926,3.1928,3.1781,3.1506,3.1377,3.1377,3.1377,3.1377,3.1377,3.1377,3.1377,3.1377,3.1377,3.1377,3.1341,3.1249,3.1194,3.1121,3.0791,3.0607,3.0615,3.0705,3.0771,3.0982,3.1347,3.1438,3.1348,3.1878,3.2109,3.1981,3.2991,3.3558,3.3671,3.4813,3.5423,3.5478,3.6004,3.6526,3.7089,3.712,3.7388,3.7974,3.7974,3.8238,3.8767,3.9176,3.9609,4.009,4.0282,4.0595,4.0908,4.1076,4.1196,4.1196,4.1196,4.1365,4.1725,4.2265,4.2711,4.3241,4.377,4.4117,4.4237,4.4285,4.4285,4.4285,4.4285,4.4981,4.6584,4.8271,4.9938,5.1278,5.2156,5.3166,5.4221,5.4607,5.4995,5.5903,5.6308,5.6566,5.6908,5.7191,5.7303,5.7361,5.7913,5.8552,5.9132,5.9713,6.0235,6.0584,6.0671,6.07,6.1019,6.1193,6.1193,6.1344,6.1821,6.2234,6.2847,6.3137,6.3137,6.3137,6.3137,6.3137,6.3137,6.3137,6.3137,2.8995,3.037,3.037,3.0852,3.1613,3.214,3.224,3.2165,3.218,3.2148,3.1946,3.1561,3.1377,3.1377,3.1377,3.1377,3.1377,3.1377,3.1377,3.1377,3.1377,3.1377,3.1377,3.1377,3.1377,3.1341,3.1121,3.1011,3.1056,3.1213,3.1383,3.1499,3.1911,3.2005,3.1857,3.2336,3.2532,3.2486,3.3513,3.4061,3.414,3.4999,3.5602,3.5523,3.6004,3.6642,3.7324,3.7425,3.7601,3.7964,3.8166,3.8647,3.932,3.9753,4.0138,4.0547,4.0715,4.086,4.1148,4.1172,4.1196,4.1196,4.1365,4.1605,4.2038,4.2567,4.3192,4.3505,4.3949,4.4285,4.4285,4.4285,4.4285,4.4285,4.4477,4.5406,4.7164,4.9267,5.0701,5.1534,5.2156,5.3227,5.4161,5.4607,5.4995,5.5787,5.625,5.6509,5.6794,5.7134,5.7334,5.7681,5.8348,5.8987,5.9568,6.0148,6.07,6.0932,6.1077,6.1048,6.1164,6.1193,6.1193,6.1464,6.1791,6.2175,6.2731,6.3021,6.3137,6.3137,6.3137,6.3137,6.3137,6.3137,6.3137,2.8995,3.0299,3.0442,3.0922,3.17,3.2386,3.2471,3.2271,3.2471,3.2423,3.2038,3.1653,3.1414,3.1377,3.1377,3.1377,3.1377,3.1377,3.1377,3.1377,3.1377,3.1377,3.1377,3.1377,3.1377,3.1359,3.1341,3.1405,3.1433,3.1926,3.2232,3.1998,3.244,3.2617,3.2407,3.2834,3.3095,3.3154,3.4265,3.4699,3.4438,3.5505,3.6005,3.5602,3.621,3.6942,3.7762,3.8052,3.8058,3.8185,3.8695,3.9393,4.0162,4.0403,4.0667,4.11,4.1172,4.1148,4.1172,4.1196,4.1244,4.1341,4.1677,4.2038,4.2279,4.2952,4.3481,4.3649,4.3997,4.4285,4.4285,4.4285,4.4333,4.4453,4.4987,4.6066,4.7632,4.9469,5.0727,5.1534,5.2218,5.3105,5.4341,5.4607,5.5054,5.5729,5.625,5.6509,5.688,5.7164,5.7595,5.8116,5.8668,5.9277,5.9829,6.0467,6.0961,6.1019,6.1193,6.1193,6.1193,6.1193,6.1313,6.1583,6.185,6.2175,6.2556,6.2905,6.3079,6.3137,6.3137,6.3137,6.3137,6.3137,6.3137,2.9282,3.037,3.0726,3.1277,3.1982,3.2491,3.2806,3.2993,3.3025,3.279,3.2404,3.2019,3.1653,3.1396,3.1377,3.1377,3.1377,3.1377,3.1377,3.1377,3.1377,3.1377,3.1377,3.1377,3.1377,3.1377,3.1442,3.1525,3.1782,3.2166,3.2473,3.2631,3.2971,3.3047,3.2819,3.3293,3.3417,3.3336,3.4369,3.4976,3.5045,3.6046,3.6633,3.66,3.7075,3.7706,3.846,3.8927,3.9124,3.9194,3.9681,4.0066,4.0427,4.0739,4.1004,4.1148,4.1196,4.1196,4.1196,4.1196,4.1365,4.1725,4.1918,4.2303,4.3072,4.3337,4.3721,4.3949,4.4237,4.4285,4.4285,4.4309,4.4597,4.5444,4.5978,4.6812,4.7922,4.9405,5.0842,5.1534,5.2218,5.3166,5.4161,5.4667,5.4964,5.5757,5.625,5.6509,5.688,5.7308,5.771,5.8261,5.8813,5.9451,6.009,6.0729,6.1135,6.1135,6.1193,6.1193,6.1193,6.1193,6.1344,6.1554,6.185,6.2234,6.2556,6.2847,6.2963,6.3137,6.3137,6.3137,6.3137,6.3137,6.3137,2.9497,3.0442,3.0868,3.1418,3.2105,3.2544,3.2929,3.3258,3.3189,3.2991,3.257,3.2166,3.1763,3.1396,3.1377,3.1377,3.1377,3.1377,3.1377,3.1377,3.1377,3.1377,3.1377,3.1377,3.1377,3.1377,3.1377,3.157,3.191,3.223,3.2613,3.2848,3.3228,3.3301,3.3148,3.3669,3.392,3.3963,3.4852,3.5529,3.5376,3.6553,3.692,3.7061,3.7531,3.8122,3.8977,3.9801,4.0186,4.0066,4.0234,4.0499,4.0739,4.1004,4.1196,4.1196,4.1196,4.1196,4.1196,4.1196,4.1437,4.1894,4.2134,4.2687,4.3337,4.3697,4.3997,4.4213,4.4285,4.4285,4.4333,4.4477,4.5131,4.5972,4.6807,4.7597,4.8268,4.9709,5.0879,5.1659,5.2342,5.3105,5.4401,5.4607,5.5054,5.5757,5.625,5.6537,5.688,5.7309,5.7913,5.8552,5.919,5.9858,6.038,6.0961,6.1164,6.1193,6.1193,6.1193,6.1193,6.1193,6.1284,6.1523,6.188,6.2175,6.241,6.2731,6.3021,6.3137,6.3137,6.3137,6.3137,6.3137,6.3137,2.9799,3.0442,3.0868,3.1489,3.2193,3.2561,3.2999,3.3276,3.3331,3.3083,3.268,3.2258,3.1891,3.1451,3.1433,3.1377,3.1377,3.1377,3.1377,3.1377,3.1377,3.1377,3.1377,3.1377,3.1377,3.1377,3.1377,3.1653,3.1974,3.2294,3.2613,3.2975,3.3292,3.3355,3.3466,3.4007,3.436,3.4529,3.558,3.6043,3.6089,3.6978,3.7493,3.7421,3.8022,3.8699,3.9622,4.0469,4.0908,4.0499,4.0475,4.0739,4.1124,4.1172,4.1196,4.1196,4.1196,4.1196,4.122,4.1268,4.1533,4.2121,4.2567,4.3048,4.3601,4.3973,4.4213,4.4285,4.4285,4.4333,4.4525,4.4837,4.558,4.6415,4.7326,4.8229,4.9117,5.004,5.0968,5.1908,5.2404,5.3288,5.4101,5.4699,5.4995,5.5961,5.6365,5.6595,5.7024,5.7597,5.8319,5.9016,5.9684,6.0351,6.0758,6.1164,6.1193,6.1193,6.1193,6.1193,6.1193,6.1193,6.1193,6.1344,6.1761,6.2057,6.2175,6.2526,6.2963,6.3137,6.3137,6.3137,6.3137,6.3137,6.3137,3.0014,3.0442,3.1135,3.1929,3.2561,3.2631,3.3051,3.3678,3.3656,3.3431,3.3046,3.2643,3.2239,3.1836,3.1543,3.1377,3.1377,3.1377,3.1377,3.1377,3.1377,3.1377,3.1377,3.1377,3.1377,3.1377,3.1377,3.1699,3.2166,3.2358,3.274,3.3228,3.3292,3.3418,3.3481,3.4047,3.436,3.461,3.5726,3.6319,3.6517,3.744,3.8148,3.8154,3.9011,3.9686,4.0093,4.0813,4.1124,4.1052,4.1004,4.1052,4.1148,4.1196,4.1196,4.1196,4.1196,4.1196,4.1268,4.1639,4.2038,4.2543,4.3024,4.3601,4.4045,4.4189,4.4285,4.4285,4.4285,4.4453,4.4837,4.5429,4.6102,4.6932,4.7816,4.8794,4.9694,5.0295,5.1057,5.1934,5.2615,5.341,5.4401,5.4758,5.5261,5.6077,5.6451,5.6623,5.7196,5.7885,5.8523,5.9277,6.0003,6.0613,6.0903,6.1193,6.1193,6.1193,6.1193,6.1193,6.1193,6.1193,6.1193,6.1433,6.1702,6.1939,6.2175,6.2615,6.3137,6.3137,6.3137,6.3137,6.3137,6.3137,6.3137,3.0228,3.0513,3.1294,3.207,3.2631,3.2701,3.3121,3.3747,3.3817,3.3596,3.3248,3.2973,3.257,3.2019,3.1763,3.1598,3.1396,3.1377,3.1377,3.1377,3.1377,3.1377,3.1377,3.1377,3.1377,3.1377,3.1377,3.1763,3.223,3.2485,3.274,3.3355,3.3418,3.3418,3.3481,3.4047,3.436,3.4673,3.5665,3.6423,3.6606,3.7698,3.8596,3.8894,3.9697,4.0165,4.0223,4.0826,4.1115,4.1196,4.1196,4.1196,4.1196,4.1196,4.1196,4.1196,4.1196,4.1341,4.1557,4.188,4.2279,4.3048,4.3385,4.3732,4.4117,4.4285,4.4285,4.4285,4.4333,4.4501,4.5029,4.5621,4.6344,4.7369,4.8126,4.9072,5.004,5.0487,5.1031,5.2032,5.2799,5.3531,5.4281,5.4817,5.5437,5.6193,5.6337,5.6595,5.7397,5.8087,5.8726,5.9451,6.0235,6.0787,6.1048,6.1193,6.1193,6.1193,6.1193,6.1193,6.1193,6.1253,6.1253,6.1523,6.1821,6.2116,6.241,6.2847,6.3079,6.3137,6.3137,6.3137,6.3137,6.3137,6.3137,3.037,3.0442,3.1277,3.1999,3.2631,3.2719,3.3121,3.3747,3.3817,3.3651,3.334,3.3266,3.2771,3.2221,3.2001,3.1763,3.1469,3.1377,3.1377,3.1377,3.1377,3.1377,3.1377,3.1377,3.1377,3.1377,3.1506,3.191,3.2294,3.2485,3.2867,3.3292,3.3418,3.3418,3.3544,3.4047,3.436,3.4548,3.5747,3.6423,3.6606,3.7698,3.8619,3.9249,3.9814,4.0165,4.0339,4.0826,4.1196,4.1196,4.1196,4.1196,4.1196,4.1196,4.1196,4.1196,4.1293,4.1533,4.187,4.2182,4.2663,4.3481,4.3625,4.3866,4.4165,4.4285,4.4285,4.4285,4.4333,4.4549,4.5125,4.5645,4.6545,4.762,4.8354,4.9177,5.0232,5.0652,5.1283,5.2342,5.3105,5.3833,5.4401,5.4936,5.5613,5.6193,5.6365,5.6652,5.7425,5.8232,5.89,5.9568,6.0322,6.0845,6.1106,6.1193,6.1193,6.1193,6.1193,6.1193,6.1193,6.1193,6.1313,6.1554,6.185,6.2175,6.2468,6.2847,6.3021,6.3079,6.3137,6.3137,6.3137,6.3137,6.3137,3.037,3.0442,3.1277,3.1999,3.2631,3.2701,3.3121,3.3747,3.3817,3.378,3.367,3.3376,3.2991,3.2514,3.2129,3.1781,3.1469,3.1377,3.1377,3.1377,3.1377,3.1377,3.1377,3.1377,3.1377,3.1506,3.1653,3.2038,3.2358,3.2676,3.2994,3.3292,3.3418,3.3418,3.3544,3.4047,3.436,3.461,3.5685,3.6361,3.6667,3.7637,3.8679,3.9308,3.9873,4.0165,4.0339,4.0826,4.1196,4.1196,4.1196,4.1196,4.1244,4.1244,4.1244,4.1341,4.1653,4.1942,4.2182,4.2784,4.3216,4.3577,4.389,4.4093,4.4261,4.4285,4.4285,4.4309,4.4381,4.4669,4.563,4.591,4.6738,4.7914,4.8673,4.9227,5.027,5.0905,5.1497,5.2553,5.3349,5.4014,5.452,5.5054,5.5729,5.6193,5.6423,5.6737,5.7279,5.8203,5.9074,5.9713,6.038,6.0816,6.1193,6.1193,6.1193,6.1193,6.1193,6.1193,6.1193,6.1193,6.1344,6.1673,6.191,6.2234,6.2526,6.2905,6.3021,6.3079,6.3137,6.3137,6.3137,6.3137,6.3137,3.0513,3.0797,3.1559,3.2193,3.2701,3.2911,3.333,3.3747,3.3817,3.3817,3.3762,3.3596,3.3303,3.29,3.2496,3.1983,3.1524,3.1377,3.1377,3.1377,3.1377,3.1377,3.1396,3.1396,3.1377,3.157,3.191,3.2249,3.2422,3.2721,3.3102,3.3292,3.3418,3.3418,3.3544,3.4047,3.436,3.4673,3.5665,3.6423,3.6545,3.7698,3.8679,3.9308,3.9873,4.0165,4.0363,4.0826,4.1196,4.1196,4.1196,4.1341,4.1509,4.1605,4.1605,4.1701,4.2086,4.2519,4.2711,4.3313,4.3577,4.3938,4.4141,4.4261,4.4285,4.4285,4.4285,4.4357,4.4645,4.5005,4.5814,4.6255,4.7223,4.8289,4.8902,4.9525,5.0397,5.1157,5.1934,5.2738,5.3531,5.4134,5.458,5.5172,5.5845,5.625,5.6537,5.6851,5.7247,5.8058,5.8987,5.9742,6.0351,6.0816,6.1135,6.1193,6.1193,6.1193,6.1193,6.1193,6.1193,6.1193,6.1464,6.188,6.2116,6.2234,6.2643,6.3079,6.3079,6.3137,6.3137,6.3137,6.3137,6.3137,6.3137,3.0655,3.1064,3.1754,3.2333,3.2701,3.3139,3.3487,3.3747,3.3817,3.3817,3.3817,3.378,3.3578,3.3193,3.2753,3.2221,3.1616,3.1598,3.1543,3.1506,3.1414,3.1396,3.1506,3.1589,3.1662,3.2106,3.244,3.2573,3.2485,3.2848,3.3184,3.3355,3.3418,3.3418,3.3544,3.4047,3.4298,3.4797,3.5665,3.6423,3.7032,3.784,3.8679,3.9308,3.9873,4.0165,4.0281,4.0826,4.1293,4.1341,4.1437,4.1581,4.2038,4.223,4.2279,4.2351,4.2687,4.3096,4.3361,4.3649,4.3914,4.4165,4.4261,4.4285,4.4285,4.4309,4.4333,4.4477,4.4765,4.5342,4.6054,4.6722,4.7572,4.8403,4.9227,4.9847,5.0588,5.1372,5.2183,5.2983,5.3713,5.4314,5.4758,5.5348,5.5961,5.6308,5.6595,5.6908,5.7334,5.7913,5.8726,5.9568,6.0235,6.0787,6.1077,6.1193,6.1193,6.1193,6.1193,6.1193,6.1193,6.1193,6.1523,6.188,6.2057,6.2234,6.2701,6.3137,6.3137,6.3137,6.3137,6.3137,6.3137,6.3137,6.3137,3.0655,3.1081,3.1824,3.2333,3.2701,3.3121,3.3469,3.3817,3.3817,3.3817,3.3817,3.3798,3.3596,3.3193,3.2808,3.2551,3.2331,3.2074,3.1928,3.1891,3.1653,3.1671,3.1891,3.1928,3.229,3.2701,3.3209,3.3065,3.2899,3.3174,3.3369,3.3516,3.3574,3.3437,3.3579,3.4147,3.436,3.461,3.5726,3.6972,3.79,3.8261,3.8716,3.9308,3.9861,4.0235,4.0399,4.0993,4.1509,4.1846,4.187,4.2134,4.2615,4.312,4.3289,4.3337,4.3385,4.3457,4.3625,4.3914,4.4093,4.4261,4.4285,4.4285,4.4285,4.4309,4.4453,4.4957,4.5077,4.5534,4.6319,4.698,4.767,4.8484,4.9292,4.9912,5.0677,5.1596,5.2492,5.3254,5.3981,5.4493,5.4995,5.5554,5.6077,5.6365,5.6709,5.6964,5.7364,5.7914,5.8406,5.919,6.0003,6.0584,6.0932,6.1048,6.1193,6.1193,6.1193,6.1193,6.1193,6.1253,6.1523,6.1821,6.1998,6.2351,6.2847,6.3137,6.3137,6.3137,6.3137,6.3137,6.3137,6.3137,6.3137,3.0797,3.1435,3.214,3.2561,3.2771,3.333,3.3678,3.3817,3.3817,3.3817,3.3817,3.3817,3.3596,3.3248,3.301,3.2808,3.2606,3.2423,3.2349,3.2331,3.2148,3.2148,3.2294,3.2331,3.2678,3.3188,3.352,3.3699,3.3551,3.3818,3.4141,3.4101,3.4121,3.4023,3.3872,3.4489,3.4581,3.4879,3.5726,3.7032,3.8021,3.844,3.8679,3.9331,4.0176,4.0587,4.0834,4.1613,4.2134,4.2458,4.2482,4.2723,4.3072,4.3409,4.3601,4.3925,4.3925,4.3925,4.3973,4.4165,4.4261,4.4285,4.4285,4.4285,4.4285,4.4333,4.4525,4.5005,4.5342,4.5958,4.6737,4.7515,4.8044,4.8722,4.9551,5.0232,5.0931,5.1846,5.2738,5.347,5.4221,5.4758,5.5203,5.5787,5.6193,5.6423,5.6737,5.7134,5.7479,5.7913,5.8348,5.8755,5.9568,6.0322,6.0642,6.0845,6.1135,6.1193,6.1193,6.1193,6.1193,6.1284,6.1583,6.1821,6.2057,6.2468,6.2963,6.3137,6.3137,6.3137,6.3137,6.3137,6.3137,6.3109,6.3318,3.0868,3.163,3.2421,3.2719,3.2771,3.3469,3.3817,3.3817,3.3817,3.3817,3.3817,3.3817,3.3651,3.3431,3.3358,3.323,3.2936,3.2808,3.2753,3.2735,3.2661,3.2625,3.2716,3.2753,3.3095,3.364,3.3954,3.4299,3.468,3.4868,3.4922,3.4726,3.457,3.4473,3.4511,3.4927,3.5255,3.5663,3.6435,3.7526,3.8564,3.8806,3.9145,3.9836,4.0559,4.121,4.14,4.215,4.2711,4.2928,4.2952,4.3192,4.3625,4.3794,4.3938,4.4141,4.4213,4.4213,4.4213,4.4261,4.4285,4.4285,4.4285,4.4285,4.4309,4.4357,4.4693,4.5357,4.5838,4.6343,4.702,4.8028,4.8542,4.9137,4.9912,5.055,5.1309,5.2183,5.2983,5.3713,5.4401,5.4995,5.5496,5.6077,5.6337,5.6451,5.6794,5.7247,5.7536,5.7826,5.8116,5.8464,5.9219,5.9974,6.038,6.0671,6.0961,6.1193,6.1193,6.1193,6.1193,6.1344,6.1583,6.188,6.2116,6.2526,6.3021,6.3079,6.3137,6.3137,6.3137,6.3137,6.3137,6.3169,6.3588,3.0868,3.163,3.2421,3.2719,3.2771,3.3469,3.3817,3.3817,3.3817,3.3817,3.3817,3.3817,3.3798,3.3743,3.3707,3.3688,3.367,3.334,3.3211,3.3046,3.2845,3.2936,3.3083,3.3348,3.3663,3.447,3.4705,3.5084,3.5656,3.5636,3.5332,3.4824,3.4941,3.4766,3.491,3.5371,3.6298,3.6791,3.7423,3.822,3.9197,3.9652,3.9898,4.0617,4.1257,4.1774,4.1774,4.258,4.3096,4.3457,4.3481,4.3625,4.3973,4.4069,4.4189,4.4237,4.4285,4.4285,4.4285,4.4285,4.4285,4.4285,4.4285,4.4333,4.4429,4.4789,4.5221,4.579,4.6271,4.6906,4.7579,4.8355,4.8772,4.9486,5.0104,5.0842,5.1596,5.2492,5.3288,5.4014,5.4612,5.5144,5.5671,5.6135,5.648,5.6595,5.6908,5.7303,5.7303,5.7565,5.7797,5.8203,5.89,5.9568,6.0148,6.0555,6.1048,6.1193,6.1193,6.1193,6.1193,6.1404,6.1613,6.1998,6.2234,6.2673,6.2963,6.3079,6.3137,6.3137,6.3137,6.3137,6.3348,6.3588,6.4066,3.0868,3.163,3.2421,3.2719,3.2771,3.3469,3.3817,3.3817,3.3817,3.3817,3.3817,3.3817,3.3817,3.3817,3.3817,3.3817,3.3798,3.3688,3.3596,3.356,3.3468,3.3468,3.3647,3.3853,3.429,3.4834,3.5127,3.547,3.5928,3.6035,3.5898,3.5566,3.543,3.5493,3.564,3.5952,3.6802,3.753,3.7954,3.8501,3.9503,3.9837,4.0146,4.0762,4.183,4.2207,4.2461,4.3296,4.3695,4.3901,4.401,4.4093,4.4237,4.4285,4.4285,4.4285,4.4285,4.4285,4.4285,4.4285,4.4285,4.4285,4.4309,4.4405,4.4669,4.5005,4.5558,4.615,4.6583,4.7213,4.7839,4.8379,4.8837,4.959,5.0359,5.1157,5.197,5.2861,5.3592,5.4281,5.473,5.5203,5.5729,5.625,5.648,5.6709,5.705,5.7303,5.7303,5.7303,5.7565,5.8,5.8697,5.919,5.9771,6.0438,6.1135,6.1193,6.1193,6.1193,6.1253,6.1464,6.1673,6.2057,6.241,6.2731,6.2963,6.3079,6.3137,6.3137,6.3137,6.3137,6.3438,6.3917,6.4455,3.0781,3.1506,3.2351,3.2719,3.2771,3.3469,3.3817,3.3817,3.3817,3.3817,3.3817,3.3817,3.3817,3.3817,3.3817,3.3817,3.3817,3.3798,3.3798,3.378,3.3762,3.3817,3.3955,3.4144,3.4471,3.4921,3.5333,3.5675,3.6016,3.6035,3.5976,3.5957,3.6016,3.5964,3.6169,3.6532,3.7198,3.7974,3.8274,3.8913,4.0033,4.0307,4.0643,4.1312,4.2296,4.2723,4.3042,4.3602,4.4141,4.4213,4.4237,4.4261,4.4285,4.4285,4.4285,4.4285,4.4285,4.4285,4.4285,4.4285,4.4285,4.4285,4.4525,4.4717,4.4981,4.5317,4.6126,4.6511,4.6889,4.7375,4.8158,4.8706,4.9292,5.004,5.0804,5.1534,5.228,5.3105,5.38,5.446,5.4936,5.5437,5.5991,5.6509,5.6766,5.6993,5.7107,5.7303,5.7303,5.7303,5.7361,5.7855,5.8523,5.8958,5.9364,6.0322,6.1164,6.1193,6.1193,6.1193,6.1224,6.1523,6.1732,6.2057,6.241,6.2789,6.2963,6.3079,6.3137,6.3137,6.3137,6.3137,6.3438,6.3887,6.4575,3.0655,3.1152,3.221,3.2719,3.2771,3.3469,3.3817,3.3817,3.3817,3.3817,3.3817,3.3817,3.3817,3.3817,3.3817,3.3817,3.3817,3.3817,3.3817,3.3817,3.3817,3.3817,3.4024,3.4301,3.4715,3.4921,3.5333,3.5743,3.6035,3.6035,3.6035,3.6084,3.6152,3.6248,3.6547,3.724,3.8109,3.897,3.9082,3.9953,4.0771,4.1046,4.1493,4.2126,4.2739,4.3161,4.3458,4.3879,4.4285,4.4285,4.4285,4.4285,4.4285,4.4285,4.4285,4.4285,4.4285,4.4309,4.4333,4.4309,4.4357,4.4477,4.4789,4.5213,4.5342,4.5958,4.6583,4.6872,4.7399,4.797,4.8576,4.9162,4.9719,5.0397,5.1094,5.1872,5.2677,5.347,5.4161,5.4699,5.5231,5.5729,5.6279,5.6794,5.7078,5.7247,5.7303,5.7303,5.7303,5.7332,5.7361,5.7913,5.8581,5.9132,5.9684,6.0526,6.1135,6.1164,6.1193,6.1193,6.1344,6.1642,6.1939,6.2116,6.2526,6.2963,6.3079,6.3137,6.3137,6.3137,6.3137,6.3226,6.3468,6.3977,6.4725,3.0655,3.1081,3.221,3.2719,3.2771,3.3469,3.3817,3.3817,3.3817,3.3817,3.3817,3.3817,3.3817,3.3817,3.3817,3.3817,3.3817,3.3817,3.3817,3.3817,3.3817,3.4024,3.4232,3.4508,3.4921,3.5264,3.5694,3.5831,3.6035,3.6035,3.6035,3.6084,3.6423,3.6742,3.7126,3.775,3.8681,3.921,3.967,4.0388,4.1164,4.1486,4.1934,4.257,4.3075,4.3389,4.3553,4.4075,4.4285,4.4285,4.4285,4.4285,4.4285,4.4285,4.4285,4.4285,4.4309,4.4477,4.4669,4.4813,4.4813,4.4981,4.5333,4.579,4.6199,4.6439,4.6848,4.7202,4.7724,4.8248,4.8576,4.9227,4.9847,5.055,5.1309,5.2121,5.2922,5.3861,5.4607,5.4995,5.5437,5.6019,5.6595,5.6908,5.7191,5.7303,5.7303,5.7303,5.7303,5.739,5.7448,5.8116,5.8755,5.9335,6.0003,6.0729,6.1135,6.1164,6.1193,6.1193,6.1404,6.1761,6.1939,6.2116,6.2643,6.3137,6.3137,6.3137,6.3137,6.3137,6.3199,6.3378,6.3707,6.4306,6.5054,3.0584,3.0939,3.214,3.2719,3.2771,3.3469,3.3817,3.3817,3.3817,3.3817,3.3817,3.3817,3.3817,3.3817,3.3817,3.3817,3.3817,3.3817,3.3817,3.3817,3.3817,3.4024,3.437,3.4784,3.5059,3.547,3.5831,3.6035,3.6035,3.6035,3.6084,3.6336,3.6742,3.7079,3.7482,3.815,3.8814,3.9276,3.9801,4.0539,4.1187,4.1614,4.2125,4.2696,4.3137,4.3451,4.374,4.4075,4.4285,4.4285,4.4285,4.4285,4.4285,4.4285,4.4285,4.4285,4.4333,4.4549,4.4885,4.5293,4.5453,4.5742,4.603,4.6319,4.6704,4.6896,4.7268,4.7617,4.7936,4.8355,4.8772,4.9396,5.0168,5.0867,5.1622,5.243,5.3227,5.4161,5.4699,5.5085,5.5613,5.625,5.6766,5.705,5.7303,5.7303,5.7303,5.7303,5.7332,5.7419,5.7623,5.829,5.89,5.948,6.009,6.0729,6.1048,6.1164,6.1193,6.1193,6.1433,6.1702,6.188,6.2175,6.2701,6.3079,6.3079,6.3137,6.3199,6.3348,6.3498,6.3707,6.3977,6.4665,6.5443,3.0337,3.0638,3.2052,3.2684,3.2841,3.3469,3.3817,3.3817,3.3817,3.3817,3.3817,3.3817,3.3817,3.3817,3.3817,3.3817,3.3817,3.3817,3.3817,3.3817,3.3886,3.4163,3.4439,3.4853,3.5264,3.5538,3.5811,3.6035,3.6035,3.6084,3.6268,3.6519,3.7011,3.7348,3.7883,3.8416,3.8946,3.9341,4.0062,4.0734,4.1315,4.1678,4.2252,4.2759,4.32,4.3514,4.3826,4.4161,4.4285,4.4285,4.4285,4.4285,4.4285,4.4285,4.4285,4.4285,4.4285,4.4693,4.5149,4.5669,4.6175,4.6487,4.668,4.6752,4.6872,4.7161,4.7485,4.7846,4.8248,4.8682,4.9137,4.9912,5.0614,5.1283,5.197,5.2799,5.3531,5.4194,5.4699,5.5203,5.5787,5.6365,5.688,5.7191,5.7303,5.7303,5.7303,5.7303,5.7361,5.7565,5.7855,5.8464,5.9074,5.9626,6.0235,6.0903,6.1048,6.1193,6.1193,6.1253,6.1433,6.1642,6.1939,6.2292,6.2701,6.3021,6.3079,6.3228,6.3438,6.3617,6.3947,6.4395,6.4755,6.5233,6.5892,2.9798,3.0186,3.1652,3.2435,3.2754,3.3469,3.3817,3.3817,3.3817,3.3817,3.3817,3.3817,3.3817,3.3817,3.3817,3.3817,3.3817,3.3817,3.3817,3.3886,3.4094,3.4439,3.4784,3.5127,3.547,3.5743,3.5967,3.6035,3.6084,3.62,3.6539,3.6944,3.7213,3.775,3.8283,3.8814,3.9078,3.9538,4.0409,4.0993,4.1421,4.187,4.2443,4.3012,4.3263,4.3639,4.4013,4.4223,4.4285,4.4285,4.4285,4.4285,4.4285,4.4285,4.4285,4.4333,4.4621,4.5077,4.5669,4.6175,4.668,4.7064,4.7209,4.7281,4.7329,4.7443,4.763,4.805,4.8379,4.8772,4.9396,5.0104,5.0842,5.1534,5.2245,5.2983,5.3713,5.4341,5.4877,5.5613,5.6135,5.6595,5.7021,5.7191,5.7303,5.7303,5.7332,5.7361,5.7477,5.771,5.8116,5.8726,5.9364,5.9945,6.0496,6.1106,6.1135,6.1193,6.1193,6.1253,6.1373,6.1583,6.1939,6.2351,6.2759,6.3021,6.3079,6.3318,6.3707,6.4246,6.4635,6.5084,6.5533,6.5922,6.6251,2.9451,2.9857,3.1252,3.2165,3.2687,3.3116,3.3413,3.3578,3.3743,3.3817,3.3817,3.3817,3.3817,3.3817,3.3817,3.3817,3.3817,3.3817,3.3886,3.4163,3.4301,3.4715,3.5059,3.5401,3.5606,3.5899,3.6035,3.6035,3.6084,3.6336,3.6654,3.7079,3.7415,3.8017,3.8549,3.9012,3.9363,3.9931,4.0582,4.1229,4.1678,4.2125,4.2759,4.32,4.3389,4.3826,4.4223,4.4285,4.4285,4.4285,4.4285,4.4285,4.4285,4.4285,4.4477,4.4573,4.4837,4.5501,4.6102,4.6463,4.6968,4.7329,4.7497,4.7473,4.7473,4.7473,4.7828,4.8182,4.851,4.8902,4.959,5.0295,5.1057,5.1747,5.2492,5.3227,5.3894,5.452,5.5203,5.6019,5.6537,5.6908,5.7134,5.7247,5.7303,5.7303,5.7419,5.7536,5.7739,5.8029,5.8464,5.9016,5.9684,6.0322,6.0816,6.1193,6.1193,6.1193,6.1193,6.1253,6.1313,6.1642,6.2116,6.2526,6.2817,6.3111,6.3348,6.3677,6.4066,6.4665,6.5293,6.5712,6.6071,6.64,6.67,2.9253,2.9355,3.0905,3.1971,3.2539,3.2661,3.2845,3.3193,3.3505,3.3743,3.378,3.3817,3.3817,3.3817,3.3817,3.3817,3.3886,3.3886,3.4094,3.4439,3.4577,3.4921,3.5264,3.5538,3.5743,3.5967,3.6016,3.6084,3.6132,3.6471,3.6856,3.7146,3.7616,3.815,3.8747,3.9276,3.9757,4.0474,4.0971,4.1486,4.187,4.2379,4.2949,4.324,4.3553,4.395,4.4223,4.4285,4.4285,4.4285,4.4285,4.4285,4.4285,4.4429,4.4669,4.5005,4.5245,4.5862,4.6415,4.6776,4.7064,4.7353,4.7497,4.7497,4.7497,4.763,4.796,4.8379,4.8641,4.9292,4.9976,5.055,5.1183,5.1996,5.2799,5.3531,5.4221,5.4877,5.5671,5.6308,5.668,5.7078,5.7191,5.7303,5.7303,5.7303,5.7565,5.7768,5.8087,5.8406,5.89,5.9451,6.0061,6.0642,6.0903,6.1193,6.1193,6.1193,6.1193,6.1284,6.1404,6.1821,6.2351,6.2761,6.3141,6.344,6.3767,6.4216,6.4755,6.5383,6.5922,6.6311,6.664,6.6819,6.6879,2.8692,2.9091,3.08,3.1935,3.2521,3.2606,3.2643,3.2753,3.3095,3.3502,3.3725,3.3798,3.3886,3.3886,3.3886,3.3886,3.3886,3.4163,3.4301,3.4646,3.494,3.5196,3.5538,3.5743,3.5879,3.5967,3.6016,3.6152,3.6403,3.6742,3.7146,3.7549,3.8017,3.8615,3.9078,3.9625,4.0279,4.0928,4.1357,4.1678,4.1998,4.2443,4.2949,4.3302,4.3615,4.395,4.4223,4.4285,4.4285,4.4285,4.4285,4.4285,4.4285,4.4732,4.4909,4.5173,4.5838,4.6343,4.6704,4.704,4.7305,4.7401,4.7497,4.7497,4.7563,4.7762,4.8026,4.851,4.8967,4.959,5.0232,5.0741,5.1372,5.2218,5.3105,5.3773,5.4548,5.532,5.6049,5.6451,5.6908,5.7134,5.7247,5.7303,5.7303,5.7536,5.7942,5.8261,5.8668,5.9016,5.9539,6.0061,6.0555,6.1019,6.1164,6.1193,6.1193,6.1193,6.1193,6.1284,6.1464,6.1998,6.2556,6.3026,6.3408,6.3767,6.4306,6.5054,6.5622,6.6101,6.637,6.667,6.6759,6.6909,6.6969,2.8395,2.8793,3.0313,3.1414,3.199,3.2253,3.2345,3.2578,3.2908,3.3281,3.3743,3.3948,3.4115,3.4264,3.4283,3.4214,3.4301,3.4508,3.4784,3.5059,3.5196,3.5538,3.5743,3.5879,3.5947,3.6035,3.6016,3.6152,3.6519,3.6944,3.728,3.7904,3.8482,3.8946,3.9407,4.0018,4.0669,4.1251,4.1678,4.1911,4.2166,4.2696,4.32,4.3514,4.3826,4.4137,4.4223,4.4285,4.4285,4.4285,4.4285,4.4501,4.4621,4.4972,4.5317,4.5774,4.6367,4.6824,4.7064,4.7281,4.7497,4.7497,4.7497,4.7497,4.763,4.7828,4.8248,4.8706,4.9137,4.9719,5.0397,5.0968,5.1659,5.2404,5.3349,5.4134,5.4908,5.5729,5.6164,5.6394,5.6794,5.7191,5.7303,5.7303,5.739,5.7855,5.8232,5.8813,5.9219,5.9568,6.0119,6.0555,6.0961,6.1135,6.1164,6.1193,6.1193,6.1193,6.1193,6.1464,6.1702,6.2234,6.2703,6.3142,6.3558,6.4096,6.4695,6.5473,6.6101,6.652,6.6729,6.6939,6.6999,6.6999,6.6999,2.8395,2.8725,2.9922,3.0833,3.1396,3.1736,3.2069,3.2478,3.2841,3.3198,3.3634,3.4041,3.4459,3.4713,3.4902,3.4921,3.4921,3.4921,3.5196,3.5333,3.5557,3.5743,3.5879,3.6035,3.6035,3.6084,3.6084,3.6336,3.6654,3.7079,3.7549,3.8171,3.8702,3.9078,3.9691,4.0279,4.0841,4.1421,4.187,4.2316,4.2759,4.3137,4.3451,4.3764,4.4099,4.4285,4.4285,4.4285,4.4285,4.4285,4.4309,4.4573,4.4909,4.5261,4.5838,4.6319,4.6728,4.7088,4.7329,4.7425,4.7497,4.7497,4.7497,4.7563,4.7696,4.805,4.8445,4.8967,4.9396,4.9912,5.0588,5.1283,5.197,5.265,5.3565,5.4493,5.5261,5.6019,5.6222,5.6394,5.6794,5.7247,5.7332,5.7332,5.771,5.8145,5.8726,5.9306,5.98,6.0148,6.0584,6.0816,6.1048,6.1164,6.1193,6.1193,6.1193,6.1193,6.1253,6.1583,6.1939,6.2468,6.2819,6.3113,6.3588,6.4336,6.4994,6.5712,6.6281,6.6849,6.6909,6.6999,6.6999,6.6999,6.6999,2.8988,3.0053,3.0313,3.0815,3.1442,3.1782,3.1966,3.2086,3.2682,3.3149,3.3642,3.3927,3.4266,3.4448,3.4789,3.4971,3.5127,3.5264,3.5333,3.547,3.5743,3.5879,3.6016,3.6035,3.6035,3.6084,3.6268,3.6586,3.6991,3.7348,3.7883,3.8549,3.8946,3.9473,4.0214,4.0734,4.1229,4.1742,4.2252,4.2759,4.3012,4.3326,4.349,4.3826,4.4161,4.4223,4.4285,4.4285,4.4285,4.4285,4.4357,4.4669,4.5077,4.5597,4.615,4.668,4.7088,4.7281,4.7473,4.7497,4.7497,4.7497,4.7497,4.763,4.7828,4.8248,4.8706,4.9357,4.9783,5.0168,5.0804,5.1534,5.228,5.2956,5.3773,5.4612,5.5437,5.6019,5.6337,5.6623,5.6908,5.7249,5.7448,5.7681,5.8116,5.8639,5.9335,5.9858,6.0206,6.0613,6.099,6.1077,6.1164,6.1193,6.1193,6.1193,6.1193,6.1193,6.1313,6.1642,6.2116,6.2643,6.3023,6.3348,6.4006,6.4784,6.5413,6.5981,6.646,6.6939,6.6939,6.6999,6.6999,6.6999,6.6999]}]]